[[{"header":{"parameterUnit":"m.s-1","parameterCategory":1,"la1":30.6,"la2":28.766,"lo1":-90.7593,"lo2":-88.6598,"dy":0.0162,"dx":0.0183,"nx":116,"ny":114,"refTime":"2023-10-21T18:00:00:Z","depth":0,"parameterNumber":2,"parameterNumberName":"U-component_of_WINDS"},"data":[0.0,0.0,0.0,0.0,0.0,0.0,0.0,0.0,0.0,0.0,0.0,0.0,0.0,0.0,0.0,0.0,0.0,0.0,0.0,0.0,0.0,0.0,0.0,0.0,0.0,0.0,0.0,0.0,0.0,0.0,0.0,0.0,0.0,0.0,0.0,0.0,0.0,0.0,0.0,0.0,0.0,0.0,0.0,0.0,0.0,0.0,0.0,0.0,0.0,0.0,0.0,0.0,0.0,0.0,0.0,0.0,0.0,0.0,0.0,0.0,0.0,0.0,0.0,0.0,0.0,0.0,0.0,0.0,0.0,0.0,0.0,0.0,0.0,0.0,0.0,0.0,0.0,0.0,0.0,0.0,0.0,0.0,0.0,0.0,0.0,0.0,0.0,0.0,0.0,0.0,0.0,0.0,0.0,0.0,0.0,0.0,0.0,0.0,0.0,0.0,0.0,0.0,0.0,0.0,0.0,0.0,0.0,0.0,0.0,0.0,0.0,0.0,0.0,0.0,0.0,0.0,0.0,0.0,0.0,0.0,0.0,0.0,0.0,0.0,0.0,0.0,0.0,0.0,0.0,0.0,0.0,0.0,0.0,0.0,0.0,0.0,0.0,0.0,0.0,0.0,0.0,0.0,0.0,0.0,0.0,0.0,0.0,0.0,0.0,0.0,0.0,0.0,0.0,0.0,0.0,0.0,0.0,0.0,0.0,0.0,0.0,0.0,0.0,0.0,0.0,0.0,0.0,0.0,0.0,0.0,0.0,0.0,0.0,0.0,0.0,0.0,0.0,0.0,0.0,0.0,0.0,0.0,0.0,0.0,0.0,0.0,0.0,0.0,0.0,0.0,0.0,0.0,0.0,0.0,0.0,0.0,0.0,0.0,0.0,0.0,0.0,0.0,0.0,0.0,0.0,0.0,0.0,0.0,0.0,0.0,0.0,0.0,0.0,0.0,0.0,0.0,0.0,0.0,0.0,0.0,0.0,0.0,0.0,0.0,0.0,0.0,0.0,0.0,0.0,0.0,0.0,0.0,0.0,0.0,0.0,0.0,0.0,0.0,0.0,0.0,0.0,0.0,0.0,0.0,0.0,0.0,0.0,0.0,0.0,0.0,0.0,0.0,0.0,0.0,0.0,0.0,0.0,0.0,0.0,0.0,0.0,0.0,0.0,0.0,0.0,0.0,0.0,0.0,0.0,0.0,0.0,0.0,0.0,0.0,0.0,0.0,0.0,0.0,0.0,0.0,0.0,0.0,0.0,0.0,0.0,0.0,0.0,0.0,0.0,0.0,0.0,0.0,0.0,0.0,0.0,0.0,0.0,0.0,0.0,0.0,0.0,0.0,0.0,0.0,0.0,0.0,0.0,0.0,0.0,0.0,0.0,0.0,0.0,0.0,0.0,0.0,0.0,0.0,0.0,0.0,0.0,0.0,0.0,0.0,0.0,0.0,0.0,0.0,0.0,0.0,0.0,0.0,0.0,0.0,0.0,0.0,0.0,0.0,0.0,0.0,0.0,0.0,0.0,0.0,0.0,0.0,0.0,0.0,0.0,0.0,0.0,0.0,0.0,0.0,0.0,0.0,0.0,0.0,0.0,0.0,0.0,0.0,0.0,0.0,0.0,0.0,0.0,0.0,0.0,0.0,0.0,0.0,0.0,0.0,0.0,0.0,0.0,0.0,0.0,0.0,0.0,0.0,0.0,0.0,0.0,0.0,0.0,0.0,0.0,0.0,0.0,0.0,0.0,0.0,0.0,0.0,0.0,0.0,0.0,0.0,0.0,0.0,0.0,0.0,0.0,0.0,0.0,0.0,0.0,0.0,0.0,0.0,0.0,0.0,0.0,0.0,0.0,0.0,0.0,0.0,0.0,0.0,0.0,0.0,0.0,0.0,0.0,0.0,0.0,0.0,0.0,0.0,0.0,0.0,0.0,0.0,0.0,0.0,0.0,0.0,0.0,0.0,0.0,0.0,0.0,0.0,0.0,0.0,0.0,0.0,0.0,0.0,0.0,0.0,0.0,0.0,0.0,0.0,0.0,0.0,0.0,0.0,0.0,0.0,0.0,0.0,0.0,0.0,0.0,0.0,0.0,0.0,0.0,0.0,0.0,0.0,0.0,0.0,0.0,0.0,0.0,0.0,0.0,0.0,0.0,0.0,0.0,0.0,0.0,0.0,0.0,0.0,0.0,0.0,0.0,0.0,0.0,0.0,0.0,0.0,0.0,0.0,0.0,0.0,0.0,0.0,0.0,0.0,0.0,0.0,0.0,0.0,0.0,0.0,0.0,0.0,0.0,0.0,0.0,0.0,0.0,0.0,0.0,0.0,0.0,0.0,0.0,0.0,0.0,0.0,0.0,0.0,0.0,0.0,0.0,0.0,0.0,0.0,0.0,0.0,0.0,0.0,0.0,0.0,0.0,0.0,0.0,0.0,0.0,0.0,0.0,0.0,0.0,0.0,0.0,0.0,0.0,0.0,0.0,0.0,0.0,0.0,0.0,0.0,0.0,0.0,0.0,0.0,0.0,0.0,0.0,0.0,0.0,0.0,0.0,0.0,0.0,0.0,0.0,0.0,0.0,0.0,0.0,0.0,0.0,0.0,0.0,0.0,0.0,0.0,0.0,0.0,0.0,0.0,0.0,0.0,0.0,0.0,0.0,0.0,0.0,0.0,0.0,0.0,0.0,0.0,0.0,0.0,0.0,0.0,0.0,0.0,0.0,0.0,0.0,0.0,0.0,0.0,0.0,0.0,0.0,0.0,0.0,0.0,0.0,0.0,0.0,0.0,0.0,0.0,0.0,0.0,0.0,0.0,0.0,0.0,0.0,0.0,0.0,0.0,0.0,0.0,0.0,0.0,0.0,0.0,0.0,0.0,0.0,0.0,0.0,0.0,0.0,0.0,0.0,0.0,0.0,0.0,0.0,0.0,0.0,0.0,0.0,0.0,0.0,0.0,0.0,0.0,0.0,0.0,0.0,0.0,0.0,0.0,0.0,0.0,0.0,0.0,0.0,0.0,0.0,0.0,0.0,0.0,0.0,0.0,0.0,0.0,0.0,0.0,0.0,0.0,0.0,0.0,0.0,0.0,0.0,0.0,0.0,0.0,0.0,0.0,0.0,0.0,0.0,0.0,0.0,0.0,0.0,0.0,0.0,0.0,0.0,0.0,0.0,0.0,0.0,0.0,0.0,0.0,0.0,0.0,0.0,0.0,0.0,0.0,0.0,0.0,0.0,0.0,0.0,0.0,0.0,0.0,0.0,0.0,0.0,0.0,0.0,0.0,0.0,0.0,0.0,0.0,0.0,0.0,0.0,0.0,0.0,0.0,0.0,0.0,0.0,0.0,0.0,0.0,0.0,0.0,0.0,0.0,0.0,0.0,0.0,0.0,0.0,0.0,0.0,0.0,0.0,0.0,0.0,0.0,0.0,0.0,0.0,0.0,0.0,0.0,0.0,0.0,0.0,0.0,0.0,0.0,0.0,0.0,0.0,0.0,0.0,0.0,0.0,0.0,0.0,0.0,0.0,0.0,0.0,0.0,0.0,0.0,0.0,0.0,0.0,0.0,0.0,0.0,0.0,0.0,0.0,0.0,0.0,0.0,0.0,0.0,0.0,0.0,0.0,0.0,0.0,0.0,0.0,0.0,0.0,0.0,0.0,0.0,0.0,0.0,0.0,0.0,0.0,0.0,0.0,0.0,0.0,0.0,0.0,0.0,0.0,0.0,0.0,0.0,0.0,0.0,0.0,0.0,0.0,0.0,0.0,0.0,0.0,0.0,0.0,0.0,0.0,0.0,0.0,0.0,0.0,0.0,0.0,0.0,0.0,0.0,0.0,0.0,0.0,0.0,0.0,0.0,0.0,0.0,0.0,0.0,0.0,0.0,0.0,0.0,0.0,0.0,0.0,0.0,0.0,0.0,0.0,0.0,0.0,0.0,0.0,0.0,0.0,0.0,0.0,0.0,0.0,0.0,0.0,0.0,0.0,0.0,0.0,0.0,0.0,0.0,0.0,0.0,0.0,0.0,0.0,0.0,0.0,0.0,0.0,0.0,0.0,0.0,0.0,0.0,0.0,0.0,0.0,0.0,0.0,0.0,0.0,0.0,0.0,0.0,0.0,0.0,0.0,0.0,0.0,0.0,0.0,0.0,0.0,0.0,0.0,0.0,0.0,0.0,0.0,0.0,0.0,0.0,0.0,0.0,0.0,0.0,0.0,0.0,0.0,0.0,0.0,0.0,0.0,0.0,0.0,0.0,0.0,0.0,0.0,0.0,0.0,0.0,0.0,0.0,0.0,0.0,0.0,0.0,0.0,0.0,0.0,0.0,0.0,0.0,0.0,0.0,0.0,0.0,0.0,0.0,0.0,0.0,0.0,0.0,0.0,0.0,0.0,0.0,0.0,0.0,0.0,0.0,0.0,0.0,0.0,0.0,0.0,0.0,0.0,0.0,0.0,0.0,0.0,0.0,0.0,0.0,0.0,0.0,0.0,0.0,0.0,0.0,0.0,0.0,0.0,0.0,0.0,0.0,0.0,0.0,0.0,0.0,0.0,0.0,0.0,0.0,0.0,0.0,0.0,0.0,0.0,0.0,0.0,0.0,0.0,0.0,0.0,0.0,0.0,0.0,0.0,0.0,0.0,0.0,0.0,0.0,0.0,0.0,0.0,0.0,0.0,0.0,0.0,0.0,0.0,0.0,0.0,0.0,0.0,0.0,0.0,0.0,0.0,0.0,0.0,0.0,0.0,0.0,0.0,0.0,0.0,0.0,0.0,0.0,0.0,0.0,0.0,0.0,0.0,0.0,0.0,0.0,0.0,0.0,0.0,0.0,0.0,0.0,0.0,0.0,0.0,0.0,0.0,0.0,0.0,0.0,0.0,0.0,0.0,0.0,0.0,0.0,0.0,0.0,0.0,0.0,0.0,0.0,0.0,0.0,0.0,0.0,0.0,0.0,0.0,0.0,0.0,0.0,0.0,0.0,0.0,0.0,0.0,0.0,0.0,0.0,0.0,0.0,0.0,0.0,0.0,0.0,0.0,0.0,0.0,0.0,0.0,0.0,0.0,0.0,0.0,0.0,0.0,0.0,0.0,0.0,0.0,0.0,0.0,0.0,0.0,0.0,0.0,0.0,0.0,0.0,0.0,0.0,0.0,0.0,0.0,0.0,0.0,0.0,0.0,0.0,0.0,0.0,0.0,0.0,0.0,0.0,0.0,0.0,0.0,0.0,0.0,0.0,0.0,0.0,0.0,0.0,0.0,0.0,0.0,0.0,0.0,0.0,0.0,0.0,0.0,0.0,0.0,0.0,0.0,0.0,0.0,0.0,0.0,0.0,0.0,0.0,0.0,0.0,0.0,0.0,0.0,0.0,0.0,0.0,0.0,0.0,0.0,0.0,0.0,0.0,0.0,0.0,0.0,0.0,0.0,0.0,0.0,0.0,0.0,0.0,0.0,0.0,0.0,0.0,0.0,0.0,0.0,0.0,0.0,0.0,0.0,0.0,0.0,0.0,0.0,0.0,0.0,0.0,0.0,0.0,0.0,0.0,0.0,0.0,0.0,0.0,0.0,0.0,0.0,0.0,0.0,0.0,0.0,0.0,0.0,0.0,0.0,0.0,0.0,0.0,0.0,0.0,0.0,0.0,0.0,0.0,0.0,0.0,0.0,0.0,0.0,0.0,0.0,0.0,0.0,0.0,0.0,0.0,0.0,0.0,0.0,0.0,0.0,0.0,0.0,0.0,0.0,0.0,0.0,0.0,0.0,0.0,0.0,0.0,0.0,0.0,0.0,0.0,0.0,0.0,0.0,0.0,0.0,0.0,0.0,0.0,0.0,0.0,0.0,0.0,0.0,0.0,0.0,0.0,0.0,0.0,0.0,0.0,0.0,0.0,0.0,0.0,0.0,0.0,0.0,0.0,0.0,0.0,0.0,0.0,0.0,0.0,0.0,0.0,0.0,0.0,0.0,0.0,0.0,0.0,0.0,0.0,0.0,0.0,0.0,0.0,0.0,0.0,0.0,0.0,0.0,0.0,0.0,0.0,0.0,0.0,0.0,0.0,0.0,0.0,0.0,0.0,0.0,0.0,0.0,0.0,0.0,0.0,0.0,0.0,-3.4138,0.0,0.0,0.0,0.0,0.0,0.0,0.0,0.0,0.0,0.0,0.0,0.0,0.0,0.0,0.0,0.0,0.0,0.0,0.0,0.0,0.0,0.0,0.0,0.0,0.0,0.0,0.0,0.0,0.0,0.0,0.0,0.0,0.0,0.0,0.0,0.0,0.0,0.0,0.0,-2.5359,-2.6003,-2.7024,-2.7629,-2.7041,-2.55,0.0,0.0,0.0,0.0,0.0,0.0,0.0,0.0,0.0,0.0,0.0,0.0,0.0,0.0,0.0,0.0,0.0,0.0,0.0,0.0,0.0,0.0,0.0,0.0,0.0,0.0,0.0,0.0,0.0,0.0,0.0,0.0,0.0,0.0,0.0,0.0,0.0,0.0,0.0,0.0,0.0,0.0,0.0,0.0,0.0,0.0,0.0,0.0,0.0,0.0,0.0,0.0,0.0,0.0,0.0,0.0,0.0,0.0,0.0,0.0,0.0,0.0,0.0,0.0,0.0,0.0,0.0,0.0,0.0,0.0,0.0,-3.5121,0.0,0.0,0.0,0.0,0.0,0.0,0.0,0.0,0.0,0.0,0.0,0.0,0.0,0.0,0.0,0.0,0.0,0.0,0.0,0.0,0.0,0.0,0.0,0.0,0.0,0.0,0.0,0.0,0.0,0.0,0.0,0.0,0.0,0.0,0.0,0.0,0.0,0.0,-2.6365,-2.7727,-2.9655,-3.052,-2.9376,-2.6592,-2.629,0.0,0.0,0.0,0.0,0.0,0.0,0.0,0.0,0.0,0.0,0.0,0.0,0.0,0.0,0.0,0.0,0.0,0.0,0.0,0.0,0.0,0.0,0.0,0.0,0.0,0.0,0.0,0.0,0.0,0.0,0.0,0.0,0.0,0.0,0.0,0.0,0.0,0.0,0.0,0.0,0.0,0.0,0.0,0.0,0.0,0.0,0.0,0.0,0.0,0.0,0.0,0.0,0.0,0.0,0.0,0.0,0.0,0.0,0.0,0.0,0.0,0.0,0.0,0.0,-4.2539,-4.2539,-4.2539,-4.2812,-4.3144,-4.0266,-3.8909,-3.8548,0.0,0.0,0.0,0.0,0.0,0.0,0.0,0.0,0.0,0.0,0.0,0.0,0.0,0.0,0.0,0.0,0.0,0.0,0.0,0.0,0.0,0.0,0.0,0.0,0.0,0.0,0.0,0.0,0.0,0.0,0.0,0.0,0.0,0.0,-2.4237,-2.4943,-2.5354,-2.8182,-3.017,-3.1395,-3.2254,-3.2068,-3.0901,-2.9447,-2.9246,-2.9849,0.0,0.0,0.0,0.0,0.0,0.0,0.0,0.0,0.0,0.0,0.0,0.0,0.0,0.0,0.0,0.0,0.0,0.0,0.0,0.0,0.0,0.0,0.0,0.0,0.0,0.0,0.0,0.0,0.0,0.0,0.0,0.0,0.0,0.0,0.0,0.0,0.0,0.0,0.0,0.0,0.0,-3.4309,-3.6364,0.0,0.0,0.0,0.0,0.0,0.0,0.0,0.0,0.0,0.0,0.0,0.0,0.0,0.0,-3.9375,-4.2558,-4.416,-4.4199,-4.6699,-4.7871,-4.7871,-4.7871,-4.7539,-4.6894,-4.6426,0.0,-3.9548,-3.8426,0.0,0.0,0.0,0.0,0.0,0.0,0.0,0.0,0.0,0.0,0.0,0.0,0.0,0.0,0.0,0.0,0.0,0.0,0.0,0.0,0.0,0.0,0.0,0.0,0.0,0.0,0.0,0.0,0.0,0.0,0.0,0.0,0.0,0.0,-2.5885,-2.8502,-3.1461,-3.3225,-3.3846,-3.4693,-3.4413,-3.3161,-3.2281,-3.1125,-2.9785,-2.8636,0.0,0.0,0.0,0.0,0.0,0.0,0.0,0.0,0.0,0.0,0.0,0.0,0.0,0.0,0.0,0.0,0.0,0.0,0.0,0.0,0.0,0.0,0.0,0.0,0.0,0.0,0.0,0.0,0.0,0.0,0.0,0.0,0.0,0.0,0.0,0.0,0.0,0.0,0.0,-3.2359,-3.4902,-3.4395,-3.4042,-3.2875,0.0,0.0,0.0,0.0,0.0,0.0,0.0,0.0,0.0,-4.1153,-4.2153,-4.3127,-4.4103,-4.615,-4.7187,-4.7207,-4.8848,-4.9629,-4.9609,-4.9121,-4.8691,-4.8281,-4.7285,-4.5566,-4.3316,-4.1411,-3.9618,-3.7875,0.0,0.0,0.0,0.0,0.0,-3.4019,0.0,0.0,0.0,0.0,0.0,0.0,0.0,0.0,0.0,0.0,0.0,0.0,0.0,0.0,0.0,-2.4945,0.0,0.0,0.0,0.0,0.0,0.0,0.0,0.0,0.0,0.0,-2.7052,-3.1363,-3.3809,-3.5219,-3.5622,-3.6435,-3.6082,-3.4706,-3.4491,-3.3047,-3.0703,-2.9772,-2.8819,0.0,0.0,0.0,0.0,0.0,0.0,0.0,0.0,0.0,0.0,0.0,0.0,0.0,0.0,0.0,0.0,0.0,0.0,0.0,0.0,0.0,0.0,0.0,0.0,0.0,0.0,0.0,0.0,0.0,0.0,0.0,0.0,0.0,0.0,0.0,0.0,0.0,0.0,-3.3978,-3.5923,-3.4009,-3.5426,-3.5115,0.0,0.0,0.0,0.0,0.0,0.0,-3.9422,-4.0344,-4.1981,-4.456,-4.5577,-4.6693,-4.8005,-4.8987,-4.9391,-4.9196,-4.9863,-5.0078,-4.9844,-4.9199,-4.8789,-4.8496,-4.7207,-4.6504,-4.6113,-4.3666,-4.1922,-4.0591,-3.856,-3.7154,-3.6284,-3.6266,-3.607,-3.5981,0.0,0.0,0.0,0.0,0.0,0.0,0.0,0.0,0.0,0.0,0.0,0.0,0.0,0.0,-2.0461,-2.3015,-2.3082,-2.3371,0.0,0.0,0.0,0.0,0.0,0.0,0.0,0.0,-2.8415,-3.2334,-3.3925,-3.5131,-3.5898,-3.677,-3.6694,-3.5814,-3.5804,-3.5504,-3.4768,-3.1325,-3.0402,-3.0974,0.0,0.0,0.0,0.0,0.0,0.0,0.0,0.0,0.0,0.0,0.0,0.0,0.0,0.0,0.0,0.0,0.0,0.0,0.0,0.0,0.0,0.0,0.0,0.0,0.0,0.0,0.0,0.0,0.0,0.0,0.0,0.0,0.0,0.0,0.0,0.0,0.0,0.0,0.0,-3.9183,-4.0301,0.0,0.0,0.0,0.0,-3.6582,-3.8199,-4.0353,-4.2995,-4.3904,-4.5541,-4.8171,-4.91,-4.9591,-4.9688,-5.0602,-5.0698,-4.9957,-5.0113,-4.9766,-4.8965,-4.8926,-4.8457,-4.7656,-4.7578,-4.7051,-4.6152,-4.4375,-4.3574,-4.3242,-4.0606,-3.8997,-3.8159,-3.8098,-3.7461,-3.6654,0.0,0.0,0.0,0.0,0.0,0.0,0.0,0.0,0.0,0.0,0.0,0.0,0.0,-1.8093,-1.9469,-2.0258,-2.0965,-2.1355,-2.1393,0.0,0.0,0.0,0.0,0.0,0.0,0.0,-2.7912,-3.1492,-3.2583,-3.3388,-3.3974,-3.4285,-3.3993,-3.3191,-3.3015,-3.2523,-3.1816,-3.177,-3.1073,-2.9802,-2.8141,-2.6914,0.0,0.0,0.0,0.0,0.0,0.0,0.0,0.0,0.0,0.0,0.0,0.0,0.0,0.0,0.0,0.0,0.0,0.0,0.0,0.0,0.0,0.0,0.0,0.0,0.0,0.0,0.0,0.0,0.0,0.0,0.0,0.0,0.0,0.0,0.0,0.0,0.0,-3.9138,-4.1382,0.0,0.0,-3.9998,-4.0969,-4.159,-4.3243,-4.5105,-4.7144,-4.7531,-4.8369,-4.9872,-5.0298,-5.0513,-5.0513,-5.0364,-5.0151,-4.9878,-4.9432,-4.9065,-4.8753,-4.828,-4.7891,-4.7578,-4.7012,-4.6582,-4.6211,-4.5019,-4.4531,-4.4394,-4.2869,-4.1644,-4.0673,-4.0084,-3.9555,-3.9065,0.0,0.0,0.0,0.0,0.0,0.0,0.0,0.0,0.0,0.0,0.0,-1.4809,-1.4972,-1.6344,-1.7335,-1.7529,-1.824,-1.8626,-1.8567,0.0,0.0,0.0,-1.8094,0.0,0.0,-2.3899,-2.6073,-2.9005,-3.0161,-3.0756,-3.0849,-3.108,-3.0771,-3.0045,-3.011,-2.9679,-2.9033,-3.0334,-2.986,-2.8209,-2.7651,-2.6956,-2.6176,0.0,0.0,0.0,0.0,0.0,0.0,0.0,0.0,0.0,0.0,0.0,0.0,0.0,0.0,0.0,0.0,0.0,0.0,0.0,0.0,0.0,0.0,0.0,0.0,0.0,0.0,0.0,0.0,0.0,0.0,0.0,0.0,0.0,0.0,0.0,-4.1159,-3.9438,-4.2643,-4.3958,-4.1334,-4.2855,-4.4391,-4.5314,-4.6839,-4.824,-4.9336,-4.9683,-5.0087,-5.0673,-5.0501,-5.0383,-5.0383,-4.9653,-4.9151,-4.886,-4.8417,-4.8031,-4.7738,-4.7253,-4.7058,-4.7065,-4.648,-4.6092,-4.582,-4.5234,-4.4648,-4.4062,-4.3496,-4.2639,-4.1627,-4.0719,-4.0111,-3.9576,0.0,0.0,0.0,0.0,0.0,0.0,0.0,0.0,0.0,0.0,-1.3186,-1.2779,-1.3962,-1.3793,-1.3959,-1.49,-1.4873,-1.5129,-1.5961,-1.5484,0.0,0.0,0.0,0.0,-1.9653,-2.1227,-2.2973,-2.4916,-2.667,-2.7205,-2.6614,-2.725,-2.7229,-2.6625,-2.7281,-2.7315,-2.6877,-2.685,-2.6671,-2.6361,-2.6307,-2.612,-2.5875,0.0,0.0,0.0,0.0,0.0,0.0,0.0,0.0,0.0,0.0,0.0,0.0,0.0,0.0,0.0,0.0,0.0,0.0,0.0,0.0,0.0,0.0,0.0,0.0,0.0,0.0,0.0,0.0,0.0,0.0,0.0,0.0,0.0,-3.7164,-4.0318,-4.2143,-4.068,-4.4422,-4.6358,-4.4358,-4.5937,-4.7218,-4.7567,-4.8746,-4.9433,-4.9433,-5.0231,-5.0654,-5.0654,-4.9798,-4.9356,-4.9356,-4.8636,-4.7822,-4.6996,-4.712,-4.6716,-4.5894,-4.5879,-4.5939,-4.6048,-4.6028,-4.5607,-4.4941,-4.4922,-4.3906,-4.2363,-4.2363,-4.179,-4.0853,-3.9909,-3.8926,-3.792,0.0,0.0,0.0,0.0,0.0,0.0,0.0,0.0,0.0,0.0,-1.3248,-1.2835,-1.1778,-1.265,-1.3064,-1.2408,-1.2404,-1.2923,-1.4079,0.0,0.0,0.0,0.0,0.0,-1.6929,-1.7787,-1.9026,-2.0681,-2.1181,-2.167,-2.2173,-2.2353,-2.235,-2.2163,-2.235,-2.2162,-2.1701,-2.137,-2.131,-2.1707,-2.4674,-2.5732,-2.5616,0.0,0.0,0.0,0.0,0.0,0.0,0.0,0.0,0.0,0.0,0.0,0.0,0.0,0.0,0.0,0.0,0.0,0.0,0.0,0.0,0.0,0.0,0.0,0.0,0.0,0.0,0.0,0.0,0.0,0.0,0.0,0.0,-3.875,-3.9819,-4.2376,-4.4408,-4.5126,-4.6856,-4.7959,-4.8003,-4.8489,-4.9085,-4.9773,-5.0144,-5.0346,-5.0346,-4.9971,-4.976,-4.976,-4.8913,-4.8471,-4.8471,-4.7687,-4.7163,-4.6923,-4.6428,-4.6065,-4.5813,-4.5259,-4.5048,-4.5055,-4.4416,-4.4072,-4.3946,-4.33,-4.2434,-4.1523,-4.1523,-4.093,-3.9958,-3.9063,-3.8093,-3.7094,0.0,0.0,0.0,0.0,0.0,0.0,0.0,0.0,0.0,0.0,-1.2414,-1.1845,-1.0886,-1.1342,-1.1382,-1.0502,-1.0489,-1.0921,-1.1833,0.0,0.0,0.0,0.0,-1.1965,-1.3099,-1.3978,-1.4845,-1.5689,-1.6253,-1.6655,-1.6926,-1.7204,-1.7188,-1.6946,-1.7214,-1.7223,-1.6991,-1.6716,-1.6987,-1.7804,-2.0496,-2.2659,-2.4464,-2.5869,-2.6572,-2.6923,-2.7847,-2.8365,-2.8614,-2.864,0.0,0.0,0.0,0.0,0.0,0.0,0.0,0.0,0.0,0.0,0.0,0.0,0.0,0.0,0.0,0.0,0.0,0.0,0.0,0.0,0.0,0.0,0.0,0.0,-3.8303,-4.0781,-4.2379,-4.381,-4.504,-4.5975,-4.7094,-4.7979,-4.8443,-4.9089,-4.9554,-4.9656,-5.0293,-5.0385,-4.9644,-4.9471,-4.9221,-4.8875,-4.8048,-4.7605,-4.7605,-4.6778,-4.6355,-4.6355,-4.5545,-4.5162,-4.5143,-4.4389,-4.4045,0.0,-4.354,-4.2988,-4.2432,-4.1919,-4.0842,0.0,0.0,0.0,0.0,0.0,-3.6382,-3.5672,0.0,0.0,0.0,0.0,0.0,0.0,0.0,0.0,0.0,0.0,0.0,-1.026,-1.051,-0.9851,-0.9313,-0.9046,-0.902,-0.916,0.0,0.0,0.0,-0.8297,-0.8655,-0.8843,-0.8785,-0.9974,-1.0493,-1.0337,-1.1511,-1.1797,-1.1222,-1.1905,-1.1898,-1.1361,-1.2035,-1.2437,-1.2586,-1.2635,-1.3241,-1.4289,-1.5022,-1.8166,-2.2564,-2.4324,-2.5306,-2.5855,-2.679,-2.7554,-2.8212,-2.8823,0.0,0.0,0.0,0.0,0.0,0.0,0.0,0.0,0.0,0.0,0.0,0.0,0.0,0.0,0.0,0.0,0.0,0.0,0.0,0.0,0.0,0.0,0.0,0.0,-4.0749,-4.2837,-4.436,-4.4562,-4.4635,-4.4801,-4.6104,-4.6966,-4.7022,-4.8352,-4.8919,-4.8187,-4.9545,-4.9721,-4.8182,0.0,0.0,0.0,0.0,-4.6759,-4.6759,-4.599,-4.5556,-4.5441,-4.4662,-4.4239,-4.4143,-4.3316,-4.2926,-4.2892,-4.2802,-4.1944,-4.0595,-4.0607,-3.9198,-3.7216,-3.8826,-3.8457,-3.6816,-3.5195,-3.4425,0.0,0.0,0.0,0.0,0.0,0.0,0.0,0.0,0.0,0.0,-1.0389,-0.9799,-0.9146,-0.8398,-0.7885,-0.7712,-0.7958,-0.7988,-0.7786,0.0,0.0,-0.6032,-0.5578,-0.5125,-0.5148,-0.5668,-0.5918,-0.5903,-0.5614,-0.5872,-0.5903,-0.5745,-0.6468,-0.6744,-0.6635,-0.738,-0.7909,-0.8315,-0.8527,-0.916,-1.013,-1.171,-1.5298,-1.9937,-2.1797,-2.3189,-2.4366,-2.6042,-2.7018,-2.7744,-2.8923,-2.9727,-3.0214,-3.0052,0.0,0.0,0.0,0.0,0.0,0.0,0.0,0.0,0.0,0.0,0.0,0.0,0.0,0.0,0.0,0.0,0.0,0.0,0.0,0.0,-3.8612,-4.0825,-4.2635,-4.3589,-4.3718,-4.4213,-4.5516,-4.5938,-4.6266,-4.6589,-4.7136,-4.7551,-4.7691,-4.8266,-4.8471,-4.8125,-4.7644,0.0,-4.7135,-4.6297,-4.5845,-4.5845,-4.5691,-4.5248,-4.4547,0.0,0.0,-4.3297,-4.245,-4.1666,-4.0981,-4.0345,-3.9548,-3.8714,-3.8709,-3.7716,-3.6199,-3.6599,-3.6113,-3.5156,-3.4744,-3.4131,-3.3256,0.0,0.0,0.0,0.0,0.0,0.0,0.0,0.0,0.0,0.0,-0.9104,-0.8804,-0.8307,-0.8057,-0.8033,-0.8221,-0.7572,0.0,0.0,-0.4426,-0.354,-0.2987,-0.2342,-0.2132,-0.2396,-0.2463,-0.2379,-0.2147,-0.1784,-0.1777,-0.2095,-0.2088,-0.2305,-0.2667,-0.3025,-0.3361,-0.3657,-0.3799,-0.4622,-0.5931,-0.6842,-0.9825,-1.4148,-1.7984,-1.9846,-2.0707,-2.2894,-2.4432,-2.5534,-2.6362,-2.769,-2.9081,-2.9543,-2.9327,-2.8866,0.0,0.0,0.0,0.0,0.0,0.0,0.0,0.0,0.0,0.0,0.0,0.0,0.0,0.0,-3.0635,0.0,0.0,-3.7492,-4.038,-4.1778,-4.2722,-4.3407,-4.3515,-4.3808,-4.4599,-4.5057,-4.5367,-4.5572,-4.6293,-4.6732,-4.6702,-4.7414,-4.7558,-4.6885,-4.6874,-4.6701,-4.6259,-4.5825,-4.5402,-4.4951,-4.496,-4.4528,-4.3682,-4.3258,-4.2604,-4.1758,-4.0931,-4.0065,-3.9219,-3.8815,-3.7968,-3.6792,-3.5982,-3.5195,-3.4516,-3.4564,-3.4366,-3.4004,-3.3569,-3.2795,-3.1817,0.0,0.0,0.0,0.0,0.0,0.0,0.0,0.0,0.0,0.0,-0.821,-0.8209,-0.8348,-0.8123,-0.8017,0.0,0.0,0.0,0.0,-0.2597,-0.1382,-0.0495,0.0145,0.0542,0.0635,0.0679,0.082,0.1072,0.1669,0.1723,0.1293,0.1751,0.1641,0.1072,0.0908,0.0783,0.0688,0.0544,-0.0435,-0.1932,-0.2067,-0.4008,-0.7404,-1.2474,-1.5169,-1.6602,-1.8818,-2.0617,-2.2059,-2.2705,-2.4423,-2.6498,-2.7736,-2.796,-2.7853,-2.8362,-2.7883,0.0,0.0,0.0,0.0,0.0,0.0,0.0,0.0,0.0,-2.6803,-2.9019,-3.0196,-3.1987,-3.5815,-3.6885,-3.8237,-4.1603,-4.2362,-4.2732,-4.3268,-4.3339,-4.3337,-4.3277,-4.3975,-4.447,-4.447,-4.5412,-4.5821,-4.5356,-4.6379,-4.6462,-4.5173,-4.6022,-4.608,-4.5052,-4.5186,-4.4813,-4.3885,-4.3777,-4.3297,-4.2427,-4.1626,-4.0666,-3.9605,-3.8953,-3.81,-3.713,-3.6949,-3.6139,-3.4831,-3.3539,-3.2929,-3.285,-3.29,-3.2792,-3.2555,-3.2088,-3.1209,-3.0117,0.0,0.0,0.0,0.0,0.0,0.0,0.0,0.0,0.0,0.0,0.0,0.0,0.0,0.0,0.0,0.0,0.0,0.0,-0.2537,-0.1071,0.0378,0.1784,0.2534,0.2917,0.2929,0.3558,0.4215,0.4888,0.4965,0.5306,0.5855,0.5279,0.4965,0.4861,0.4198,0.3902,0.3835,0.3185,0.2422,0.1561,0.0917,0.0,-0.1234,-0.3723,-0.834,-1.3581,-1.4666,-1.5811,-1.7108,-1.8842,-2.0247,-2.1534,-2.3387,-2.4657,-2.5388,-2.5067,0.0,-2.5186,-2.3826,-2.3592,-2.3836,-2.4264,-2.4196,-2.4902,0.0,0.0,-2.8474,-3.1885,-3.3186,-3.4317,-3.6314,-3.8186,-3.9587,-4.0063,-4.1113,-4.2121,-4.2713,-4.2788,-4.2704,-4.2455,-4.313,-4.3626,-4.3626,-4.4027,-4.409,-4.3604,-4.443,-4.4475,-4.3445,-4.4604,-4.4558,-4.2994,-4.3692,-4.352,-4.2359,-4.1869,-4.1099,-4.006,-3.9509,-3.827,-3.6491,-3.6415,-3.5505,-3.396,-3.3183,-3.2889,-3.2917,-3.2729,-3.2385,-3.1951,-3.1949,-3.1095,-2.9925,-3.0612,-2.9897,-2.8436,0.0,0.0,0.0,0.0,0.0,0.0,0.0,0.0,0.0,0.0,0.0,0.0,0.0,0.0,0.0,0.0,0.0,-0.2313,-0.0403,0.1508,0.3017,0.4062,0.4815,0.5215,0.5226,0.5517,0.5819,0.6126,0.6967,0.7111,0.6615,0.7132,0.7143,0.6684,0.5995,0.5909,0.6209,0.551,0.4615,0.362,0.3305,0.1902,-0.0094,-0.0976,-0.427,-0.8624,-1.0267,-1.2108,0.0,0.0,-1.6386,-1.8453,-1.9696,-2.1013,-2.2163,-2.2405,-2.3135,0.0,-2.3411,-2.2606,-2.2032,0.0,-2.3367,-2.4108,-2.599,-2.7142,-2.8415,-3.0575,-3.2645,-3.4445,-3.563,-3.6975,-3.835,0.0,-4.026,-4.1,-4.2041,-4.181,-4.1417,-4.1107,-4.1396,-4.1756,-4.2069,-4.223,-4.231,-4.2309,-4.265,-4.2831,-4.2814,-4.3153,-4.321,-4.2908,-4.2406,-4.1773,-4.094,-4.0081,-3.9201,-3.825,-3.7543,-3.6519,-3.5227,-3.4755,-3.363,-3.2003,-3.1162,-3.0608,-3.0231,-2.9846,-2.9557,-2.9365,-2.948,-2.8823,-2.8,-2.9423,-2.8891,-2.7435,0.0,0.0,0.0,0.0,0.0,0.0,0.0,0.0,0.0,0.0,0.0,0.0,0.0,0.0,0.0,0.0,0.0,-0.0751,0.128,0.3297,0.4829,0.5763,0.6698,0.7192,0.7192,0.7555,0.7768,0.7768,0.8783,0.8757,0.7794,0.8809,0.8985,0.8469,0.7968,0.7921,0.8173,0.7797,0.6716,0.5308,0.5434,0.3683,0.1022,0.0831,-0.1368,-0.4592,-0.6961,-0.9319,0.0,0.0,-1.3232,-1.5394,-1.6381,-1.7668,-1.8992,-1.9753,-2.0627,-2.1391,-2.1654,0.0,0.0,-2.1597,-2.2694,-2.369,-2.4142,-2.5955,-2.79,-2.925,-3.1243,-3.3177,-3.46,-3.5617,-3.6794,-3.8619,-3.9263,-3.9959,-4.1086,-4.0805,-4.0341,-4.0032,-3.9986,-4.0039,-4.0201,-4.0535,-4.0901,-4.1227,-4.1169,-4.1317,-4.1759,-4.1879,-4.1869,-4.1667,-4.0866,-3.9988,-3.9061,-3.8128,-3.7198,-3.6254,-3.5515,-3.4563,-3.3408,-3.2388,-3.1139,-2.9757,-2.9166,-2.8628,-2.8083,-2.7604,-2.7457,-2.752,-2.7676,-2.7267,-2.6751,-2.8051,-2.7674,-2.6507,0.0,0.0,0.0,0.0,0.0,0.0,0.0,0.0,0.0,0.0,0.0,0.0,0.0,0.0,0.0,0.0,-0.0918,0.0582,0.2064,0.3558,0.5062,0.6512,0.79,0.8626,0.8626,0.9982,1.0661,1.0661,1.0712,1.0712,1.0661,1.0712,1.0712,1.0704,1.0686,1.0305,0.9751,1.005,0.8875,0.6859,0.7259,0.5919,0.3619,0.2883,0.0573,-0.2652,-0.5309,0.0,0.0,-1.04,-1.1043,-1.1751,-1.3415,-1.4837,0.0,-1.6976,-1.729,-1.7447,0.0,0.0,-1.9489,-2.0861,-2.2715,-2.4301,-2.487,-2.5813,-2.7088,-2.9091,-2.9554,-3.0525,-3.349,-3.4695,-3.5572,-3.6538,-3.7958,-3.9153,-3.9767,-3.9845,-3.9743,-3.954,-3.928,-3.8849,0.0,-3.9165,-4.0053,-4.0309,-4.0111,-3.9892,-3.9701,-4.0913,-4.0514,-3.812,-3.8824,-3.8348,-3.6415,-3.5868,-3.5033,-3.3902,-3.3344,-3.2119,-3.0282,-2.8702,-2.7526,-2.6725,-2.6707,-2.6797,-2.6953,-2.6925,-2.7075,-2.7305,-2.7331,-2.6904,-2.6314,-2.6365,-2.6029,-2.5532,0.0,0.0,0.0,0.0,0.0,0.0,0.0,0.0,0.0,0.0,0.0,0.0,0.0,0.0,0.0,0.0,0.011,0.1725,0.4098,0.5257,0.6514,0.7996,0.8948,0.9436,0.9436,1.033,1.0962,1.1255,1.1714,1.1852,1.1664,1.2112,1.2325,1.2299,1.1852,1.1494,1.1168,1.0854,0.9385,0.7315,0.734,0.5628,0.2967,0.2112,-0.0447,-0.3837,0.0,0.0,-0.9827,-1.0523,-1.1755,-1.2968,-1.3095,-1.431,-1.5774,-1.6441,-1.6089,-1.5651,-1.6454,0.0,-1.7228,-1.8322,-1.9358,-2.0192,-2.0633,-2.2357,-2.394,-2.4387,-2.5963,-2.7535,-2.8291,-3.0153,-3.1961,-3.3278,-3.5279,-3.7283,-3.8964,-3.8772,-3.8386,-3.813,-3.8082,0.0,0.0,0.0,0.0,-3.9183,-3.8177,-3.7784,-3.8446,-3.8238,-3.7875,-3.7438,-3.6781,-3.5954,-3.4977,-3.4036,-3.3116,-3.2186,-3.0942,-2.945,-2.7787,-2.7255,-2.6557,-2.5797,-2.5797,-2.5535,-2.5125,-2.5243,-2.5364,-2.5456,-2.5597,-2.5489,-2.5293,-2.5293,-2.5245,-2.5192,0.0,0.0,0.0,0.0,0.0,0.0,0.0,0.0,0.0,0.0,0.0,0.0,0.0,0.0,0.0,0.0,0.0,0.2696,0.478,0.5927,0.7094,0.8342,0.9529,1.0167,1.0167,1.1082,1.1799,1.2311,1.2745,1.308,1.3329,1.3562,1.3659,1.3621,1.2996,1.2334,1.1658,1.1316,0.9719,0.7405,0.7149,0.5088,0.2068,0.095,-0.1741,0.0,0.0,0.0,-1.0551,-1.0997,-1.2322,-1.3768,-1.3548,-1.4447,-1.5572,-1.545,-1.4598,-1.3872,-1.464,-1.4597,-1.4649,-1.5901,-1.6782,-1.7432,-1.7938,-1.9925,-2.1713,-2.191,-2.3523,-2.5076,-2.5691,-2.7464,-2.9189,-3.027,-3.2553,-3.4874,-3.6786,-3.664,-3.6563,-3.7072,-3.7355,0.0,0.0,0.0,0.0,-3.8362,-3.7094,-3.673,-3.7701,-3.6832,-3.632,-3.64,-3.5219,-3.4294,-3.3697,-3.2686,-3.1623,-3.0522,-2.8913,-2.7446,-2.6172,-2.6172,-2.5731,-2.497,-2.497,-2.4677,-2.4209,-2.433,-2.4393,-2.441,-2.4545,-2.4623,-2.4693,-2.4693,-2.478,-2.4955,0.0,0.0,0.0,0.0,0.0,0.0,0.0,0.0,0.0,0.0,0.0,0.0,0.0,0.0,0.0,0.0,0.0,0.0,0.4218,0.5607,0.679,0.7641,0.9647,1.0762,1.0788,1.2206,1.3248,1.3834,1.3858,1.4447,1.5508,1.4989,1.4717,1.4644,1.4113,1.2928,1.1381,1.1616,1.0001,0.7245,0.677,0.4439,0.1126,-0.041,0.0,0.0,0.0,0.0,-1.1386,-1.1759,-1.2754,-1.3921,-1.4507,-1.504,-1.5211,-1.3949,-1.2851,-1.2081,-1.2293,-1.1888,-1.1848,-1.3638,-1.493,-1.5975,-1.6712,-1.8536,-2.0391,-2.1604,-2.2089,-2.304,0.0,0.0,-2.7227,-2.767,-3.0008,-3.2222,-3.3643,-3.3869,-3.4582,0.0,0.0,0.0,0.0,0.0,0.0,-3.7736,0.0,-3.6531,-3.7327,-3.6545,-3.5687,-3.4839,-3.4082,-3.3293,-3.2491,-3.1641,-3.0411,-2.8803,-2.7262,-2.6117,-2.5338,-2.5338,-2.4915,-2.419,-2.419,-2.419,-2.419,-2.419,-2.418,-2.417,-2.417,-2.4275,-2.4434,-2.4397,-2.45,-2.4695,0.0,0.0,0.0,0.0,0.0,0.0,0.0,0.0,0.0,0.0,0.0,0.0,0.0,0.0,0.0,0.0,0.0,0.0,0.5291,0.5907,0.6632,0.7507,0.9125,1.024,1.0788,1.2633,0.0,1.4248,1.4709,1.5251,1.5875,1.5728,1.5665,1.5625,1.5023,1.3887,1.2402,1.2002,1.008,0.725,0.0,0.413,0.0913,0.0,0.0,0.0,0.0,0.0,0.0,0.0,0.0,0.0,0.0,-1.413,-1.3724,-1.3568,-1.2275,-1.1015,-1.1511,-1.0931,-1.0335,-1.1072,-1.2028,-1.3013,-1.3912,-1.6137,-1.8131,-1.8469,-1.9254,-1.9993,0.0,0.0,0.0,-2.672,-2.9885,0.0,-3.5489,-3.5459,0.0,-3.6596,0.0,-3.6071,-3.5812,-3.627,0.0,0.0,-3.4907,-3.4688,-3.5581,-3.4018,-3.2861,-3.2326,-3.2131,-3.1623,-3.0815,-2.942,-2.7908,-2.6311,-2.5907,-2.5283,-2.4511,-2.4511,-2.4392,-2.419,-2.419,-2.419,-2.419,-2.419,-2.4046,-2.3827,-2.3827,-2.3706,-2.3462,-2.2908,-2.2849,-2.2969,0.0,0.0,0.0,0.0,0.0,0.0,0.0,0.0,0.0,0.0,0.0,0.0,0.0,0.0,0.0,0.0,0.0,0.0,0.0,0.5483,0.6016,0.6509,0.8281,0.9592,1.0299,1.2033,0.0,0.0,0.0,0.0,1.6608,1.6075,1.5654,1.5278,1.4129,1.2893,1.163,1.0655,0.0,0.0,0.0,0.0,0.0,0.0,0.0,0.0,0.0,0.0,0.0,0.0,0.0,-1.4128,-1.4178,-1.3837,-1.3305,-1.2499,0.0,-0.9874,-0.967,-0.8795,-0.8123,-0.8765,-0.9755,-1.0869,-1.2164,-1.472,-1.6895,-1.7159,-1.8005,0.0,0.0,0.0,0.0,0.0,0.0,0.0,-3.4379,-3.4243,-3.4419,0.0,-3.5922,0.0,-3.5166,-3.5671,-3.5714,0.0,-3.4389,-3.4066,-3.3946,-3.2541,-3.156,-3.1185,-3.0815,-3.0149,-2.9163,-2.7559,-2.6292,-2.5393,-2.5044,-2.464,-2.419,-2.419,-2.419,-2.419,0.0,-2.419,-2.418,-2.4036,-2.3876,-2.3682,-2.3544,-2.3369,-2.3112,-2.2373,-2.2175,-2.2183,0.0,0.0,0.0,0.0,0.0,0.0,0.0,0.0,0.0,0.0,0.0,0.0,0.0,0.0,0.0,0.0,0.0,0.0,0.0,0.0,0.0,0.0,0.6765,0.8241,0.9123,0.0,0.0,0.0,0.0,0.0,0.0,0.0,0.0,0.0,0.0,0.0,0.0,0.0,0.0,0.0,0.0,0.0,0.0,0.0,0.0,0.0,0.0,0.0,0.0,0.0,-1.1995,-1.3445,-1.3348,-1.3252,-1.286,-1.1022,-0.975,-0.8666,-0.7578,-0.6545,-0.6015,-0.6937,-0.8144,-0.9541,-1.1298,-1.4037,-1.6356,-1.6937,0.0,-1.8264,-1.8201,-2.0041,-2.1955,-2.3276,0.0,-2.9348,-3.2348,-3.2142,-3.2687,-3.5284,-3.549,-3.519,-3.4558,-3.4996,-3.4887,-3.3876,-3.4034,-3.367,-3.2494,-3.1436,-3.0653,-3.0215,-2.9458,-2.8534,-2.742,-2.6038,-2.5307,-2.5227,-2.453,-2.419,-2.419,-2.419,-2.419,-2.419,0.0,0.0,-2.417,-2.3837,-2.3671,-2.3599,-2.3152,-2.2976,-2.2835,-2.1994,-2.1688,-2.1564,0.0,0.0,0.0,0.0,0.0,0.0,0.0,0.0,0.0,0.0,0.0,0.0,0.0,0.0,0.0,0.0,0.0,0.0,0.0,0.0,0.0,0.0,0.3009,0.4164,0.6108,0.0,0.0,0.0,0.0,0.0,0.0,0.0,0.0,0.0,0.0,0.0,0.0,0.0,0.0,0.0,0.0,0.0,0.0,0.0,0.0,0.0,0.0,0.0,0.0,0.0,-1.1433,-1.0974,-1.044,-1.0016,-0.9658,-0.9441,-0.8399,-0.7278,-0.7151,-0.6414,-0.58,-0.6396,-0.7782,-0.9576,-1.1759,-1.4294,0.0,0.0,0.0,-1.8217,-1.8196,-1.9258,0.0,-2.5326,0.0,0.0,0.0,0.0,-3.3154,0.0,0.0,0.0,0.0,0.0,0.0,0.0,0.0,0.0,-3.1577,-2.932,-2.7549,-2.6547,-2.6381,-2.6007,-2.5407,-2.5135,-2.479,-2.442,-2.4263,-2.419,-2.419,-2.419,-2.419,-2.419,0.0,0.0,-2.417,-2.3837,-2.3533,-2.3194,-2.2252,-2.1749,-2.1387,-1.9969,-1.9457,-1.9372,0.0,0.0,0.0,0.0,0.0,0.0,0.0,0.0,0.0,0.0,0.0,0.0,0.0,0.0,0.0,0.0,0.0,0.0,0.0,0.0,0.0,0.0,0.0,0.0,0.0,0.0,0.0,0.0,0.0,0.0,0.0,0.0,0.0,0.0,0.0,0.0,0.0,0.0,0.0,0.0,0.0,0.0,0.0,0.0,0.0,0.0,0.0,0.0,0.0,0.0,-1.1011,-1.0596,-1.0869,-1.0801,-1.0446,-0.9639,-0.8824,-0.8032,-0.7461,-0.6841,-0.6517,-0.7121,-0.8495,-1.0175,-1.2156,0.0,0.0,0.0,-1.7466,-1.8069,-1.779,0.0,0.0,0.0,0.0,0.0,0.0,0.0,0.0,0.0,0.0,0.0,0.0,0.0,0.0,0.0,0.0,0.0,-2.9487,-2.7752,-2.6312,-2.5366,-2.511,-2.4871,-2.4647,-2.4224,-2.3898,-2.3682,-2.3865,-2.3937,-2.3955,-2.4113,-2.419,-2.419,-2.419,0.0,-2.3917,-2.3577,-2.3017,-2.2293,-2.1647,-2.1063,-2.045,-1.9299,-1.8894,-1.8816,0.0,0.0,0.0,0.0,0.0,0.0,0.0,0.0,0.0,0.0,0.0,0.0,0.0,0.0,0.0,0.0,0.0,0.0,0.0,0.0,0.0,0.0,0.0,0.0,0.0,0.0,0.0,0.0,0.0,0.0,0.0,0.0,0.0,0.0,0.0,0.0,0.0,0.0,0.0,0.0,0.0,0.0,0.0,0.0,0.0,0.0,0.0,0.0,0.0,0.0,-1.1451,-1.1415,-1.2046,-1.2009,-1.1429,-0.9936,-0.9217,-0.8742,-0.7891,-0.7647,-0.7832,-0.8616,-0.9981,-1.1572,-1.3148,-1.487,0.0,0.0,-1.7353,-1.7827,-1.7524,0.0,0.0,0.0,0.0,0.0,0.0,0.0,0.0,0.0,0.0,0.0,0.0,0.0,0.0,0.0,0.0,0.0,-2.6877,-2.6062,-2.5215,-2.4379,-2.3989,-2.3828,-2.3904,-2.3277,-2.304,-2.32,-2.3309,-2.3437,-2.3599,-2.3783,-2.3939,-2.4094,-2.417,0.0,0.0,-2.3346,-2.2582,-2.1557,-2.1101,-2.0467,-1.9676,-1.8944,-1.8657,-1.8589,0.0,0.0,0.0,0.0,0.0,0.0,0.0,0.0,0.0,0.0,0.0,0.0,0.0,0.0,0.0,0.0,0.0,0.0,0.0,0.0,0.0,0.0,0.0,0.0,0.0,0.0,0.0,0.0,0.0,0.0,0.0,0.0,0.0,0.0,0.0,0.0,0.0,0.0,0.0,0.0,0.0,0.0,0.0,0.0,0.0,0.0,0.0,0.0,0.0,0.0,0.0,-1.3416,-1.2424,-1.1065,-0.9725,-0.9071,0.0,0.0,-0.8136,-0.8769,-0.9652,-1.0873,-1.2531,-1.4201,-1.5579,0.0,0.0,-1.7209,-1.7312,-1.7504,-1.7947,-1.819,0.0,0.0,0.0,-2.529,0.0,0.0,0.0,0.0,0.0,0.0,0.0,0.0,0.0,0.0,0.0,0.0,0.0,-2.3708,-2.3121,-2.1947,-2.1893,-2.2003,-2.2323,-2.2238,-2.2539,-2.32,-2.2555,-2.2602,-2.323,-2.29,-2.3115,-2.3756,0.0,0.0,0.0,-2.3346,-2.2582,-2.1505,-2.0492,-1.9659,-1.891,-1.8172,-1.7901,-1.7884,0.0,0.0,0.0,0.0,0.0,0.0,0.0,0.0,0.0,0.0,0.0,0.0,0.0,0.0,0.0,0.0,0.0,0.0,0.0,0.0,0.0,0.0,0.0,0.0,0.0,0.0,0.0,-1.5927,0.0,0.0,0.0,0.0,0.0,0.0,0.0,0.0,0.0,0.0,0.0,0.0,0.0,0.0,0.0,0.0,0.0,0.0,0.0,0.0,0.0,0.0,0.0,0.0,-1.3609,-1.2746,0.0,0.0,-1.0574,-1.0356,-1.131,-1.1656,-1.2186,-1.3956,-1.4903,-1.5753,-1.7109,0.0,-1.7265,-1.7278,-1.7312,-1.7463,-1.8007,-1.8361,-1.908,0.0,0.0,0.0,0.0,0.0,0.0,0.0,0.0,0.0,0.0,0.0,0.0,0.0,0.0,0.0,0.0,-2.2747,-2.2447,-2.1276,-2.1244,-2.1306,-2.1443,-2.1683,-2.1725,-2.1568,-2.1732,-2.1715,-2.1581,-2.1626,-2.1798,-2.212,0.0,0.0,0.0,-2.2113,-2.1345,-1.993,-1.9501,-1.8882,-1.82,-1.7901,-1.767,-1.7502,0.0,0.0,0.0,0.0,0.0,0.0,0.0,0.0,0.0,0.0,0.0,0.0,0.0,0.0,0.0,0.0,0.0,0.0,0.0,0.0,0.0,0.0,0.0,0.0,0.0,0.0,0.0,-2.1353,-2.2625,-2.3443,0.0,0.0,0.0,0.0,0.0,0.0,0.0,0.0,0.0,0.0,0.0,0.0,0.0,0.0,0.0,0.0,0.0,0.0,0.0,0.0,0.0,0.0,0.0,0.0,0.0,0.0,-1.2186,-1.2024,-1.3424,-1.3967,-1.4593,-1.6593,-1.7332,-1.7771,0.0,0.0,-1.7767,-1.7767,-1.7646,-1.7706,-1.8243,-1.865,-1.908,-1.9603,0.0,-2.2143,0.0,0.0,0.0,0.0,0.0,0.0,0.0,0.0,0.0,0.0,0.0,0.0,0.0,-2.1613,-2.144,-2.0813,-2.0622,-2.0527,-2.0527,-2.0603,-2.0443,-2.0068,-2.0353,-2.041,-2.0218,-2.0319,-2.0551,-2.0891,0.0,0.0,0.0,-2.1056,-2.0341,-1.8894,-1.8894,-1.8454,-1.78,-1.78,-1.7584,-1.7308,0.0,0.0,0.0,0.0,0.0,0.0,0.0,0.0,0.0,0.0,0.0,0.0,0.0,0.0,0.0,0.0,0.0,0.0,0.0,0.0,0.0,0.0,0.0,0.0,0.0,0.0,0.0,-2.2882,-2.4142,-2.4879,-2.5072,-2.4721,-2.395,0.0,0.0,0.0,0.0,0.0,0.0,0.0,0.0,0.0,0.0,0.0,0.0,0.0,0.0,0.0,0.0,0.0,0.0,0.0,0.0,-1.5482,-1.5175,0.0,-1.2287,-1.1699,-1.352,-1.5114,-1.6696,-1.8523,-1.9818,-2.0646,0.0,0.0,-1.8874,-1.8874,-1.8458,-1.8263,-1.8798,-1.8893,-1.908,-1.9603,-2.0827,0.0,0.0,0.0,0.0,0.0,0.0,0.0,0.0,0.0,0.0,0.0,0.0,0.0,0.0,-2.0003,-1.9696,-2.0283,-1.9727,-1.9417,-1.9417,-1.8765,-1.8633,-1.9006,-1.8272,-1.8481,-1.9502,-1.9104,-1.951,0.0,0.0,0.0,0.0,-2.0512,-1.9865,-1.8894,-1.8894,-1.8454,-1.78,-1.78,-1.7584,-1.7308,0.0,0.0,0.0,0.0,0.0,0.0,0.0,0.0,0.0,0.0,0.0,0.0,0.0,0.0,0.0,0.0,0.0,0.0,0.0,0.0,0.0,0.0,0.0,0.0,0.0,0.0,-2.3181,-2.3531,-2.4377,-2.4961,-2.529,-2.5017,-2.452,-2.3899,0.0,0.0,0.0,0.0,0.0,0.0,0.0,0.0,0.0,0.0,0.0,0.0,0.0,0.0,0.0,0.0,0.0,0.0,0.0,0.0,0.0,-1.5085,-1.446,-1.4343,-1.575,-1.6745,-1.7734,-1.9231,-1.9829,-2.0131,-2.0607,0.0,-1.8893,-1.8893,-1.8477,-1.8263,-1.8798,-1.8893,-1.908,-1.9603,-2.0438,0.0,0.0,0.0,0.0,0.0,0.0,0.0,0.0,0.0,0.0,0.0,0.0,0.0,0.0,0.0,-1.9014,-1.921,-1.8575,-1.8242,-1.8242,-1.8346,-1.8219,-1.7836,-1.7882,-1.7802,-1.764,-1.7512,0.0,0.0,0.0,0.0,0.0,-1.9194,-1.8915,-1.8126,-1.7895,-1.765,-1.7467,-1.7467,-1.7101,-1.6606,0.0,0.0,0.0,0.0,0.0,0.0,0.0,0.0,0.0,0.0,0.0,0.0,0.0,0.0,0.0,0.0,0.0,0.0,0.0,0.0,0.0,0.0,0.0,0.0,0.0,-2.2746,-2.337,-2.3696,-2.4735,-2.526,-2.5281,-2.5498,-2.522,-2.454,-2.4264,0.0,0.0,0.0,0.0,0.0,0.0,0.0,-1.9798,0.0,0.0,0.0,0.0,0.0,0.0,0.0,0.0,0.0,0.0,0.0,0.0,0.0,-1.5993,-1.6204,-1.6941,-1.7567,-1.8361,-1.9832,-2.0141,0.0,0.0,0.0,-1.9207,-1.9207,-1.8949,-1.8727,-1.8874,-1.9062,-1.9244,-1.9387,-2.034,0.0,0.0,0.0,0.0,0.0,0.0,0.0,0.0,0.0,0.0,0.0,0.0,0.0,0.0,0.0,-1.8311,-1.8311,-1.7667,-1.7324,-1.7324,-1.7395,-1.7194,-1.6736,-1.6991,-1.6936,-1.6607,-1.6607,0.0,0.0,0.0,0.0,0.0,-1.7973,-1.7902,-1.7572,-1.7236,-1.7113,-1.7081,-1.6828,-1.6386,-1.5871,0.0,0.0,0.0,0.0,0.0,0.0,0.0,0.0,0.0,0.0,0.0,0.0,0.0,0.0,0.0,0.0,0.0,0.0,0.0,0.0,0.0,0.0,0.0,0.0,0.0,-2.296,-2.3398,-2.3627,-2.5218,-2.5722,-2.5197,-2.6082,-2.5899,-2.4846,-2.526,0.0,0.0,0.0,0.0,0.0,0.0,0.0,0.0,0.0,0.0,0.0,0.0,0.0,0.0,0.0,0.0,0.0,0.0,0.0,0.0,0.0,0.0,0.0,0.0,-1.7748,0.0,0.0,0.0,0.0,0.0,0.0,0.0,-1.9708,-1.9672,-1.9493,-1.9045,-1.9328,-1.949,-1.9041,-2.0455,0.0,0.0,0.0,0.0,0.0,0.0,0.0,0.0,0.0,0.0,0.0,0.0,0.0,0.0,0.0,-1.7713,-1.7713,-1.6979,-1.6591,-1.6591,-1.6025,-1.5741,-1.5712,-1.5741,-1.5912,-1.6232,-1.6246,0.0,0.0,0.0,0.0,0.0,-1.6926,-1.6977,-1.7236,-1.6904,-1.6747,-1.6617,-1.5979,-1.5517,-1.5095,0.0,0.0,0.0,0.0,0.0,0.0,0.0,0.0,0.0,0.0,0.0,0.0,0.0,0.0,0.0,0.0,0.0,0.0,0.0,0.0,0.0,0.0,0.0,0.0,0.0,-2.3606,-2.4341,-2.4797,-2.5616,-2.6012,-2.6008,-2.5721,-2.5408,-2.5027,-2.499,0.0,0.0,0.0,0.0,0.0,0.0,0.0,0.0,0.0,0.0,0.0,-1.9146,-1.903,0.0,0.0,0.0,0.0,0.0,0.0,0.0,0.0,-1.7213,-1.8002,-1.7969,0.0,-1.8947,-1.9855,-2.0015,-2.0064,0.0,0.0,0.0,0.0,0.0,-1.9169,-1.9453,-1.9281,-1.919,-1.9531,-2.0343,0.0,0.0,0.0,0.0,0.0,0.0,0.0,0.0,0.0,0.0,0.0,0.0,0.0,0.0,0.0,-1.7713,-1.7713,-1.6255,-1.5487,-1.5487,-1.5342,-1.5119,-1.4814,-1.5119,-1.53,-1.5389,-1.5754,0.0,0.0,0.0,0.0,-1.6917,-1.6828,-1.6853,-1.6876,-1.6541,-1.6108,-1.5637,-1.5477,-1.489,-1.4119,0.0,0.0,0.0,0.0,0.0,0.0,0.0,0.0,0.0,0.0,0.0,0.0,0.0,0.0,0.0,0.0,0.0,0.0,0.0,0.0,0.0,0.0,0.0,0.0,-2.3011,-2.3936,-2.454,-2.4793,-2.6376,-2.6623,-2.5615,-2.6225,-2.5974,-2.5031,-2.4459,0.0,0.0,0.0,0.0,0.0,-2.0133,0.0,0.0,0.0,0.0,0.0,-1.9271,-1.9205,0.0,-1.8714,-1.8451,-1.8174,0.0,0.0,0.0,0.0,-1.7898,-1.8583,-1.8577,-1.8925,-1.9467,-2.0069,-2.0395,-2.0527,-2.033,0.0,0.0,0.0,0.0,-1.8635,-1.8948,-1.9175,-1.9336,-1.943,0.0,0.0,0.0,0.0,0.0,0.0,0.0,0.0,0.0,0.0,0.0,0.0,0.0,0.0,0.0,0.0,-1.7421,-1.7421,-1.5735,-1.4907,-1.5104,-1.4922,-1.4721,-1.4501,-1.4721,-1.4922,-1.5119,-1.5359,0.0,0.0,0.0,0.0,-1.6554,-1.6394,-1.6421,-1.6509,-1.5866,-1.5394,-1.4997,-1.4383,-1.3815,-1.3302,0.0,0.0,0.0,0.0,0.0,0.0,0.0,0.0,0.0,0.0,0.0,0.0,0.0,0.0,0.0,0.0,0.0,0.0,0.0,0.0,0.0,0.0,0.0,-2.2119,-2.3262,-2.4016,-2.4399,-2.4399,-2.6888,-2.7031,-2.5012,-2.6705,-2.6598,-2.4924,-2.3962,-2.3348,0.0,0.0,0.0,0.0,-1.9715,0.0,0.0,0.0,0.0,0.0,0.0,0.0,0.0,-1.8606,-1.8091,-1.7614,-1.7561,0.0,0.0,0.0,0.0,0.0,-1.9008,-1.9636,-2.0358,-2.0572,-2.1035,-2.1185,-2.0183,0.0,0.0,0.0,0.0,0.0,0.0,0.0,0.0,0.0,0.0,0.0,0.0,0.0,0.0,0.0,0.0,0.0,0.0,0.0,0.0,0.0,0.0,0.0,0.0,0.0,0.0,-1.6972,-1.5317,-1.4564,-1.4907,-1.458,-1.4374,-1.4294,-1.4374,-1.4596,-1.4922,-1.4968,0.0,0.0,0.0,0.0,-1.619,-1.5806,-1.5817,-1.5989,-1.5022,-1.4586,-1.4361,-1.3223,-1.2741,-1.2576,0.0,0.0,0.0,0.0,0.0,0.0,0.0,0.0,0.0,0.0,0.0,0.0,0.0,0.0,0.0,0.0,0.0,0.0,0.0,0.0,0.0,0.0,-2.0959,-2.1984,-2.2794,-2.3847,-2.4533,-2.4815,-2.5865,-2.62,-2.5812,-2.5744,-2.5386,-2.4806,-2.4079,-2.334,-2.2612,-2.1588,-2.1089,-2.0944,-2.0132,0.0,0.0,0.0,0.0,0.0,0.0,0.0,0.0,-1.9585,-1.9208,-1.8669,-1.8229,0.0,0.0,0.0,0.0,0.0,-1.9131,-2.0759,-2.2316,-2.1063,-2.0763,-2.0735,-2.0662,0.0,0.0,0.0,0.0,0.0,0.0,0.0,0.0,0.0,0.0,0.0,0.0,0.0,0.0,0.0,0.0,0.0,0.0,0.0,0.0,0.0,0.0,0.0,0.0,0.0,0.0,-1.6421,-1.4836,-1.4019,-1.4068,-1.4019,-1.3785,-1.3408,-1.3802,-1.4019,-1.41,-1.4438,-1.4814,0.0,0.0,-1.5463,-1.5839,-1.5213,-1.4973,-1.4967,-1.424,-1.36,-1.3074,-1.2876,-1.2445,-1.1939,0.0,0.0,0.0,0.0,0.0,0.0,0.0,0.0,0.0,0.0,0.0,0.0,0.0,0.0,0.0,0.0,0.0,0.0,0.0,0.0,0.0,-2.1048,-2.1645,-2.22,-2.2693,-2.3665,-2.4246,-2.436,-2.5648,-2.5818,-2.4925,-2.5063,-2.5024,-2.4808,-2.4747,-2.4157,-2.3162,-2.267,-2.2106,-2.1491,0.0,0.0,0.0,0.0,0.0,0.0,0.0,0.0,0.0,0.0,-1.8273,-1.836,-1.8117,0.0,0.0,0.0,0.0,0.0,-1.951,-2.0602,-2.1571,-2.0622,-2.1498,-2.2426,0.0,0.0,0.0,0.0,0.0,0.0,0.0,0.0,0.0,0.0,0.0,0.0,0.0,0.0,0.0,0.0,0.0,0.0,0.0,0.0,0.0,0.0,0.0,0.0,0.0,0.0,0.0,0.0,-1.4214,-1.3514,-1.3514,-1.3514,-1.3408,-1.3198,-1.3425,-1.3648,-1.3917,-1.4084,-1.4406,-1.4783,0.0,-1.521,-1.5389,-1.4969,-1.4811,-1.4706,-1.366,-1.3074,-1.2756,-1.2385,-1.1944,-1.1523,0.0,0.0,0.0,0.0,0.0,0.0,0.0,0.0,0.0,0.0,0.0,0.0,0.0,0.0,0.0,0.0,0.0,0.0,0.0,0.0,-2.1649,-2.1968,-2.2183,-2.2362,-2.2524,-2.3243,-2.3577,-2.3481,-2.4931,-2.5104,-2.4082,-2.4858,-2.5148,-2.5028,-2.5491,-2.5125,-2.4114,-2.3941,-2.3317,-2.2359,0.0,0.0,0.0,0.0,0.0,0.0,0.0,0.0,0.0,0.0,0.0,0.0,0.0,0.0,0.0,-1.9296,-1.9367,-1.9308,-1.9341,-1.9943,-2.043,-1.9941,0.0,0.0,0.0,0.0,0.0,0.0,0.0,0.0,0.0,0.0,0.0,0.0,0.0,0.0,0.0,0.0,0.0,0.0,0.0,0.0,0.0,0.0,0.0,0.0,0.0,0.0,0.0,0.0,0.0,0.0,-1.3701,-1.3198,-1.3198,-1.3306,-1.3306,-1.3198,-1.3198,-1.3391,-1.3735,-1.3735,-1.3967,-1.436,-1.4536,-1.4734,-1.4926,-1.4582,-1.4436,-1.4333,-1.3396,-1.2888,-1.2594,-1.1851,-1.1437,-1.1207,0.0,0.0,0.0,0.0,0.0,0.0,0.0,0.0,0.0,0.0,0.0,0.0,0.0,0.0,0.0,0.0,0.0,0.0,0.0,0.0,-2.0969,-2.1009,-2.184,-2.2215,-2.2063,-2.2361,-2.242,-2.2237,-2.2853,-2.3547,-2.4309,-2.5407,-2.5823,-2.5659,-2.613,-2.5984,-2.5341,-2.4628,-2.4443,-2.4445,-2.2992,0.0,0.0,0.0,0.0,0.0,0.0,0.0,0.0,0.0,0.0,0.0,0.0,0.0,-1.801,-1.825,-1.8054,-1.7804,-1.7991,-1.9067,-2.0023,-1.9492,-1.9645,0.0,-2.0284,-1.9669,0.0,-1.9963,0.0,0.0,0.0,0.0,0.0,0.0,0.0,0.0,0.0,0.0,0.0,0.0,0.0,0.0,0.0,0.0,0.0,0.0,0.0,0.0,0.0,0.0,0.0,0.0,0.0,-1.3198,-1.3198,-1.3632,-1.3632,-1.3198,-1.3198,-1.3215,-1.325,-1.325,-1.3497,-1.3911,-1.3371,-1.3686,-1.4483,-1.3712,-1.3371,-1.3347,-1.3625,-1.3159,-1.2221,-1.1296,-1.0956,-1.0932,0.0,0.0,0.0,0.0,0.0,0.0,0.0,0.0,0.0,0.0,0.0,0.0,0.0,0.0,0.0,0.0,0.0,0.0,0.0,0.0,-2.342,-2.3091,-2.3431,-2.3037,-2.1845,-2.2034,-2.2036,-2.1786,-2.2655,-2.3952,-2.5614,-2.5743,-2.6318,-2.7195,-2.7387,-2.7116,-2.6537,-2.6489,-2.6222,-2.5781,-2.4901,-2.4118,0.0,0.0,0.0,0.0,0.0,0.0,0.0,0.0,-1.6026,-1.6273,-1.6545,-1.6796,-1.7083,-1.7678,-1.7527,-1.7288,-1.7615,-1.834,-1.8896,-1.846,-1.8253,0.0,0.0,-2.0227,-1.9598,-1.9838,-1.9227,0.0,0.0,0.0,0.0,0.0,0.0,0.0,0.0,0.0,0.0,0.0,0.0,0.0,0.0,0.0,0.0,0.0,0.0,0.0,0.0,0.0,0.0,0.0,0.0,-1.3198,-1.3198,-1.3682,-1.3665,-1.3198,-1.3497,-1.3493,-1.3198,-1.3198,-1.3112,-1.2971,-1.2998,-1.3229,-1.3531,-1.3108,-1.2912,-1.2828,-1.2222,-1.1755,-1.1394,-1.1027,-1.0777,-1.0598,0.0,0.0,0.0,0.0,0.0,0.0,0.0,0.0,0.0,0.0,0.0,0.0,0.0,0.0,0.0,0.0,0.0,0.0,0.0,-2.4023,-2.469,-2.4304,-2.4096,-2.3316,-2.1955,-2.1835,-2.1661,-2.1414,-2.2504,-2.3981,-2.5779,-2.6082,-2.6972,-2.8394,-2.8653,-2.8466,-2.7938,-2.7656,-2.7309,-2.6865,-2.5983,-2.5058,0.0,0.0,0.0,0.0,0.0,0.0,0.0,0.0,-1.4962,-1.5253,-1.5742,-1.5944,-1.6155,-1.693,-1.6829,-1.6585,-1.7087,-1.7409,-1.7562,-1.7472,0.0,0.0,-1.9801,-1.9794,-1.9403,-1.9698,-1.8825,0.0,0.0,0.0,0.0,0.0,0.0,0.0,0.0,0.0,0.0,0.0,0.0,0.0,0.0,0.0,0.0,0.0,0.0,0.0,0.0,0.0,0.0,0.0,0.0,0.0,-1.2978,-1.3585,-1.3665,-1.3215,-1.3682,-1.3648,-1.3198,-1.3198,-1.2998,-1.2642,-1.2597,-1.2644,-1.2792,-1.2612,-1.2732,-1.2858,-1.1335,-1.0874,-1.1012,-1.0575,-1.0352,-1.0236,0.0,0.0,0.0,0.0,0.0,0.0,0.0,0.0,0.0,0.0,0.0,0.0,0.0,0.0,0.0,0.0,0.0,0.0,-2.3067,-2.374,-2.4106,-2.4122,-2.3412,-2.2833,-2.2416,-2.1696,-2.1205,-2.1007,-2.2155,-2.3304,-2.4483,-2.6405,-2.7918,-2.906,-2.9831,-2.9965,-2.9493,-2.7897,-2.7476,-2.7752,-2.6031,-2.5514,-2.5653,0.0,0.0,0.0,0.0,0.0,0.0,0.0,-1.4918,-1.518,-1.5705,-1.5531,-1.5237,-1.596,-1.5815,-1.5546,-1.6218,-1.6254,-1.6202,0.0,0.0,0.0,-1.7705,-1.8008,-1.8359,-1.9629,0.0,0.0,0.0,0.0,0.0,0.0,0.0,0.0,0.0,0.0,0.0,0.0,0.0,0.0,0.0,0.0,0.0,0.0,0.0,0.0,0.0,0.0,0.0,0.0,0.0,0.0,-1.2508,-1.3421,-1.3665,-1.3215,-1.3682,-1.3665,-1.3215,-1.3198,-1.3198,-1.3152,-1.2065,-1.1902,-1.237,-1.2229,-1.2764,-1.344,-1.1253,-1.0805,-1.1229,-0.9896,-0.9661,-0.9886,0.0,0.0,0.0,0.0,0.0,0.0,0.0,0.0,0.0,0.0,0.0,0.0,0.0,0.0,0.0,0.0,0.0,0.0,0.0,-2.4435,-2.4915,-2.5356,-2.4896,-2.4198,-2.3337,-2.2637,-2.2134,-2.176,-2.2951,-2.4698,-2.6952,-2.7715,-2.87,-2.9861,-3.0099,-2.9819,-2.915,-2.8663,-2.839,-2.8201,-2.7686,-2.7,-2.6149,0.0,0.0,0.0,0.0,0.0,0.0,0.0,0.0,0.0,-1.4166,-1.431,-1.451,-1.5053,-1.5099,-1.5086,-1.5563,-1.5881,0.0,-1.6261,0.0,0.0,0.0,-1.7568,0.0,0.0,0.0,0.0,0.0,0.0,0.0,0.0,0.0,0.0,0.0,0.0,0.0,0.0,0.0,0.0,0.0,0.0,0.0,0.0,0.0,0.0,0.0,0.0,0.0,0.0,0.0,0.0,-1.2508,-1.3059,-1.3293,-1.3215,-1.3682,-1.3835,-1.3682,-1.334,-1.3145,-1.3005,-1.2015,-1.1691,-1.1804,-1.1342,-1.1331,-1.1482,-1.0443,-1.0174,-1.0263,-0.9628,-0.9661,-0.9948,0.0,0.0,0.0,0.0,0.0,0.0,0.0,0.0,0.0,0.0,-2.233,-2.2844,0.0,0.0,0.0,0.0,0.0,0.0,0.0,0.0,-2.5028,-2.5708,-2.5109,-2.4337,-2.3471,-2.3062,-2.2881,-2.2932,-2.3731,-2.531,-2.7538,-2.8349,-2.9414,-3.0687,-3.0687,-3.0228,-2.9427,-2.8785,-2.8388,-2.8143,-2.7989,-2.7268,-2.621,0.0,0.0,0.0,0.0,0.0,0.0,0.0,0.0,0.0,-1.3812,-1.4016,-1.4361,-1.4335,-1.4667,-1.5109,-1.5363,-1.5869,0.0,-1.678,-1.7142,-1.7268,0.0,0.0,0.0,0.0,0.0,0.0,0.0,0.0,0.0,0.0,0.0,0.0,0.0,0.0,0.0,0.0,0.0,0.0,0.0,0.0,0.0,0.0,0.0,0.0,0.0,0.0,0.0,0.0,0.0,0.0,-1.1909,-1.236,-1.2707,-1.2925,-1.3212,-1.3539,-1.3885,-1.3408,-1.315,-1.3016,-1.2025,-1.168,-1.1765,-1.0777,-1.0519,-1.0657,-1.0263,-1.0021,-0.9905,-0.9919,-0.9973,-1.0034,0.0,0.0,0.0,0.0,0.0,0.0,0.0,0.0,0.0,0.0,-2.3856,-2.4584,0.0,0.0,0.0,0.0,0.0,0.0,0.0,0.0,-2.4653,-2.5562,-2.4686,-2.3909,-2.3351,-2.3284,-2.357,-2.4223,-2.4431,-2.5313,-2.6875,-2.8529,-2.9958,-3.1127,-3.1329,-3.087,-2.9898,-2.8503,-2.7824,-2.7673,-2.7368,-2.677,-2.6001,-2.5557,0.0,0.0,0.0,0.0,0.0,0.0,0.0,0.0,-1.438,-1.4392,-1.4503,-1.3817,-1.4323,-1.5174,-1.5273,0.0,0.0,-1.7456,0.0,0.0,0.0,0.0,0.0,0.0,0.0,0.0,0.0,0.0,0.0,0.0,0.0,0.0,0.0,0.0,0.0,0.0,0.0,0.0,0.0,0.0,0.0,0.0,0.0,0.0,0.0,0.0,0.0,0.0,0.0,0.0,-1.0933,-1.1468,-1.1975,0.0,-1.2437,-1.2871,-1.3689,-1.3357,-1.3165,-1.3036,-1.198,-1.1728,-1.1973,-1.0494,-1.0207,-1.0651,-1.043,-1.0173,-0.9956,-1.0419,-1.0368,-1.0121,0.0,0.0,0.0,0.0,0.0,0.0,0.0,0.0,0.0,0.0,0.0,0.0,0.0,0.0,0.0,0.0,0.0,0.0,0.0,0.0,-2.4577,-2.6289,-2.6236,-2.5878,-2.5228,-2.4699,-2.4404,-2.4373,-2.4603,-2.5578,-2.723,-2.9165,-2.969,-2.9109,-3.0698,-3.0258,-2.8319,-2.862,-2.8014,-2.6914,-2.7446,-2.7222,-2.6444,-2.5579,-2.4379,0.0,0.0,0.0,0.0,0.0,0.0,0.0,-1.5004,-1.4264,-1.347,-1.3565,-1.3402,-1.3308,-1.3737,-1.3971,0.0,0.0,0.0,0.0,0.0,0.0,0.0,0.0,0.0,0.0,0.0,0.0,0.0,0.0,0.0,0.0,0.0,0.0,0.0,0.0,0.0,0.0,0.0,0.0,0.0,0.0,0.0,0.0,0.0,0.0,0.0,0.0,0.0,-1.0438,-1.0369,-1.0904,-1.1431,0.0,-1.1957,-1.2066,-1.2259,-1.2913,-1.2858,-1.2217,-1.1287,-1.1001,-1.1109,-1.0251,-1.0123,-1.043,-1.0123,-0.9957,-0.9892,-0.9729,-0.9829,-1.0059,0.0,0.0,0.0,0.0,0.0,0.0,0.0,0.0,0.0,0.0,0.0,0.0,0.0,0.0,0.0,0.0,0.0,0.0,0.0,0.0,0.0,-2.6238,-2.6583,-2.6294,-2.5339,-2.5105,-2.4639,-2.3929,-2.4062,-2.5083,-2.695,-2.8654,-2.9177,-2.877,-2.9598,-2.9046,-2.7528,-2.7757,-2.7372,-2.6667,-2.7475,-2.7476,-2.6941,-2.641,-2.5228,-2.3718,-2.2805,0.0,0.0,0.0,0.0,0.0,0.0,0.0,-1.4278,-1.347,-1.3032,-1.2826,-1.2745,0.0,0.0,-1.4395,0.0,0.0,0.0,0.0,0.0,0.0,0.0,0.0,0.0,0.0,0.0,0.0,0.0,0.0,0.0,0.0,0.0,0.0,0.0,0.0,0.0,0.0,0.0,0.0,0.0,0.0,0.0,0.0,0.0,0.0,-0.9917,-0.978,-0.9865,-1.0147,-1.0667,-1.1412,-1.1412,-1.1553,-1.1818,-1.2264,-1.2479,-1.241,-1.1231,-1.0871,-1.1074,-1.0238,-0.9995,-1.016,-1.0135,-1.0046,-0.9931,-1.0168,-1.0144,-1.0056,0.0,0.0,0.0,0.0,0.0,0.0,0.0,0.0,0.0,0.0,0.0,0.0,0.0,0.0,0.0,0.0,0.0,0.0,0.0,0.0,0.0,0.0,-2.6351,-2.604,-2.5029,-2.4968,-2.4376,-2.3212,-2.3293,-2.4303,-2.6165,-2.7568,-2.8411,-2.8788,-2.8595,-2.8031,-2.7193,-2.6993,-2.6797,-2.6667,-2.7475,-2.7593,-2.7272,-2.7206,-2.5867,-2.3983,-2.3626,-2.2383,-2.0813,-1.9972,0.0,0.0,0.0,0.0,-1.5414,-1.3616,-1.296,-1.2636,-1.2008,0.0,-1.3041,-1.3911,0.0,0.0,0.0,0.0,0.0,0.0,0.0,0.0,0.0,0.0,0.0,0.0,0.0,0.0,0.0,0.0,0.0,0.0,0.0,0.0,0.0,0.0,0.0,0.0,0.0,0.0,0.0,0.0,-1.0001,-0.9565,-0.9261,-0.9144,-0.9228,-0.9399,-0.9923,-1.0743,-1.0829,-1.1127,-1.1556,-1.1411,-1.185,-1.2627,-1.1134,-1.0789,-1.1242,-1.0392,-1.007,-1.0148,-1.0366,-1.0289,-1.0107,-1.0742,-1.0546,-1.0083,0.0,0.0,0.0,0.0,0.0,0.0,0.0,0.0,0.0,0.0,-2.4281,-2.4355,0.0,0.0,0.0,0.0,0.0,0.0,0.0,0.0,0.0,0.0,-2.5978,-2.5717,-2.585,-2.4579,-2.3418,-2.2454,-2.2923,0.0,0.0,0.0,0.0,-2.7583,0.0,-2.8335,-2.7235,-2.7898,-2.7561,-2.6667,-2.7475,-2.7551,-2.7194,-2.6826,-2.5973,-2.4872,-2.4427,-2.3244,-2.1848,-2.1439,-2.0543,0.0,0.0,0.0,-1.5107,-1.4524,-1.2969,-1.1421,0.0,0.0,-1.1378,0.0,0.0,0.0,0.0,0.0,0.0,0.0,0.0,0.0,0.0,0.0,0.0,0.0,0.0,0.0,0.0,0.0,0.0,0.0,0.0,0.0,0.0,0.0,0.0,0.0,0.0,0.0,0.0,-1.0089,-0.9835,-0.9028,-0.907,-0.8784,-0.8118,-0.9039,-0.9558,-0.9716,-1.0167,-1.0456,-1.0563,-1.0095,-1.0475,-1.1452,-1.0142,-1.0097,-1.0953,-1.0701,-1.076,-1.099,-1.076,-1.0622,-1.0545,-1.0209,-1.0006,-0.9989,0.0,0.0,0.0,0.0,0.0,0.0,0.0,0.0,0.0,0.0,0.0,-2.4695,0.0,0.0,0.0,0.0,0.0,0.0,0.0,0.0,0.0,0.0,-2.5283,-2.4813,-2.4778,-2.4071,-2.3053,-2.1747,0.0,0.0,0.0,-2.4564,-2.5929,0.0,0.0,0.0,0.0,-2.6908,-2.6848,-2.6943,-2.6822,-2.7366,-2.8087,-2.7017,-2.6318,-2.5835,-2.498,-2.394,-2.2949,-2.2609,-2.186,-2.0967,-2.0296,0.0,0.0,0.0,-1.3381,0.0,-1.1092,-1.0833,-1.0854,0.0,0.0,0.0,0.0,0.0,0.0,0.0,0.0,0.0,0.0,0.0,0.0,0.0,0.0,0.0,0.0,0.0,0.0,0.0,0.0,0.0,0.0,0.0,0.0,0.0,0.0,0.0,-0.9237,-0.9354,-0.9083,-0.8355,-0.8385,-0.8253,-0.7899,-0.8357,-0.8756,-0.9059,-0.9597,-0.9857,-0.9876,-0.9146,-0.9509,-1.0622,-0.9526,-0.9556,-1.0324,-1.0077,-1.0177,-1.0456,-1.031,-1.0244,-1.0219,-0.9993,-0.9905,-0.9905,0.0,0.0,0.0,0.0,0.0,0.0,0.0,0.0,0.0,0.0,0.0,0.0,0.0,0.0,0.0,0.0,0.0,0.0,0.0,0.0,0.0,0.0,0.0,-2.399,-2.3951,-2.3429,-2.2589,-2.1371,0.0,0.0,-2.3382,-2.328,-2.489,0.0,-2.6884,-2.6742,0.0,0.0,0.0,-2.7451,-2.685,-2.7562,-2.8877,-2.7666,-2.69,-2.6355,-2.5509,-2.4552,-2.366,-2.3305,-2.2838,-2.2211,-2.1337,-1.9837,0.0,0.0,0.0,0.0,0.0,0.0,0.0,0.0,0.0,0.0,0.0,0.0,0.0,0.0,0.0,0.0,0.0,0.0,0.0,0.0,0.0,0.0,0.0,0.0,0.0,0.0,0.0,0.0,0.0,0.0,0.0,0.0,0.0,0.0,-0.8804,-0.8804,-0.8571,-0.8039,-0.8019,-0.7964,-0.7794,-0.7874,-0.818,-0.8695,-0.9099,-0.9306,-0.9307,-0.8648,-0.8971,-0.9998,-0.9071,-0.9035,-0.9607,-0.9498,-0.9666,-0.9974,-0.9974,-1.0027,-1.0094,-0.9956,-0.9905,-0.9867,0.0,0.0,0.0,0.0,0.0,0.0,0.0,0.0,0.0,0.0,0.0,0.0,0.0,-2.5833,-2.5455,-2.5624,0.0,0.0,0.0,0.0,0.0,0.0,0.0,0.0,0.0,-2.2626,-2.1665,0.0,0.0,0.0,-2.3315,-2.2904,-2.439,-2.7325,-2.7007,-2.7023,-2.7286,0.0,0.0,0.0,0.0,-2.8573,-2.8987,-2.8913,0.0,0.0,0.0,-2.5032,-2.366,-2.3305,-2.3177,-2.3015,-2.2255,-2.1129,0.0,0.0,0.0,0.0,0.0,0.0,0.0,0.0,0.0,0.0,0.0,0.0,0.0,0.0,0.0,0.0,0.0,0.0,0.0,0.0,0.0,0.0,0.0,0.0,0.0,0.0,0.0,0.0,0.0,0.0,0.0,0.0,0.0,0.0,-0.8804,-0.8804,-0.8664,-0.8382,-0.8375,-0.8111,-0.7515,-0.7773,-0.818,-0.8695,-0.8716,-0.8771,-0.8836,-0.8791,-0.908,-0.9587,-0.8708,-0.8523,-0.8891,-0.9393,-0.982,-1.019,-1.019,-1.0389,-1.0607,-1.0094,-0.9905,-0.9905,0.0,0.0,0.0,0.0,0.0,0.0,0.0,0.0,0.0,0.0,0.0,0.0,0.0,-2.5264,-2.527,-2.4953,-2.4929,0.0,0.0,0.0,0.0,0.0,0.0,0.0,0.0,0.0,0.0,0.0,0.0,-2.0757,-2.1648,-2.1909,-2.297,-2.4654,-2.5911,-2.6902,-2.7589,-2.7111,0.0,0.0,0.0,0.0,0.0,0.0,0.0,0.0,0.0,0.0,0.0,-2.4834,-2.4461,-2.4064,-2.2816,0.0,0.0,0.0,0.0,0.0,0.0,0.0,0.0,0.0,0.0,0.0,0.0,0.0,0.0,0.0,0.0,0.0,0.0,0.0,0.0,0.0,0.0,0.0,0.0,0.0,0.0,0.0,0.0,0.0,0.0,0.0,0.0,0.0,0.0,0.0,-0.8804,-0.8804,-0.8671,-0.8409,-0.8402,-0.8107,-0.7497,-0.7759,-0.7808,-0.762,-0.8008,-0.8192,-0.8218,-0.8276,-0.8571,-0.9044,-0.8486,-0.8762,-0.9587,-0.8999,-0.9145,-0.9726,-0.9423,-0.938,-0.9456,-0.9267,-0.9197,-0.9197,0.0,0.0,0.0,0.0,0.0,0.0,0.0,0.0,0.0,0.0,0.0,0.0,0.0,0.0,-2.5455,-2.4571,-2.4766,-2.5011,-2.5198,-2.503,0.0,0.0,0.0,0.0,0.0,0.0,0.0,0.0,0.0,0.0,0.0,-2.1375,-2.2118,-2.3167,-2.4687,-2.5985,0.0,0.0,0.0,-2.7844,0.0,0.0,-2.8888,0.0,0.0,0.0,0.0,0.0,0.0,0.0,0.0,0.0,0.0,0.0,0.0,0.0,0.0,0.0,-1.3612,0.0,0.0,0.0,0.0,0.0,0.0,0.0,0.0,0.0,0.0,0.0,0.0,0.0,0.0,0.0,0.0,0.0,0.0,0.0,0.0,0.0,0.0,0.0,0.0,0.0,0.0,0.0,0.0,0.0,-0.8804,-0.8804,-0.8717,-0.8549,-0.833,-0.8029,-0.7629,-0.7616,-0.7405,-0.7,-0.7405,-0.7704,-0.7904,-0.8131,-0.8429,-0.8758,-0.8503,-0.8912,-0.9657,-0.8673,-0.8772,-0.9504,-0.9192,-0.9135,-0.9237,-0.9237,-0.9237,-0.9237,0.0,0.0,0.0,0.0,0.0,0.0,0.0,0.0,0.0,-2.6502,0.0,0.0,0.0,0.0,0.0,-2.4664,-2.4715,-2.4874,-2.4992,-2.4889,0.0,0.0,0.0,0.0,0.0,0.0,0.0,0.0,0.0,0.0,0.0,0.0,-2.1896,-2.3055,-2.347,-2.4331,-2.5541,0.0,-2.6488,-2.7862,0.0,-2.8347,-2.904,0.0,0.0,0.0,-2.8156,-2.7816,0.0,0.0,0.0,0.0,0.0,0.0,0.0,0.0,0.0,0.0,0.0,0.0,0.0,0.0,0.0,0.0,0.0,0.0,0.0,0.0,0.0,0.0,0.0,0.0,0.0,0.0,0.0,0.0,0.0,0.0,0.0,0.0,0.0,0.0,0.0,0.0,0.0,0.0,0.0,-0.8804,-0.8804,-0.8804,-0.8804,-0.8804,-0.8218,-0.7912,-0.7905,-0.7313,-0.7006,-0.7,-0.7,-0.7301,-0.7891,-0.8439,-0.8675,-0.8679,-0.8739,-0.8848,-0.8948,-0.8419,-0.8755,-0.9576,-0.9582,-0.9776,-1.0064,-1.0064,-1.0064,-1.0064,0.0,0.0,0.0,0.0,0.0,0.0,0.0,0.0,0.0,0.0,0.0,0.0,-2.6602,-2.6602,-2.6264,-2.5447,-2.5432,-2.5284,-2.4886,-2.4917,-2.4904,-2.4804,-2.4655,0.0,0.0,0.0,0.0,0.0,0.0,0.0,0.0,0.0,0.0,0.0,-2.2002,-2.2851,-2.41,-2.5459,0.0,0.0,-2.7937,-2.857,0.0,0.0,0.0,0.0,0.0,-2.9152,-2.894,0.0,-2.7341,-2.6078,0.0,0.0,0.0,0.0,0.0,0.0,-1.5441,0.0,0.0,0.0,0.0,0.0,-0.99,0.0,0.0,0.0,0.0,0.0,0.0,0.0,0.0,0.0,0.0,0.0,0.0,0.0,0.0,0.0,0.0,0.0,0.0,0.0,0.0,0.0,-0.8804,-0.8804,-0.8804,-0.8804,-0.8804,-0.8804,-0.8444,-0.815,-0.7912,-0.7535,-0.7235,-0.7,-0.7,-0.7084,-0.728,-0.7863,-0.8118,-0.8131,-0.814,-0.8398,-0.8744,-0.8361,-0.8522,-0.9029,-0.9129,-0.9231,-0.9305,-0.9305,-0.9305,-0.9305,0.0,0.0,0.0,0.0,0.0,0.0,0.0,0.0,0.0,0.0,0.0,0.0,-2.7108,-2.6502,-2.6086,-2.6078,-2.5467,-2.5253,-2.5651,-2.5114,-2.4939,-2.5291,-2.4904,-2.4462,0.0,0.0,0.0,0.0,0.0,0.0,0.0,0.0,0.0,0.0,0.0,0.0,0.0,0.0,0.0,0.0,-2.7595,0.0,0.0,-2.9385,-2.9532,0.0,0.0,0.0,-2.9909,-2.9327,-2.8258,0.0,0.0,0.0,0.0,0.0,0.0,0.0,0.0,0.0,0.0,0.0,0.0,0.0,-1.0128,-0.8659,0.0,0.0,0.0,0.0,0.0,0.0,0.0,0.0,0.0,0.0,0.0,0.0,0.0,0.0,0.0,0.0,0.0,0.0,0.0,0.0,-0.8804,-0.8804,-0.8804,-0.8804,-0.8804,-0.8804,-0.8549,-0.823,-0.7912,-0.7622,-0.7337,-0.7,-0.7,-0.7,-0.7021,-0.7614,-0.7767,-0.753,-0.7787,-0.7925,-0.7982,-0.8048,-0.8476,-0.9109,-0.918,-0.9351,-0.9541,-0.9541,-0.9424,-0.925,0.0,0.0,0.0,0.0,0.0,0.0,0.0,0.0,0.0,0.0,-2.7934,-2.797,-2.8062,-2.6715,-2.6054,-2.6686,-2.5438,-2.5242,-2.6776,-2.5456,-2.5026,-2.5919,-2.5024,-2.4353,-2.4063,0.0,0.0,0.0,0.0,0.0,0.0,0.0,0.0,0.0,0.0,0.0,0.0,0.0,0.0,-2.6703,-2.7106,-2.7978,0.0,0.0,-2.9722,0.0,-2.9962,-3.0202,-3.0342,-2.9994,-2.8914,0.0,0.0,0.0,0.0,0.0,-2.0212,0.0,0.0,0.0,0.0,0.0,0.0,0.0,-1.0355,-0.8748,-0.7295,0.0,0.0,0.0,0.0,0.0,0.0,0.0,0.0,0.0,0.0,0.0,0.0,0.0,0.0,0.0,0.0,0.0,-0.8725,-0.8804,-0.8804,-0.8804,-0.8804,-0.8804,-0.8804,-0.8804,-0.8557,-0.8263,-0.7912,-0.7655,-0.7348,-0.7,-0.7,-0.7,-0.7021,-0.7551,-0.751,-0.7021,-0.7572,-0.7489,-0.7042,-0.7579,-0.839,-0.9319,-0.9379,-0.9736,-1.0196,-1.0147,-0.9904,-0.9583,0.0,0.0,0.0,0.0,0.0,0.0,0.0,0.0,0.0,0.0,-2.8767,-2.9005,-2.9659,-2.8858,-2.8099,-2.7603,-2.7273,-2.6964,-2.6675,-2.5912,-2.5557,-2.5741,-2.494,-2.4459,-2.4398,0.0,0.0,0.0,0.0,0.0,0.0,0.0,0.0,0.0,0.0,0.0,0.0,0.0,0.0,-2.5938,-2.7174,0.0,-2.9361,-2.9598,-2.9796,-2.9969,-3.0235,-3.0355,-3.0265,0.0,-2.8827,-2.8184,0.0,0.0,0.0,0.0,0.0,0.0,0.0,0.0,0.0,0.0,0.0,0.0,-1.1469,-0.9515,-0.786,0.0,0.0,0.0,0.0,0.0,0.0,0.0,0.0,0.0,0.0,0.0,0.0,0.0,0.0,0.0,0.0,0.0,-0.8156,-0.8752,-0.8804,-0.8804,-0.8804,-0.8804,-0.8804,-0.8804,-0.8751,-0.847,-0.7912,-0.7846,-0.7539,-0.7,-0.7,-0.7,-0.7,-0.7126,-0.7105,-0.7,-0.7126,-0.7105,-0.7,-0.7126,-0.7586,-0.8255,-0.8683,-0.9179,-0.962,-0.9232,-0.931,-0.9508,0.0,0.0,0.0,0.0,0.0,0.0,0.0,0.0,0.0,0.0,0.0,0.0,0.0,0.0,0.0,0.0,0.0,0.0,0.0,0.0,0.0,-2.6284,-2.505,-2.4401,-2.4503,-2.3813,0.0,0.0,0.0,0.0,0.0,0.0,0.0,0.0,0.0,0.0,0.0,0.0,-2.3992,-2.5684,-2.677,0.0,-2.9225,-2.9465,-2.9616,-2.9748,-3.008,-3.0292,-3.0315,-2.9787,-2.8989,0.0,0.0,-2.527,-2.377,0.0,-2.1427,-2.0605,0.0,0.0,0.0,-1.681,0.0,0.0,0.0,-1.0428,-0.8939,-0.7876,0.0,0.0,0.0,0.0,0.0,0.0,0.0,0.0,0.0,0.0,0.0,0.0,0.0,0.0,0.0,0.0,-0.7996,-0.8752,-0.8804,-0.8804,-0.8804,-0.8804,-0.8804,-0.8804,-0.8804,-0.8597,-0.8156,-0.7979,-0.7679,-0.7241,-0.7073,-0.7,-0.7,-0.7,-0.7,-0.7,-0.7,-0.692,-0.6814,-0.694,-0.71,-0.7316,-0.8021,-0.8797,-0.9453,-0.8971,-0.9022,-0.9223,-2.9005,0.0,0.0,0.0,0.0,0.0,0.0,0.0,0.0,0.0,0.0,0.0,0.0,0.0,0.0,0.0,0.0,0.0,0.0,0.0,0.0,0.0,-2.5289,-2.4441,-2.4435,-2.3951,-2.3385,0.0,0.0,0.0,0.0,0.0,0.0,0.0,0.0,0.0,0.0,0.0,0.0,-2.5648,0.0,-2.7545,-2.91,-2.932,-2.9414,-2.9475,-2.9639,-2.9758,-2.9806,-2.9806,0.0,-2.748,-2.7108,-2.5731,0.0,0.0,0.0,0.0,0.0,0.0,0.0,0.0,0.0,-1.5439,0.0,0.0,0.0,-0.9191,0.0,0.0,0.0,0.0,0.0,0.0,0.0,0.0,0.0,0.0,0.0,0.0,0.0,0.0,0.0,0.0,-0.8156,-0.8752,-0.8804,-0.8804,-0.8804,-0.8804,-0.8804,-0.8804,-0.8804,-0.8664,-0.8402,-0.8136,-0.7829,-0.7506,-0.7221,-0.7053,-0.7,-0.7,-0.7,-0.7,-0.694,-0.6807,-0.6607,-0.678,-0.672,-0.6599,-0.7408,-0.8289,-0.9033,-0.8591,-0.8513,-0.8575,-2.9005,-2.9005,0.0,0.0,0.0,0.0,0.0,0.0,0.0,0.0,0.0,0.0,0.0,0.0,0.0,0.0,0.0,0.0,-3.0063,0.0,0.0,0.0,0.0,0.0,-2.4256,-2.3878,-2.3504,0.0,0.0,0.0,0.0,0.0,0.0,0.0,-2.1597,0.0,0.0,0.0,-2.35,0.0,-2.6021,-2.7449,0.0,-2.9392,-2.9513,-2.9575,-2.8906,-2.8236,-2.765,0.0,-2.7521,-2.7157,0.0,-2.5551,0.0,0.0,0.0,0.0,0.0,0.0,0.0,0.0,-1.8614,0.0,0.0,0.0,-1.2196,-1.0819,0.0,0.0,0.0,0.0,0.0,0.0,0.0,0.0,0.0,0.0,0.0,0.0,0.0,0.0,0.0,0.0,0.0,-0.8804,-0.8804,-0.8804,-0.8804,-0.8804,-0.8804,-0.8804,-0.8804,-0.8664,-0.8402,-0.8368,-0.806,-0.7513,-0.7457,-0.7275,-0.7,-0.7,-0.7,-0.6986,-0.6754,-0.662,-0.6593,-0.6365,-0.6277,-0.6297,-0.6868,-0.7324,-0.7594,-0.7189,-0.7153,-0.7254,-2.9005,-2.9005,0.0,0.0,0.0,0.0,0.0,0.0,0.0,0.0,0.0,0.0,0.0,0.0,0.0,0.0,0.0,-3.0705,0.0,0.0,0.0,0.0,0.0,0.0,0.0,-2.4873,-2.4322,-2.32,-2.2888,0.0,0.0,0.0,0.0,0.0,-2.1597,0.0,-2.1899,0.0,0.0,0.0,0.0,0.0,0.0,-2.8993,-2.9006,-2.8671,-2.7864,-2.746,-2.7297,0.0,-2.6898,0.0,0.0,0.0,0.0,0.0,0.0,0.0,0.0,0.0,0.0,0.0,0.0,0.0,0.0,0.0,-1.4332,0.0,0.0,0.0,0.0,0.0,0.0,0.0,0.0,0.0,0.0,0.0,0.0,0.0,0.0,0.0,0.0,0.0,0.0,0.0,0.0,-0.8804,-0.8804,-0.8804,-0.8804,-0.8804,-0.8804,-0.8751,-0.8624,-0.829,-0.7989,-0.7729,-0.7375,-0.7141,-0.7,-0.7,-0.7,-0.6993,-0.6873,-0.6653,-0.6377,-0.6405,-0.6224,-0.5956,-0.6378,-0.6798,-0.7111,-0.6679,-0.6769,-0.704,-2.9005,0.0,0.0,0.0,0.0,0.0,0.0,0.0,0.0,0.0,0.0,0.0,-3.1641,-3.1403,0.0,0.0,0.0,-3.1715,0.0,0.0,-2.8767,0.0,0.0,0.0,0.0,0.0,0.0,0.0,0.0,0.0,0.0,0.0,0.0,0.0,0.0,-2.1568,-2.1796,0.0,0.0,-2.4658,-2.5321,-2.6333,-2.7548,-2.8363,-2.812,-2.7277,-2.6711,-2.6467,-2.6462,-2.6462,-2.5932,0.0,-2.528,0.0,0.0,0.0,0.0,0.0,-2.263,0.0,0.0,0.0,0.0,0.0,0.0,0.0,0.0,0.0,0.0,0.0,0.0,0.0,0.0,0.0,0.0,0.0,0.0,0.0,0.0,0.0,0.0,0.0,0.0,0.0,0.0,0.0,-0.8804,0.0,-0.8804,-0.8804,-0.8804,-0.8804,-0.8804,-0.8804,-0.8804,-0.8358,-0.8065,-0.7905,-0.7459,-0.716,-0.7,-0.7,-0.7,-0.7,-0.692,-0.662,-0.6203,-0.6311,-0.6052,-0.5618,-0.5867,-0.6187,-0.6508,-0.6241,-0.6341,-0.6578,-2.9005,-2.9005,0.0,0.0,0.0,0.0,0.0,0.0,0.0,0.0,0.0,0.0,0.0,0.0,0.0,0.0,0.0,-3.3385,-3.2583,0.0,-2.9108,0.0,0.0,-2.6944,0.0,0.0,0.0,0.0,0.0,0.0,0.0,0.0,0.0,0.0,0.0,-2.1493,-2.2273,-2.2149,-2.325,-2.5094,-2.539,-2.5961,-2.6741,0.0,-2.6862,-2.5486,-2.5468,0.0,0.0,-2.4292,-2.4292,0.0,0.0,0.0,0.0,0.0,0.0,0.0,0.0,0.0,0.0,-2.174,0.0,0.0,0.0,0.0,-1.8329,0.0,0.0,0.0,0.0,0.0,0.0,-1.3838,0.0,0.0,0.0,0.0,0.0,0.0,0.0,0.0,0.0,0.0,0.0,-0.8804,-0.8804,-0.8804,-0.8804,-0.8804,-0.8804,-0.8804,-0.8804,-0.8804,-0.8804,-0.8791,-0.8465,-0.7905,-0.7885,-0.7572,-0.7,-0.7,-0.7,-0.6986,-0.6727,-0.6452,-0.6169,-0.5858,-0.5564,-0.5313,-0.532,-0.5336,-0.5392,-0.5628,-0.5564,-0.541,0.0,0.0,0.0,0.0,0.0,0.0,0.0,-3.0246,0.0,0.0,0.0,0.0,0.0,0.0,-3.4119,0.0,0.0,-3.322,-3.188,-3.1292,0.0,0.0,0.0,-2.8436,0.0,0.0,0.0,0.0,0.0,0.0,0.0,0.0,0.0,0.0,0.0,-2.1568,0.0,0.0,0.0,0.0,0.0,-2.5389,-2.5833,0.0,0.0,-2.5319,-2.4805,-2.4428,0.0,-2.419,-2.419,-2.419,-2.419,-2.419,-2.418,-2.4064,-2.4026,0.0,0.0,0.0,-2.2963,-2.2729,0.0,0.0,0.0,0.0,0.0,0.0,0.0,0.0,0.0,0.0,-1.6744,-1.5117,-1.4842,0.0,0.0,0.0,0.0,0.0,0.0,0.0,0.0,0.0,0.0,-0.8831,-0.8804,-0.8804,0.0,-0.8804,-0.8804,-0.8804,-0.8804,-0.8804,-0.8804,-0.8617,-0.8323,-0.7905,-0.7722,-0.7408,-0.7,-0.7,-0.7,-0.6993,-0.69,-0.6607,-0.6203,-0.6271,-0.5892,-0.5313,-0.5491,-0.5451,-0.5338,-0.5698,-0.5613,-0.5325,-2.9372,0.0,0.0,0.0,0.0,0.0,0.0,0.0,0.0,0.0,-3.4215,0.0,-3.5734,0.0,-3.4435,0.0,-3.4266,-3.3238,-3.1916,-3.1292,0.0,-2.8638,-2.9297,0.0,0.0,0.0,0.0,0.0,0.0,-2.328,0.0,0.0,0.0,0.0,0.0,0.0,-2.1888,0.0,-2.2798,0.0,0.0,-2.4653,0.0,0.0,-2.4772,-2.4887,0.0,-2.4016,-2.4016,-2.4016,-2.4016,-2.4016,-2.4016,-2.4103,-2.419,-2.419,-2.419,-2.4161,-2.3927,-2.3621,0.0,-2.3053,-2.237,0.0,-2.2641,0.0,0.0,0.0,0.0,0.0,0.0,0.0,0.0,-1.7013,-1.6262,-1.5761,0.0,-1.6371,0.0,0.0,0.0,0.0,0.0,0.0,-0.9471,-0.9178,-0.8929,-0.8804,0.0,0.0,-0.8804,-0.8804,-0.8804,-0.8804,-0.8804,-0.8624,-0.833,-0.7905,-0.7729,-0.7415,-0.7,-0.7,-0.7,-0.7,-0.7,-0.6754,-0.635,-0.6419,-0.6057,-0.5444,-0.5524,-0.5444,-0.534,-0.575,-0.5734,-0.5507,0.0,0.0,0.0,0.0,-2.9721,0.0,0.0,0.0,-3.4045,0.0,-3.5041,-3.5059,-3.5059,-3.5041,-3.4986,-3.4949,-3.4211,0.0,-3.2528,-3.1054,0.0,0.0,-2.9026,-2.8942,-2.7355,0.0,0.0,0.0,0.0,0.0,0.0,0.0,0.0,0.0,-2.1597,0.0,-2.2316,-2.2618,-2.2995,-2.3451,-2.3739,-2.3774,-2.3649,-2.3294,0.0,-2.4103,-2.3795,-2.3682,-2.3682,-2.3682,-2.3682,-2.3682,-2.3682,-2.3896,-2.4151,-2.4151,-2.4151,-2.4151,-2.4151,-2.3917,-2.3501,-2.2793,0.0,0.0,0.0,0.0,-2.1809,0.0,0.0,0.0,0.0,0.0,0.0,-1.9306,-1.7354,-1.5905,0.0,0.0,0.0,0.0,0.0,0.0,0.0,-1.1007,-0.941,-0.9766,-0.9185,0.0,0.0,0.0,-0.8804,-0.8804,-0.8804,-0.8804,-0.8804,-0.8831,-0.8536,-0.7905,-0.7929,-0.7609,-0.7,-0.7,-0.7,-0.7,-0.7,-0.6854,-0.6586,-0.633,-0.601,-0.5668,-0.5427,-0.5322,-0.5372,-0.5734,-0.5898,-0.5944,-3.0173,-3.0522,-3.0779,0.0,-3.0467,-3.0668,0.0,0.0,0.0,0.0,-3.5555,-3.5973,-3.5973,-3.5389,-3.4766,-3.4174,-3.3371,0.0,0.0,0.0,0.0,-2.873,-2.92,-2.9345,-2.9064,-2.8094,0.0,-2.6968,0.0,0.0,-2.2574,0.0,0.0,0.0,0.0,0.0,-2.2347,-2.2952,-2.3432,-2.3722,-2.321,-2.314,0.0,0.0,-2.3093,-2.3455,-2.3357,-2.3335,-2.3335,-2.3335,-2.3335,-2.3335,-2.3335,-2.338,-2.3466,-2.3466,-2.3466,-2.3466,-2.3466,-2.3392,-2.3281,-2.3085,-2.2975,-2.2905,0.0,0.0,0.0,0.0,0.0,0.0,0.0,0.0,0.0,0.0,-1.7871,0.0,0.0,0.0,0.0,0.0,0.0,0.0,0.0,-1.1916,-1.0226,-0.9832,-0.9185,0.0,0.0,0.0,0.0,-0.8804,-0.8804,-0.8804,-0.8804,-0.9283,-0.9004,-0.7905,-0.8405,-0.8071,-0.7,-0.7,-0.7,-0.7,-0.7,-0.6854,-0.66,-0.6533,-0.6179,-0.5688,-0.5631,-0.566,-0.5719,-0.5522,-0.6014,-0.6701,-3.065,0.0,0.0,-3.199,0.0,0.0,-3.2454,0.0,0.0,-3.488,-3.5426,0.0,-3.5238,-3.4454,-3.3628,-3.2816,-3.2027,0.0,0.0,0.0,0.0,-2.9023,-2.9257,-2.9454,-2.9561,-2.8121,0.0,-2.695,0.0,0.0,-2.2109,0.0,0.0,0.0,0.0,-2.1853,0.0,-2.275,-2.3098,-2.3327,-2.2749,0.0,0.0,-2.2639,-2.2643,-2.2811,-2.2811,-2.2878,-2.2984,-2.2984,-2.2984,-2.2984,-2.2984,-2.3081,-2.32,-2.32,-2.32,-2.32,-2.32,-2.32,-2.32,-2.32,-2.3093,-2.2996,-2.3063,-2.2933,-2.2678,0.0,0.0,0.0,0.0,0.0,0.0,0.0,0.0,0.0,0.0,0.0,0.0,0.0,0.0,0.0,0.0,0.0,-1.1044,0.0,0.0,0.0,0.0,0.0,0.0,-0.9666,-0.9658,-0.9658,-0.9658,-1.0038,-0.9828,-0.898,-0.8933,-0.8453,-0.7638,-0.7208,-0.7,-0.7,-0.7,-0.6906,-0.6767,-0.664,-0.6338,-0.5896,-0.5625,-0.5563,-0.5609,-0.5388,-0.5851,-0.6535,0.0,0.0,0.0,0.0,0.0,0.0,0.0,-3.3793,0.0,-3.4692,0.0,-3.4344,-3.344,-3.2706,-3.1916,-3.1011,0.0,-2.9843,-2.9751,-2.906,-2.873,-2.884,-2.9077,-2.926,-2.9402,-2.8023,0.0,0.0,0.0,-2.2891,-2.1587,0.0,0.0,0.0,0.0,0.0,0.0,-2.2296,-2.2422,0.0,-2.2385,-2.244,-2.2621,-2.2388,-2.2296,-2.2296,-2.2296,-2.245,-2.2647,-2.2647,-2.2647,-2.2647,-2.2647,-2.2853,-2.3087,-2.3087,-2.3087,-2.3087,-2.3087,-2.3105,-2.3129,-2.3099,-2.2885,-2.2708,-2.2725,-2.2504,-2.212,-2.1477,-2.0893,-2.0572,0.0,0.0,0.0,0.0,0.0,0.0,0.0,0.0,0.0,0.0,0.0,0.0,0.0,0.0,0.0,0.0,0.0,0.0,0.0,0.0,0.0,0.0,-1.0788,0.0,-1.0788,0.0,-1.0756,-1.0397,-0.9549,-0.8913,-0.8473,-0.7539,-0.707,-0.7,-0.7,-0.7,-0.698,-0.6707,-0.6412,-0.6082,-0.5554,-0.5327,-0.5293,-0.5293,-0.5522,-0.5882,0.0,0.0,0.0,0.0,0.0,-3.2601,-3.2601,-3.2839,-3.3023,-3.3023,-3.3023,0.0,-3.0999,-3.0705,-3.0026,-2.8558,-2.8312,0.0,0.0,0.0,0.0,-2.797,-2.8062,-2.8498,-2.9384,-2.8445,-2.7473,0.0,-2.4813,-2.3312,-2.1981,-2.1382,0.0,0.0,0.0,0.0,-2.2296,-2.2296,0.0,-2.2377,-2.2324,-2.2321,-2.236,-2.2324,-2.2296,-2.2296,-2.2296,-2.2321,-2.236,-2.236,-2.236,-2.236,-2.236,-2.2415,-2.2457,-2.2457,-2.2457,-2.2457,-2.2457,-2.2616,-2.2738,-2.2504,-2.2577,-2.2552,-2.1962,-2.2073,-2.2063,-2.1245,-2.0814,-2.0479,-2.0161,0.0,0.0,0.0,0.0,0.0,0.0,0.0,0.0,0.0,0.0,0.0,0.0,0.0,0.0,0.0,0.0,0.0,0.0,0.0,0.0,0.0,0.0,0.0,0.0,0.0,-1.12,-1.0397,-1.0452,-0.9781,-0.8473,-0.797,-0.7468,-0.7,-0.7,-0.7,-0.698,-0.6707,-0.6273,-0.5778,-0.5678,-0.5491,-0.5293,-0.5293,-0.534,-0.5507,0.0,0.0,0.0,0.0,0.0,0.0,0.0,-3.0478,0.0,-3.1026,-3.0585,-2.9755,-2.8569,-2.8209,-2.7765,-2.7,-2.6927,-2.6752,-2.6369,-2.6179,-2.6242,-2.6633,-2.6652,0.0,-2.7412,-2.6606,-2.5871,-2.5207,-2.3966,-2.2859,-2.183,-2.1475,0.0,0.0,0.0,-2.2092,0.0,0.0,0.0,-2.2296,-2.2296,-2.2296,-2.2296,-2.2296,-2.2296,-2.2268,-2.2017,-2.1928,-2.1957,-2.2209,-2.2296,-2.2296,-2.2296,-2.2296,-2.2296,-2.2296,-2.2296,-2.2296,-2.2296,-2.2385,-2.2463,-2.2335,-2.2402,-2.2392,-2.2044,-2.2135,-2.2049,-2.1182,-2.091,-2.0558,-1.9688,-1.9249,0.0,0.0,0.0,0.0,0.0,0.0,0.0,0.0,0.0,0.0,0.0,0.0,0.0,0.0,0.0,0.0,0.0,0.0,0.0,0.0,0.0,0.0,0.0,0.0,0.0,-1.1683,-1.1086,-1.0241,-0.9201,-0.8307,-0.7572,-0.7,-0.7,-0.7,-0.698,-0.6707,-0.642,-0.6139,-0.5814,-0.5625,-0.5484,-0.5353,-0.5293,-0.5419,0.0,-3.1243,0.0,0.0,-3.0811,0.0,0.0,-2.806,-2.7792,-2.8922,-2.8152,-2.7192,-2.637,-2.5966,-2.5673,-2.5493,-2.5475,-2.5475,-2.5475,-2.5242,-2.5176,-2.5336,-2.5336,-2.5425,-2.5598,-2.4986,-2.4382,0.0,-2.3166,-2.2363,0.0,-2.1476,0.0,0.0,0.0,0.0,0.0,0.0,-2.2296,-2.2296,-2.2296,-2.2296,-2.2296,-2.2296,-2.2237,-2.2106,-2.1718,-2.1536,-2.1538,-2.1901,-2.2034,-2.2034,-2.2034,-2.2077,-2.2149,-2.2149,-2.2223,-2.2296,-2.2296,-2.2296,-2.2296,-2.2296,-2.2296,-2.2265,-2.2163,-2.2054,-2.1747,-2.0924,-2.0703,-2.0351,-1.9468,-1.9307,0.0,0.0,0.0,0.0,0.0,0.0,0.0,0.0,0.0,0.0,0.0,0.0,0.0,0.0,0.0,0.0,0.0,0.0,0.0,0.0,0.0,-1.3939,-1.3963,0.0,-1.3515,0.0,-1.1586,-1.0584,-0.9851,-0.8624,-0.7676,-0.7,-0.7,-0.7,-0.698,-0.6774,-0.6647,-0.6559,-0.6079,-0.5808,-0.5668,-0.5458,-0.5353,-0.541,0.0,0.0,0.0,0.0,0.0,0.0,0.0,-2.6553,-2.5768,-2.6912,-2.633,-2.5514,-2.4713,-2.4596,-2.4271,-2.3531,-2.3478,-2.3478,-2.3478,-2.3437,-2.3762,-2.4483,-2.4518,-2.485,-2.558,-2.5527,-2.4791,0.0,0.0,-2.249,0.0,-2.1071,0.0,0.0,0.0,0.0,0.0,-2.2296,-2.2296,-2.2296,-2.2296,-2.2296,-2.2296,-2.2296,-2.2032,-2.1658,-2.1628,-2.1368,-2.1055,-2.1118,-2.1134,-2.1134,-2.1134,-2.1385,-2.1673,-2.1673,-2.1974,-2.2296,-2.2296,-2.2296,-2.2296,-2.2296,-2.2296,-2.2194,-2.1764,-2.1301,-2.0759,-2.0137,-1.9657,-1.9436,-1.9622,-1.9656,-1.9498,0.0,0.0,0.0,0.0,0.0,0.0,0.0,0.0,0.0,0.0,-1.4973,0.0,0.0,0.0,0.0,0.0,0.0,0.0,-1.4486,0.0,-1.4412,-1.451,-1.405,0.0,-1.2895,-1.196,-1.094,-0.9866,-0.9026,-0.8034,-0.7,-0.7,-0.7,-0.7,-0.6973,-0.6827,-0.6587,-0.6546,-0.6179,-0.5694,-0.5668,-0.5504,-0.5397,0.0,0.0,0.0,0.0,0.0,0.0,0.0,-2.4571,-2.4084,-2.4092,-2.4195,-2.3995,-2.3208,-2.3284,-2.3242,-2.2928,-2.2945,-2.2945,-2.291,-2.2742,-2.2688,-2.2722,-2.2722,-2.2773,-2.2839,-2.2839,-2.2527,0.0,0.0,0.0,0.0,0.0,0.0,0.0,0.0,-2.1884,-2.1884,-2.1884,-2.1735,-2.1524,-2.1524,-2.1524,-2.1524,-2.1524,-2.14,-2.1197,-2.0927,-2.0715,-2.0533,-2.0311,-2.0581,-2.0991,-2.0991,-2.1102,-2.1244,-2.1244,-2.1369,-2.1524,-2.1524,-2.136,-2.1318,-2.1768,-2.1404,-2.0935,-2.0988,-2.0484,-1.985,-1.9239,-1.8905,-1.8798,-1.9051,-1.9173,-1.9151,0.0,0.0,0.0,0.0,0.0,0.0,0.0,0.0,0.0,0.0,0.0,-1.4383,0.0,0.0,0.0,0.0,0.0,0.0,-1.4866,0.0,-1.4167,-1.4475,-1.4023,-1.3515,-1.2895,-1.2028,-1.1192,-1.0401,-0.9236,-0.8075,-0.7,-0.7,-0.7,-0.7,-0.7,-0.6933,-0.6834,-0.666,-0.6446,-0.6219,-0.6064,-0.5923,-0.5871,-2.4739,0.0,-2.5404,0.0,-2.4646,-2.4599,-2.3223,-2.2829,-2.2558,-2.2144,-2.2543,-2.2721,-2.2333,-2.2463,-2.2573,-2.2573,-2.251,-2.2426,-2.2378,-2.2082,-2.1766,-2.143,-2.143,0.0,-2.1023,-2.0991,-2.0926,-2.0781,-2.0781,0.0,0.0,0.0,0.0,0.0,-2.1368,-2.143,-2.143,-2.143,-2.126,-2.0991,-2.0991,-2.0991,-2.0991,-2.0991,-2.091,-2.0764,-2.0416,-2.0212,-2.0072,-1.98,-2.012,-2.0615,-2.0615,-2.0698,-2.0749,-2.0575,-2.0607,-2.0654,-2.0477,-2.0387,-2.0432,-2.0741,-2.0419,-2.003,-2.0104,-1.9569,-1.8931,-1.8566,-1.8407,-1.8428,-1.871,-1.8687,-1.8526,-1.8216,0.0,0.0,0.0,0.0,0.0,0.0,0.0,-1.6862,-1.7055,0.0,0.0,0.0,0.0,0.0,0.0,0.0,0.0,0.0,0.0,0.0,0.0,-1.4023,-1.3515,-1.2895,-1.2028,-1.1312,-1.0744,-0.9174,-0.8021,-0.7259,-0.7084,-0.7,-0.7,-0.7,-0.7,-0.698,-0.6794,-0.6667,-0.6586,-0.6378,-0.6263,-0.6203,-2.3373,-2.3227,-2.3227,-2.3227,-2.263,-2.2131,-2.2115,-2.1488,-2.1166,-2.1568,-2.1628,-2.1779,-2.2254,-2.231,-2.231,-2.231,-2.1868,-2.1612,-2.1612,-2.1244,-2.1007,0.0,0.0,-2.0991,-2.0991,-2.0991,-2.0764,-2.0314,0.0,0.0,-1.9711,0.0,-2.0314,-2.0348,-2.0797,-2.1023,-2.1023,-2.1023,-2.0991,-2.0991,-2.0991,-2.0991,-2.0991,-2.0991,-2.0699,-2.0314,-2.0297,-2.0037,-1.9708,-1.9708,-1.9708,-1.9726,-1.9726,-1.9982,-2.019,-1.9588,-1.9704,-1.9867,-1.9201,-1.9495,-1.985,-1.9185,-1.951,-1.9834,-1.9169,-1.8462,-1.7962,-1.8159,-1.8207,-1.8339,-1.88,-1.8421,-1.7672,-1.66,0.0,0.0,0.0,0.0,0.0,0.0,-1.5632,-1.5842,-1.6445,0.0,0.0,0.0,0.0,0.0,0.0,0.0,0.0,-1.4584,-1.4475,0.0,-1.4609,-1.4071,-1.3515,-1.2895,-1.2028,-1.1312,-1.0722,-0.8794,-0.7899,-0.785,-0.7252,-0.7,-0.7,-0.7,-0.7,-0.7,-0.7,-0.684,-0.6606,-0.6606,-0.6419,-0.6236,-2.184,-2.1696,-2.1696,-2.1696,-2.1135,-2.067,-2.067,-2.0075,-1.9683,-1.9814,-1.9829,-1.9974,-2.0342,-2.153,-2.2296,0.0,-2.1884,-2.1597,0.0,-2.1228,-2.0862,-2.0533,-2.0516,-2.0398,-2.012,-2.012,-1.9861,-1.9361,0.0,0.0,0.0,-1.9821,-2.0052,-2.0314,-2.0466,-2.0516,-2.0516,-2.0516,-2.0364,-2.012,-2.012,-2.012,-2.012,-2.012,-2.0015,-1.9892,-1.9892,-1.9818,-1.9708,-1.9708,-1.9708,-1.9639,-1.9262,-1.917,-1.9165,-1.8968,-1.8689,-1.839,-1.816,-1.8144,-1.8229,-1.8525,-1.8195,-1.783,-1.7901,-1.7161,-1.6491,-1.656,-1.6894,-1.7146,-1.7009,-1.6867,-1.656,-1.5959,-1.4996,0.0,0.0,0.0,0.0,0.0,0.0,-1.5676,0.0,-1.5175,0.0,0.0,0.0,0.0,0.0,0.0,0.0,0.0,-1.3686,0.0,-1.3841,-1.341,-1.3079,-1.2895,-1.2028,-1.1006,-0.9889,-0.9273,-0.8594,-0.7891,-0.7704,-0.7384,-0.7,-0.7,-0.7,-0.7,-0.7,-0.6946,-0.6867,-0.6867,-0.6827,-0.676,-2.0609,-2.0514,-2.042,-2.0187,-1.978,-1.9437,-1.9171,-1.8779,-1.8586,-1.8748,-1.8985,-1.9196,-1.929,-2.0582,0.0,-2.1613,-2.1218,-2.0999,-2.1118,-2.0747,-2.0381,-2.0089,-2.0072,-1.9859,-1.9406,0.0,0.0,-1.8593,-1.8949,-1.9114,-1.9114,-1.9314,-1.9522,-1.9778,-1.9984,-2.0072,-2.0072,-2.0072,-1.9927,-1.9708,-1.9708,-1.9708,-1.9708,-1.9708,-1.9708,-1.9708,-1.9708,-1.9708,-1.9708,-1.9708,-1.9566,-1.9306,-1.8767,-1.8241,-1.7803,-1.7803,-1.7369,-1.6815,-1.6582,-1.6677,-1.6864,-1.6923,-1.6742,-1.6532,-1.6528,-1.6141,-1.5858,-1.6084,-1.6322,-1.6413,-1.6208,-1.5883,-1.5489,-1.5051,-1.4115,-1.3576,-1.3978,0.0,0.0,0.0,0.0,0.0,0.0,-1.471,0.0,0.0,0.0,0.0,0.0,0.0,0.0,-1.3627,-1.3154,0.0,-1.3271,-1.3042,-1.2803,-1.2627,-1.176,-1.0802,-0.9795,-0.9597,-0.9019,-0.8201,-0.7974,-0.7551,-0.7,-0.7,-0.7,-0.7,-0.7,-0.7,-0.7,-0.7,-0.7,-0.7,-1.9584,-1.9573,0.0,0.0,-1.8527,0.0,-1.7647,-1.7529,-1.7676,-1.81,-1.8733,-1.9045,-1.8842,-1.9371,-1.9892,-2.0246,0.0,0.0,0.0,-1.9912,-1.9708,-1.9708,-1.9708,-1.9442,-1.8912,-1.8893,-1.8631,-1.8106,-1.8066,-1.8066,-1.8125,-1.8612,-1.8836,-1.8874,-1.9369,-1.9603,-1.9639,-1.9639,-1.9672,-1.9708,-1.9708,-1.9708,-1.9708,-1.9708,-1.9708,-1.9708,-1.9708,-1.9708,-1.9693,-1.9612,-1.9259,-1.8739,-1.8122,-1.7121,-1.6206,-1.6241,-1.5865,-1.5302,-1.4669,-1.5237,-1.5757,-1.4751,-1.5251,-1.5823,-1.5203,-1.5404,-1.5861,-1.6441,-1.625,-1.6023,-1.6128,-1.5318,-1.4442,-1.3879,-1.3292,-1.2895,-1.2866,0.0,0.0,0.0,0.0,0.0,0.0,-1.412,-1.3792,0.0,0.0,0.0,0.0,0.0,-1.2905,-1.2905,-1.2905,-1.2905,-1.2905,-1.2876,-1.2607,-1.2106,-1.1287,-1.0684,-1.0283,-0.9784,-0.9239,-0.8675,-0.8172,-0.7593,-0.7,-0.7,-0.7,-0.7,-0.7,-0.7,-0.7,-0.7,-0.7,-0.7,0.0,0.0,-1.7823,-1.7663,-1.6873,-1.621,-1.6038,-1.5851,-1.5751,-1.5859,-1.6323,-1.6723,-1.6921,-1.7074,-1.7415,-1.8005,-1.8951,-1.9747,-2.0268,-1.9912,-1.9708,-1.9708,-1.9708,-1.9442,-1.8912,-1.8893,-1.8631,-1.8106,-1.7686,-1.7706,-1.8106,-1.8243,-1.8302,-1.8302,-1.8419,-1.8708,-1.9095,-1.9095,-1.9332,-1.9708,-1.9708,-1.9708,-1.9708,-1.9708,-1.9708,-1.9708,-1.9708,-1.9708,-1.9564,-1.8758,-1.8404,-1.8039,-1.6711,-1.5766,-1.5223,-1.5572,-1.5241,-1.4697,-1.4529,-1.4691,-1.4824,-1.456,-1.4691,-1.484,-1.4671,-1.4737,-1.4856,-1.4996,-1.4961,-1.4782,-1.4523,-1.4188,-1.3689,-1.2874,-1.2832,-1.2764,-1.2408,-1.2676,0.0,0.0,-1.3529,-1.3862,-1.4003,-1.3886,-1.3792,0.0,0.0,0.0,0.0,-1.2905,-1.2905,-1.2905,-1.2905,-1.2905,-1.2905,-1.2549,-1.1969,-1.1221,-1.1006,-1.0684,-1.0303,-1.0166,-0.9597,-0.8695,-0.8561,-0.7931,-0.7,-0.7,-0.7,-0.7,-0.7,-0.7,-0.7,-0.7,-0.7,-0.7,-1.8106,-1.7666,-1.7204,-1.689,-1.6107,-1.5399,-1.5091,-1.4915,-1.483,-1.483,-1.547,-1.5891,-1.5769,-1.6183,-1.6633,-1.6999,-1.7884,-1.8763,-1.9516,-1.9351,-1.9272,-1.9336,-1.9332,-1.8968,-1.8204,-1.8185,-1.7907,-1.7374,-1.7076,-1.7076,-1.7374,-1.7626,-1.7727,-1.7747,-1.7987,-1.8263,-1.8535,-1.8535,-1.8688,-1.8968,-1.8968,-1.9132,-1.9332,-1.9332,-1.9301,-1.9253,-1.932,-1.8986,-1.8417,-1.7917,-1.74,-1.681,-1.5645,-1.4761,-1.411,-1.4124,-1.4025,-1.3917,-1.3917,-1.4052,-1.423,-1.423,-1.423,-1.423,-1.423,-1.4374,-1.4501,-1.4501,-1.4358,-1.423,-1.4262,-1.377,-1.3238,-1.2821,-1.2832,-1.2725,-1.2272,-1.2607,0.0,-1.2905,-1.32,-1.3396,-1.3396,-1.3396,-1.3266,-1.2914,0.0,0.0,-1.2393,-1.2393,-1.2559,-1.2881,-1.2686,-1.2588,-1.2588,-1.1921,-1.1365,-1.0908,-1.0713,-1.0508,-1.0303,-1.004,-0.9478,-0.8683,-0.8439,-0.7835,-0.7,-0.7,-0.7,-0.7,-0.7,-0.7,-0.7,-0.7,-0.7,-0.7,-1.7867,-1.7366,-1.6756,-1.6195,-1.5575,-1.4963,-1.4392,-1.4358,-1.4406,-1.4406,-1.5264,-1.5646,-1.507,-1.5825,-1.6363,-1.6363,-1.6668,-1.7364,-1.8495,-1.8567,-1.8638,-1.8755,-1.8779,-1.8322,-1.7333,-1.7209,-1.6909,-1.6358,-1.6358,-1.6358,-1.638,-1.6833,-1.7092,-1.7188,-1.7666,-1.7907,-1.7973,-1.7877,-1.7909,-1.7987,-1.7987,-1.8259,-1.8655,-1.8655,-1.8582,-1.8505,-1.8534,-1.7878,-1.701,-1.6926,-1.6313,-1.545,-1.4761,-1.3921,-1.3079,-1.2639,-1.272,-1.2995,-1.2995,-1.328,-1.3589,-1.3589,-1.3589,-1.3589,-1.3589,-1.3858,-1.409,-1.409,-1.3874,-1.3809,-1.4269,-1.3611,-1.3006,-1.3065,-1.2964,-1.2725,-1.2272,0.0,-1.2905,-1.2905,-1.2905,-1.2905,-1.2905,-1.2798,-1.2476,-1.1839,-1.1715,-1.1664,0.0,-1.1699,-1.2018,-1.2686,-1.2383,-1.2099,-1.1895,-1.1151,-1.0746,-1.0688,-1.041,-1.0303,-1.0283,-0.9745,-0.9199,-0.8675,-0.8139,-0.7551,-0.7,-0.7,-0.7026,-0.7066,-0.7066,-0.7093,-0.714,-0.714,-0.714,-0.714,-1.6752,-1.5944,-1.5242,-1.5146,-1.4259,-1.3514,-1.3421,-1.3735,-1.4,-1.4,-1.444,-1.4723,-1.461,-1.4742,-1.4845,-1.4845,-1.4908,-1.5803,-1.7895,-1.8028,-1.807,-1.8216,-1.8224,-1.7927,-1.7312,-1.6858,-1.6333,-1.5754,-1.5754,-1.5754,-1.5754,-1.5818,-1.6148,-1.6637,-1.671,-1.6993,-1.7395,-1.6943,-1.7022,-1.7422,-1.7422,-1.7478,-1.7553,-1.7553,-1.7553,-1.7468,-1.7028,-1.6747,-1.6453,-1.5513,-1.5079,-1.4783,-1.3766,-1.3083,-1.2603,-1.2532,-1.2264,-1.2011,-1.2011,-1.2072,-1.2126,-1.2126,-1.2126,-1.2126,-1.2126,-1.2169,-1.2223,-1.2223,-1.2431,-1.2659,-1.2728,-1.2899,-1.2889,-1.2489,-1.2701,-1.2725,-1.2272,0.0,-1.2905,-1.2905,-1.2905,-1.2905,-1.2905,-1.2344,-1.1922,-1.1814,-1.1291,-1.1054,-1.1274,-1.1304,-1.144,-1.18,-1.207,-1.164,-1.0426,-1.0297,-1.0038,-0.9729,-1.0107,-1.0303,-1.0283,-0.9745,-0.9199,-0.8675,-0.8139,-0.7551,-0.7,-0.7,-0.7168,-0.7417,-0.7417,-0.7555,-0.7766,-0.7766,-0.7766,-0.7766,-1.6132,-1.5449,-1.4815,-1.4513,-1.3772,-1.3198,-1.3198,-1.3374,-1.3514,-1.3514,-1.3901,-1.4181,-1.4181,-1.4374,-1.4501,-1.4501,-1.4501,-1.4982,-1.6105,-1.6711,-1.7098,-1.7226,-1.7511,-1.7435,-1.6879,-1.6312,-1.5886,-1.561,-1.5276,-1.513,-1.513,-1.513,-1.5265,-1.5522,-1.5522,-1.5676,-1.5857,-1.5398,-1.5508,-1.5934,-1.5672,-1.5921,-1.6435,-1.6435,-1.6377,-1.6312,-1.614,-1.5655,-1.5039,-1.4585,-1.4209,-1.3809,-1.3069,-1.2508,-1.2066,-1.1781,-1.1744,-1.1726,-1.1398,-1.1538,-1.1726,-1.1398,-1.1568,-1.1792,-1.1792,-1.1792,-1.1792,-1.1792,-1.2117,-1.2491,-1.2778,-1.2711,-1.2653,-1.2707,-1.2604,0.0,0.0,-1.2268,-1.232,-1.232,-1.232,-1.232,-1.232,-1.1996,-1.1576,-1.108,-1.0434,-1.001,-0.9966,-1.0244,-1.0626,-1.1158,-1.1107,-1.0797,-1.0205,-0.9912,-0.9841,-0.9942,-0.9883,-0.9863,-0.9843,-0.9019,-0.85,-0.8242,-0.7859,-0.7432,-0.7013,-0.7194,-0.7363,-0.7513,-0.7513,-0.7655,-0.7905,-0.7905,-0.7905,-0.7905,-1.5948,-1.5249,-1.4579,-1.4169,-1.3421,-1.2873,-1.2873,-1.2873,-1.2873,-1.2873,-1.3195,-1.3408,-1.3408,-1.3696,-1.3865,-1.3865,-1.3865,-1.3913,-1.4021,-1.4904,-1.5694,-1.6277,-1.6825,-1.6909,-1.6522,-1.5908,-1.5543,-1.5387,-1.4789,-1.4491,-1.4491,-1.4491,-1.456,-1.4698,-1.4698,-1.4642,-1.453,-1.408,-1.4044,-1.4261,-1.3898,-1.4307,-1.5133,-1.5021,-1.5046,-1.5165,-1.5015,-1.4428,-1.3747,-1.3869,-1.3584,-1.3129,-1.265,-1.2174,-1.17,-1.1169,-1.1132,-1.1129,-1.0559,-1.0826,-1.1111,-1.054,-1.0826,-1.1234,-1.1111,-1.1073,-1.1073,-1.1073,-1.1501,-1.2029,-1.254,-1.2435,-1.2446,-1.2967,0.0,0.0,0.0,-1.2041,-1.1789,-1.1789,-1.1789,-1.1704,-1.1492,-1.1483,-1.108,-1.0114,-0.9434,-0.9026,-0.8944,-0.9217,-0.9717,-1.0476,-1.0237,-1.004,-0.9922,-0.9518,-0.9518,-0.9922,-0.9518,-0.9343,-0.9362,-0.8356,-0.7974,-0.8067,-0.7667,-0.7357,-0.7148,-0.7471,-0.7598,-0.7605,-0.7672,-0.7862,-0.8112,-0.8112,-0.8112,-0.8112,-1.6352,-1.5221,-1.4145,-1.4109,-1.2887,-1.1902,-1.1902,-1.1902,-1.1902,-1.1902,-1.1938,-1.1945,-1.1945,-1.1982,-1.2,-1.2,-1.2,-1.1993,-1.202,-1.2544,-1.3729,-1.5683,-1.6283,-1.6531,-1.65,-1.5908,-1.532,-1.4766,-1.4167,-1.3873,-1.3873,-1.3873,-1.4167,-1.4698,-1.4698,-1.4496,-1.4123,-1.352,-1.3069,-1.2751,-1.2726,-1.3023,-1.3423,-1.2985,-1.3399,-1.4064,-1.3088,-1.2969,-1.325,-1.3265,-1.3235,-1.3129,-1.265,-1.2174,-1.17,-1.1169,-1.036,-0.9558,-0.901,-0.925,-0.9529,-0.899,-0.927,-0.9529,-0.905,-0.893,-0.893,-0.893,-0.9641,-1.0407,-1.0888,-1.1659,-1.2361,-1.2826,0.0,0.0,-1.2856,-1.2242,-1.1789,-1.1789,-1.1789,-1.1449,-1.0592,-1.0486,-1.0082,-0.9081,-0.8393,-0.8329,-0.9052,-0.865,-0.8762,-0.9578,-0.9926,-0.9689,-0.8825,-0.8777,-0.8777,-0.8817,-0.8777,-0.889,-0.9098,-0.8278,-0.8178,-0.8591,-0.7824,-0.7477,-0.7477,-0.7769,-0.7872,-0.7899,-0.8221,-0.8484,-0.8744,-0.8744,-0.8744,-0.8744,-1.4524,-1.3955,-1.3371,-1.2789,-1.2188,-1.1792,-1.1792,-1.1792,-1.1792,-1.1792,-1.1792,-1.1792,-1.1792,-1.1792,-1.1792,-1.1792,-1.1792,-1.1792,-1.1792,-1.199,-1.288,-1.4632,-1.5141,-1.5389,-1.5389,-1.4801,-1.4365,-1.4143,-1.3539,-1.3238,-1.3238,-1.3238,-1.3206,-1.315,-1.3462,-1.3196,-1.2526,-1.2306,-1.2131,-1.2029,-1.1726,-1.1911,-1.2353,-1.2166,-1.2334,-1.2624,-1.2207,-1.2174,-1.2383,-1.2668,-1.2768,-1.2685,-1.221,-1.1938,-1.1505,-1.0021,-0.931,-0.8809,-0.7889,-0.83,-0.8878,-0.8337,-0.8602,-0.8958,-0.8736,-0.8695,-0.8695,-0.8695,-0.9194,-0.9654,-0.9844,-1.0145,-1.0651,-1.1472,0.0,-1.1088,-1.1537,-1.0857,-1.023,-1.0034,-1.0002,-0.9858,-0.9494,-0.9463,-0.9391,-0.9177,-0.8513,-0.8202,-0.834,-0.8711,-0.921,-0.986,-1.0337,-1.0143,-0.9208,-0.8857,-0.8695,-0.8695,-0.8357,-0.8351,-0.859,-0.7939,-0.7866,-0.8207,-0.8092,-0.7946,-0.7776,-0.8083,-0.8203,-0.8216,-0.8355,-0.855,-0.8804,-0.8804,-0.8804,-0.8804,-1.3601,-1.3206,-1.2749,-1.1965,-1.1558,-1.133,-1.133,-1.133,-1.133,-1.133,-1.133,-1.133,-1.133,-1.133,-1.133,-1.133,-1.133,-1.133,-1.133,-1.144,-1.221,-1.3754,-1.4384,-1.4698,-1.4698,-1.412,-1.3792,-1.3792,-1.32,-1.2812,-1.2676,-1.2676,-1.2441,-1.2031,-1.2357,-1.2074,-1.1379,-1.1379,-1.1333,-1.1224,-1.0906,-1.1094,-1.1523,-1.1386,-1.1534,-1.1774,-1.1608,-1.1664,-1.1847,-1.2174,-1.2282,-1.2192,-1.1689,-1.146,-1.1019,-0.943,-0.8837,-0.8492,-0.7544,-0.771,-0.8075,-0.7718,-0.8028,-0.839,-0.8206,-0.8157,-0.8157,-0.8157,-0.8532,-0.8909,-0.9015,-0.919,-0.9567,-1.0388,-1.008,-0.9945,-1.0449,-0.9776,-0.916,-0.8934,-0.8904,-0.879,-0.8486,-0.8655,-0.8723,-0.8594,-0.8149,-0.7802,-0.7628,-0.8718,-0.9511,-0.9844,-1.0259,-1.0175,-0.957,-0.9064,-0.8828,-0.8828,-0.8189,-0.8047,-0.8304,-0.7839,-0.7829,-0.8185,-0.8323,-0.8257,-0.8096,-0.839,-0.8482,-0.8409,-0.8502,-0.8631,-0.8804,-0.8804,-0.8751,-0.8671,-1.4038,-1.3216,-1.2362,-1.1967,-1.1012,-1.0303,-1.0303,-1.0303,-1.0303,-1.0303,-1.0303,-1.0303,-1.0303,-1.0303,-1.0303,-1.0303,-1.0303,-1.0303,-1.0303,-1.0674,-1.1583,-1.3114,-1.4149,-1.4675,-1.4664,-1.4097,-1.3792,-1.3792,-1.319,-1.2656,-1.2203,-1.2203,-1.1982,-1.1596,-1.1606,-1.134,-1.0908,-1.0908,-1.0664,-1.0303,-1.0303,-1.0572,-1.0943,-1.0486,-1.0916,-1.1719,-1.1188,-1.1338,-1.1792,-1.1792,-1.1792,-1.17,-1.1169,-1.0687,-1.0196,-0.9657,-0.911,-0.8574,-0.8028,-0.7447,-0.7,-0.7,-0.7447,-0.7746,-0.7126,-0.7,-0.7,-0.7,-0.7468,-0.8017,-0.842,-0.8931,-0.9406,-0.9832,-0.9891,-0.9891,-0.9891,-0.9305,-0.8897,-0.8874,-0.8897,-0.8516,-0.7578,-0.8106,-0.8077,-0.709,-0.7,-0.7,-0.7021,-0.8586,-0.9444,-0.9311,-0.943,-0.9567,-0.9709,-0.9297,-0.9082,-0.909,-0.8279,-0.8083,-0.8389,-0.807,-0.8225,-0.8791,-0.8529,-0.8402,-0.8422,-0.8691,-0.8637,-0.8435,-0.8697,-0.8804,-0.8804,-0.8778,-0.8624,-0.8402,-1.2442,-1.2099,-1.1648,-1.0914,-1.0498,-1.0303,-1.0303,-1.0303,-1.0303,-1.0303,-1.0303,-1.0303,-1.0303,-1.0303,-1.0303,-1.0303,-1.0303,-1.0303,-1.0303,-1.0674,-1.1102,-1.1583,-1.246,-1.2797,-1.2537,-1.294,-1.3026,-1.2682,-1.2516,-1.234,-1.2203,-1.1904,-1.1545,-1.1113,-1.1447,-1.1173,-1.0508,-1.0781,-1.0664,-1.0303,-1.0303,-1.037,-1.0486,-1.0351,-1.0496,-1.0725,-1.0582,-1.0621,-1.0761,-1.0797,-1.1013,-1.1207,-1.1057,-1.0445,-0.9657,-0.8826,-0.8412,-0.8023,-0.7221,-0.699,-0.7,-0.7,-0.7126,-0.7217,-0.7042,-0.7,-0.7,-0.7,-0.7147,-0.7307,-0.7433,-0.7574,-0.7858,-0.841,-0.8341,-0.8268,-0.8464,-0.8173,-0.783,-0.7585,-0.7564,-0.7465,-0.7182,-0.7326,-0.7497,-0.7621,-0.7642,-0.7876,-0.8435,-0.8849,-0.9344,-0.9908,-0.9971,-0.9896,-0.9694,-0.8929,-0.8446,-0.8247,-0.8024,-0.8083,-0.8395,-0.8308,-0.845,-0.8804,-0.8717,-0.8677,-0.8684,-0.8771,-0.8758,-0.8632,-0.8204,-0.8342,-0.8672,-0.7544,-0.7662,-0.8318,-1.1173,-1.0939,-1.0627,-0.9944,-0.9747,-0.9666,-0.9666,-0.9666,-0.9666,-0.9666,-0.9863,-0.9902,-0.9696,-1.004,-1.0215,-1.0,-1.0186,-1.0303,-1.0303,-1.0518,-1.0654,-1.0654,-1.1113,-1.143,-1.1606,-1.2256,-1.2467,-1.2203,-1.2051,-1.1963,-1.1953,-1.1514,-1.1095,-1.0674,-1.0958,-1.0782,-1.0322,-1.0557,-1.0518,-1.0303,-1.0303,-1.0176,-0.9981,-0.9981,-0.9863,-0.9666,-0.9666,-0.9575,-0.9477,-0.9513,-0.9723,-0.9966,-0.9966,-0.957,-0.8983,-0.8193,-0.7786,-0.7454,-0.6788,-0.6633,-0.6734,-0.6946,-0.7,-0.7,-0.7,-0.7,-0.7,-0.7,-0.7,-0.7,-0.7,-0.7,-0.7126,-0.7489,-0.741,-0.7358,-0.7517,-0.7396,-0.7268,-0.7201,-0.7194,-0.7194,-0.7194,-0.7194,-0.7297,-0.7517,-0.7673,-0.7946,-0.8436,-0.8701,-0.9149,-0.9874,-0.9699,-0.9589,-0.9588,-0.8749,-0.8301,-0.823,-0.8236,-0.837,-0.8569,-0.8569,-0.8644,-0.8804,-0.8804,-0.8646,-0.8374,-0.8374,-0.8182,-0.7883,-0.745,-0.753,-0.7812,-0.6834,-0.6894,-0.7369,-1.0278,-0.9917,-0.9579,-0.9161,-0.8873,-0.8695,-0.8695,-0.8695,-0.8695,-0.8695,-0.9119,-0.9239,-0.8756,-0.9578,-0.9961,-0.9478,-0.9883,-1.0157,-1.0157,-1.0157,-1.0157,-1.0157,-1.0074,-1.0444,-1.1327,-1.1863,-1.2095,-1.2018,-1.1738,-1.1587,-1.1538,-1.1055,-1.0645,-1.0303,-1.0303,-1.0283,-1.0225,-1.0225,-1.0205,-1.0157,-1.0157,-0.9863,-0.9419,-0.9419,-0.9119,-0.8695,-0.8695,-0.8484,-0.8198,-0.8173,-0.8225,-0.8286,-0.834,-0.8314,-0.8174,-0.765,-0.7235,-0.6884,-0.6587,-0.6358,-0.6324,-0.6814,-0.6946,-0.6966,-0.6993,-0.7,-0.7,-0.7,-0.7,-0.7,-0.7,-0.7,-0.7,-0.7,-0.7,-0.7013,-0.704,-0.704,-0.7174,-0.7497,-0.7531,-0.7508,-0.7434,-0.7369,-0.7216,-0.6975,-0.7242,-0.7466,-0.7571,-0.8284,-0.887,-0.9341,-0.8945,-0.8892,-0.9311,-0.8741,-0.8528,-0.8683,-0.876,-0.8804,-0.8804,-0.8804,-0.8804,-0.8804,-0.8725,-0.8321,-0.7696,-0.7643,-0.7208,-0.6588,-0.6529,-0.6546,-0.6558,-0.6431,-0.6211,-0.5969,-1.0278,-0.9917,-0.9579,-0.9161,-0.8873,-0.8695,-0.8695,-0.8695,-0.8695,-0.8695,-0.8797,-0.8817,-0.8716,-0.8898,-0.8999,-0.8878,-0.8978,-0.9039,-0.9039,-0.9039,-0.9039,-0.9039,-0.9329,-0.9431,-0.933,-1.0799,-1.1246,-1.0563,-1.1262,-1.1408,-1.1035,-1.0635,-1.0391,-1.0303,-1.0303,-1.0059,-0.9677,-0.9677,-0.9439,-0.9039,-0.9039,-0.8978,-0.8878,-0.8878,-0.8797,-0.8695,-0.8695,-0.8484,-0.8165,-0.7954,-0.7671,-0.7449,-0.7818,-0.768,-0.729,-0.6863,-0.6609,-0.6368,-0.6002,-0.6043,-0.6223,-0.635,-0.6533,-0.6747,-0.6953,-0.7,-0.7,-0.7,-0.7,-0.7,-0.7,-0.7,-0.7,-0.7,-0.7,-0.708,-0.7357,-0.739,-0.7504,-0.7772,-0.7806,-0.7581,-0.7014,-0.6342,-0.6146,-0.6657,-0.6756,-0.7207,-0.8156,-0.836,-0.8605,-0.8932,-0.8825,-0.8735,-0.862,-0.8674,-0.8641,-0.8475,-0.8682,-0.8804,-0.8804,-0.8804,-0.8804,-0.8778,-0.8182,-0.7857,-0.767,-0.7074,-0.675,-0.6534,-0.5955,-0.602,-0.6277,-0.5021,-0.5069,-0.5659,-0.9542,-0.9298,-0.9021,-0.8803,-0.8506,-0.8281,-0.8152,-0.813,-0.807,-0.7912,-0.8144,-0.8214,-0.791,-0.8362,-0.8695,-0.8695,-0.8695,-0.8695,-0.8695,-0.8695,-0.8695,-0.8695,-0.8649,-0.854,-0.8324,-0.9437,-0.9918,-0.9717,-1.0062,-1.0188,-1.014,-0.9719,-0.9538,-0.9538,-0.9538,-0.9379,-0.9119,-0.9119,-0.8958,-0.8695,-0.8695,-0.8541,-0.8316,-0.8316,-0.8064,-0.7696,-0.7696,-0.7406,-0.6972,-0.6706,-0.6566,-0.6578,-0.6811,-0.6722,-0.6482,-0.6274,-0.603,-0.5805,-0.5722,-0.5742,-0.5873,-0.6297,-0.6392,-0.6479,-0.6747,-0.69,-0.7,-0.7,-0.7,-0.7,-0.7,-0.6789,-0.6619,-0.6619,-0.6424,-0.6462,-0.6994,-0.6844,-0.6931,-0.7529,-0.7308,-0.6946,-0.6539,-0.5849,-0.5639,-0.6177,-0.6274,-0.6625,-0.7306,-0.7794,-0.8118,-0.8262,-0.8619,-0.8664,-0.8402,-0.8664,-0.8502,-0.7885,-0.8136,-0.8103,-0.775,-0.775,-0.775,-0.7723,-0.7343,-0.6988,-0.6632,-0.6226,-0.5878,-0.5546,-0.5077,-0.507,-0.5229,-0.4321,-0.4329,-0.4711,-0.8521,-0.8486,-0.8402,-0.8402,-0.813,-0.7806,-0.7538,-0.7513,-0.7383,-0.704,-0.7447,-0.7551,-0.7063,-0.7848,-0.8411,-0.8411,-0.8411,-0.8411,-0.8411,-0.8411,-0.8411,-0.8411,-0.7987,-0.7746,-0.7746,-0.8068,-0.8519,-0.9057,-0.8882,-0.8931,-0.9198,-0.8857,-0.8695,-0.8695,-0.8695,-0.8643,-0.8561,-0.8561,-0.8492,-0.8411,-0.8411,-0.8082,-0.7621,-0.7621,-0.71,-0.638,-0.638,-0.5996,-0.5467,-0.518,-0.5295,-0.5571,-0.5571,-0.5618,-0.568,-0.568,-0.5507,-0.5353,-0.5571,-0.5464,-0.5481,-0.6246,-0.6278,-0.6172,-0.6396,-0.6671,-0.6852,-0.6852,-0.6789,-0.6704,-0.6704,-0.6343,-0.605,-0.605,-0.5746,-0.5726,-0.6413,-0.6123,-0.6206,-0.7064,-0.6535,-0.6076,-0.6037,-0.5491,-0.5287,-0.5677,-0.5809,-0.6002,-0.6262,-0.7067,-0.7563,-0.7696,-0.8182,-0.8371,-0.8292,-0.8365,-0.7933,-0.6989,-0.7216,-0.7069,-0.6588,-0.6588,-0.6588,-0.6588,-0.6475,-0.6064,-0.5487,-0.5378,-0.4988,-0.444,-0.4267,-0.4164,-0.4126,-0.3974,-0.3866,-0.3737,-0.7657,-0.8056,-0.8402,-0.8402,-0.813,-0.7806,-0.7538,-0.7513,-0.7383,-0.704,-0.7063,-0.7084,-0.7,-0.7147,-0.7231,-0.7231,-0.7231,-0.7231,-0.7231,-0.7231,-0.7231,-0.7231,-0.7168,-0.7126,-0.7126,-0.7167,-0.749,-0.8084,-0.8845,-0.9069,-0.877,-0.872,-0.8695,-0.8695,-0.8695,-0.8439,-0.8015,-0.8015,-0.7697,-0.7231,-0.7231,-0.6915,-0.6435,-0.6435,-0.6043,-0.5471,-0.5471,-0.5151,-0.4695,-0.4309,-0.4215,-0.4264,-0.4264,-0.4505,-0.4772,-0.4772,-0.5017,-0.5306,-0.534,-0.5327,-0.5387,-0.5738,-0.5798,-0.577,-0.5817,-0.6073,-0.6307,-0.6307,-0.5889,-0.554,-0.554,-0.5475,-0.5416,-0.5416,-0.5472,-0.5642,-0.6024,-0.6112,-0.6282,-0.6652,-0.6049,-0.5548,-0.5418,-0.4775,-0.4628,-0.5311,-0.5392,-0.5736,-0.6501,-0.6676,-0.7047,-0.767,-0.7182,-0.7192,-0.7782,-0.7192,-0.6514,-0.5747,-0.5774,-0.6091,-0.6588,-0.6588,-0.6588,-0.6561,-0.5923,-0.5597,-0.546,-0.4869,-0.447,-0.4247,-0.4204,-0.4062,-0.3836,-0.3693,-0.3648,-0.3628,-0.697,-0.7146,-0.7285,-0.7285,-0.7166,-0.7102,-0.7265,-0.7192,-0.7155,-0.7264,-0.6849,-0.6562,-0.6562,-0.6252,-0.6054,-0.6054,-0.6054,-0.6054,-0.6054,-0.6054,-0.6054,-0.6054,-0.6054,-0.6054,-0.6054,-0.6054,-0.6182,-0.6437,-0.7198,-0.7298,-0.6799,-0.6799,-0.6799,-0.6799,-0.6799,-0.6658,-0.6437,-0.6437,-0.6289,-0.6054,-0.6054,-0.591,-0.5696,-0.5696,-0.5445,-0.5043,-0.4857,-0.467,-0.444,-0.4202,-0.4119,-0.4094,-0.4029,-0.4123,-0.4264,-0.4264,-0.457,-0.4906,-0.4906,-0.5103,-0.5367,-0.5638,-0.5694,-0.5707,-0.5693,-0.5594,-0.5517,-0.5674,-0.548,-0.5303,-0.5303,-0.5022,-0.4841,-0.4938,-0.4798,-0.4893,-0.5531,-0.5414,-0.5296,-0.5406,-0.5031,-0.4797,-0.4843,-0.4398,-0.4292,-0.4804,-0.4737,-0.4915,-0.541,-0.5792,-0.6145,-0.6465,-0.6556,-0.675,-0.7074,-0.675,-0.6231,-0.5515,-0.5515,-0.5464,-0.5418,-0.5418,-0.5418,-0.5418,-0.5085,-0.4948,-0.4913,-0.4507,-0.4277,-0.4177,-0.4035,-0.3863,-0.3689,-0.3624,-0.3604,-0.3604]},{"header":{"parameterUnit":"m.s-1","parameterCategory":1,"la1":30.6,"la2":28.766,"lo1":-90.7593,"lo2":-88.6598,"dy":0.0162,"dx":0.0183,"nx":116,"ny":114,"refTime":"2023-10-21T18:00:00:Z","depth":0,"parameterNumber":3,"parameterNumberName":"V-component_of_WINDS"},"data":[0.0,0.0,0.0,0.0,0.0,0.0,0.0,0.0,0.0,0.0,0.0,0.0,0.0,0.0,0.0,0.0,0.0,0.0,0.0,0.0,0.0,0.0,0.0,0.0,0.0,0.0,0.0,0.0,0.0,0.0,0.0,0.0,0.0,0.0,0.0,0.0,0.0,0.0,0.0,0.0,0.0,0.0,0.0,0.0,0.0,0.0,0.0,0.0,0.0,0.0,0.0,0.0,0.0,0.0,0.0,0.0,0.0,0.0,0.0,0.0,0.0,0.0,0.0,0.0,0.0,0.0,0.0,0.0,0.0,0.0,0.0,0.0,0.0,0.0,0.0,0.0,0.0,0.0,0.0,0.0,0.0,0.0,0.0,0.0,0.0,0.0,0.0,0.0,0.0,0.0,0.0,0.0,0.0,0.0,0.0,0.0,0.0,0.0,0.0,0.0,0.0,0.0,0.0,0.0,0.0,0.0,0.0,0.0,0.0,0.0,0.0,0.0,0.0,0.0,0.0,0.0,0.0,0.0,0.0,0.0,0.0,0.0,0.0,0.0,0.0,0.0,0.0,0.0,0.0,0.0,0.0,0.0,0.0,0.0,0.0,0.0,0.0,0.0,0.0,0.0,0.0,0.0,0.0,0.0,0.0,0.0,0.0,0.0,0.0,0.0,0.0,0.0,0.0,0.0,0.0,0.0,0.0,0.0,0.0,0.0,0.0,0.0,0.0,0.0,0.0,0.0,0.0,0.0,0.0,0.0,0.0,0.0,0.0,0.0,0.0,0.0,0.0,0.0,0.0,0.0,0.0,0.0,0.0,0.0,0.0,0.0,0.0,0.0,0.0,0.0,0.0,0.0,0.0,0.0,0.0,0.0,0.0,0.0,0.0,0.0,0.0,0.0,0.0,0.0,0.0,0.0,0.0,0.0,0.0,0.0,0.0,0.0,0.0,0.0,0.0,0.0,0.0,0.0,0.0,0.0,0.0,0.0,0.0,0.0,0.0,0.0,0.0,0.0,0.0,0.0,0.0,0.0,0.0,0.0,0.0,0.0,0.0,0.0,0.0,0.0,0.0,0.0,0.0,0.0,0.0,0.0,0.0,0.0,0.0,0.0,0.0,0.0,0.0,0.0,0.0,0.0,0.0,0.0,0.0,0.0,0.0,0.0,0.0,0.0,0.0,0.0,0.0,0.0,0.0,0.0,0.0,0.0,0.0,0.0,0.0,0.0,0.0,0.0,0.0,0.0,0.0,0.0,0.0,0.0,0.0,0.0,0.0,0.0,0.0,0.0,0.0,0.0,0.0,0.0,0.0,0.0,0.0,0.0,0.0,0.0,0.0,0.0,0.0,0.0,0.0,0.0,0.0,0.0,0.0,0.0,0.0,0.0,0.0,0.0,0.0,0.0,0.0,0.0,0.0,0.0,0.0,0.0,0.0,0.0,0.0,0.0,0.0,0.0,0.0,0.0,0.0,0.0,0.0,0.0,0.0,0.0,0.0,0.0,0.0,0.0,0.0,0.0,0.0,0.0,0.0,0.0,0.0,0.0,0.0,0.0,0.0,0.0,0.0,0.0,0.0,0.0,0.0,0.0,0.0,0.0,0.0,0.0,0.0,0.0,0.0,0.0,0.0,0.0,0.0,0.0,0.0,0.0,0.0,0.0,0.0,0.0,0.0,0.0,0.0,0.0,0.0,0.0,0.0,0.0,0.0,0.0,0.0,0.0,0.0,0.0,0.0,0.0,0.0,0.0,0.0,0.0,0.0,0.0,0.0,0.0,0.0,0.0,0.0,0.0,0.0,0.0,0.0,0.0,0.0,0.0,0.0,0.0,0.0,0.0,0.0,0.0,0.0,0.0,0.0,0.0,0.0,0.0,0.0,0.0,0.0,0.0,0.0,0.0,0.0,0.0,0.0,0.0,0.0,0.0,0.0,0.0,0.0,0.0,0.0,0.0,0.0,0.0,0.0,0.0,0.0,0.0,0.0,0.0,0.0,0.0,0.0,0.0,0.0,0.0,0.0,0.0,0.0,0.0,0.0,0.0,0.0,0.0,0.0,0.0,0.0,0.0,0.0,0.0,0.0,0.0,0.0,0.0,0.0,0.0,0.0,0.0,0.0,0.0,0.0,0.0,0.0,0.0,0.0,0.0,0.0,0.0,0.0,0.0,0.0,0.0,0.0,0.0,0.0,0.0,0.0,0.0,0.0,0.0,0.0,0.0,0.0,0.0,0.0,0.0,0.0,0.0,0.0,0.0,0.0,0.0,0.0,0.0,0.0,0.0,0.0,0.0,0.0,0.0,0.0,0.0,0.0,0.0,0.0,0.0,0.0,0.0,0.0,0.0,0.0,0.0,0.0,0.0,0.0,0.0,0.0,0.0,0.0,0.0,0.0,0.0,0.0,0.0,0.0,0.0,0.0,0.0,0.0,0.0,0.0,0.0,0.0,0.0,0.0,0.0,0.0,0.0,0.0,0.0,0.0,0.0,0.0,0.0,0.0,0.0,0.0,0.0,0.0,0.0,0.0,0.0,0.0,0.0,0.0,0.0,0.0,0.0,0.0,0.0,0.0,0.0,0.0,0.0,0.0,0.0,0.0,0.0,0.0,0.0,0.0,0.0,0.0,0.0,0.0,0.0,0.0,0.0,0.0,0.0,0.0,0.0,0.0,0.0,0.0,0.0,0.0,0.0,0.0,0.0,0.0,0.0,0.0,0.0,0.0,0.0,0.0,0.0,0.0,0.0,0.0,0.0,0.0,0.0,0.0,0.0,0.0,0.0,0.0,0.0,0.0,0.0,0.0,0.0,0.0,0.0,0.0,0.0,0.0,0.0,0.0,0.0,0.0,0.0,0.0,0.0,0.0,0.0,0.0,0.0,0.0,0.0,0.0,0.0,0.0,0.0,0.0,0.0,0.0,0.0,0.0,0.0,0.0,0.0,0.0,0.0,0.0,0.0,0.0,0.0,0.0,0.0,0.0,0.0,0.0,0.0,0.0,0.0,0.0,0.0,0.0,0.0,0.0,0.0,0.0,0.0,0.0,0.0,0.0,0.0,0.0,0.0,0.0,0.0,0.0,0.0,0.0,0.0,0.0,0.0,0.0,0.0,0.0,0.0,0.0,0.0,0.0,0.0,0.0,0.0,0.0,0.0,0.0,0.0,0.0,0.0,0.0,0.0,0.0,0.0,0.0,0.0,0.0,0.0,0.0,0.0,0.0,0.0,0.0,0.0,0.0,0.0,0.0,0.0,0.0,0.0,0.0,0.0,0.0,0.0,0.0,0.0,0.0,0.0,0.0,0.0,0.0,0.0,0.0,0.0,0.0,0.0,0.0,0.0,0.0,0.0,0.0,0.0,0.0,0.0,0.0,0.0,0.0,0.0,0.0,0.0,0.0,0.0,0.0,0.0,0.0,0.0,0.0,0.0,0.0,0.0,0.0,0.0,0.0,0.0,0.0,0.0,0.0,0.0,0.0,0.0,0.0,0.0,0.0,0.0,0.0,0.0,0.0,0.0,0.0,0.0,0.0,0.0,0.0,0.0,0.0,0.0,0.0,0.0,0.0,0.0,0.0,0.0,0.0,0.0,0.0,0.0,0.0,0.0,0.0,0.0,0.0,0.0,0.0,0.0,0.0,0.0,0.0,0.0,0.0,0.0,0.0,0.0,0.0,0.0,0.0,0.0,0.0,0.0,0.0,0.0,0.0,0.0,0.0,0.0,0.0,0.0,0.0,0.0,0.0,0.0,0.0,0.0,0.0,0.0,0.0,0.0,0.0,0.0,0.0,0.0,0.0,0.0,0.0,0.0,0.0,0.0,0.0,0.0,0.0,0.0,0.0,0.0,0.0,0.0,0.0,0.0,0.0,0.0,0.0,0.0,0.0,0.0,0.0,0.0,0.0,0.0,0.0,0.0,0.0,0.0,0.0,0.0,0.0,0.0,0.0,0.0,0.0,0.0,0.0,0.0,0.0,0.0,0.0,0.0,0.0,0.0,0.0,0.0,0.0,0.0,0.0,0.0,0.0,0.0,0.0,0.0,0.0,0.0,0.0,0.0,0.0,0.0,0.0,0.0,0.0,0.0,0.0,0.0,0.0,0.0,0.0,0.0,0.0,0.0,0.0,0.0,0.0,0.0,0.0,0.0,0.0,0.0,0.0,0.0,0.0,0.0,0.0,0.0,0.0,0.0,0.0,0.0,0.0,0.0,0.0,0.0,0.0,0.0,0.0,0.0,0.0,0.0,0.0,0.0,0.0,0.0,0.0,0.0,0.0,0.0,0.0,0.0,0.0,0.0,0.0,0.0,0.0,0.0,0.0,0.0,0.0,0.0,0.0,0.0,0.0,0.0,0.0,0.0,0.0,0.0,0.0,0.0,0.0,0.0,0.0,0.0,0.0,0.0,0.0,0.0,0.0,0.0,0.0,0.0,0.0,0.0,0.0,0.0,0.0,0.0,0.0,0.0,0.0,0.0,0.0,0.0,0.0,0.0,0.0,0.0,0.0,0.0,0.0,0.0,0.0,0.0,0.0,0.0,0.0,0.0,0.0,0.0,0.0,0.0,0.0,0.0,0.0,0.0,0.0,0.0,0.0,0.0,0.0,0.0,0.0,0.0,0.0,0.0,0.0,0.0,0.0,0.0,0.0,0.0,0.0,0.0,0.0,0.0,0.0,0.0,0.0,0.0,0.0,0.0,0.0,0.0,0.0,0.0,0.0,0.0,0.0,0.0,0.0,0.0,0.0,0.0,0.0,0.0,0.0,0.0,0.0,0.0,0.0,0.0,0.0,0.0,0.0,0.0,0.0,0.0,0.0,0.0,0.0,0.0,0.0,0.0,0.0,0.0,0.0,0.0,0.0,0.0,0.0,0.0,0.0,0.0,0.0,0.0,0.0,0.0,0.0,0.0,0.0,0.0,0.0,0.0,0.0,0.0,0.0,0.0,0.0,0.0,0.0,0.0,0.0,0.0,0.0,0.0,0.0,0.0,0.0,0.0,0.0,0.0,0.0,0.0,0.0,0.0,0.0,0.0,0.0,0.0,0.0,0.0,0.0,0.0,0.0,0.0,0.0,0.0,0.0,0.0,0.0,0.0,0.0,0.0,0.0,0.0,0.0,0.0,0.0,0.0,0.0,0.0,0.0,0.0,0.0,0.0,0.0,0.0,0.0,0.0,0.0,0.0,0.0,0.0,0.0,0.0,0.0,0.0,0.0,0.0,0.0,0.0,0.0,0.0,0.0,0.0,0.0,0.0,0.0,0.0,0.0,0.0,0.0,0.0,0.0,0.0,0.0,0.0,0.0,0.0,0.0,0.0,0.0,0.0,0.0,0.0,0.0,0.0,0.0,0.0,0.0,0.0,0.0,0.0,0.0,0.0,0.0,0.0,0.0,0.0,0.0,0.0,0.0,0.0,0.0,0.0,0.0,0.0,0.0,0.0,0.0,0.0,0.0,0.0,0.0,0.0,0.0,0.0,0.0,0.0,0.0,0.0,0.0,0.0,0.0,0.0,0.0,0.0,0.0,0.0,0.0,0.0,0.0,0.0,0.0,0.0,0.0,0.0,0.0,0.0,0.0,0.0,0.0,0.0,0.0,0.0,0.0,0.0,0.0,0.0,0.0,0.0,0.0,0.0,0.0,0.0,0.0,0.0,0.0,0.0,0.0,0.0,0.0,0.0,0.0,0.0,0.0,0.0,0.0,0.0,0.0,0.0,0.0,0.0,0.0,0.0,0.0,0.0,0.0,0.0,0.0,0.0,0.0,0.0,0.0,0.0,0.0,0.0,0.0,0.0,0.0,0.0,0.0,0.0,0.0,0.0,0.0,0.0,0.0,0.0,0.0,0.0,0.0,0.0,0.0,0.0,0.0,0.0,0.0,0.0,0.0,0.0,0.0,0.0,0.0,0.0,0.0,0.0,0.0,0.0,0.0,0.0,0.0,0.0,0.0,0.0,0.0,0.0,0.0,0.0,0.0,0.0,0.0,0.0,0.0,0.0,0.0,0.0,0.0,0.0,0.0,0.0,0.0,0.0,0.0,0.0,0.0,0.0,0.0,0.0,0.0,0.0,0.0,0.0,0.0,0.0,0.0,0.0,0.0,0.0,0.0,0.0,0.0,0.0,-0.1229,0.0,0.0,0.0,0.0,0.0,0.0,0.0,0.0,0.0,0.0,0.0,0.0,0.0,0.0,0.0,0.0,0.0,0.0,0.0,0.0,0.0,0.0,0.0,0.0,0.0,0.0,0.0,0.0,0.0,0.0,0.0,0.0,0.0,0.0,0.0,0.0,0.0,0.0,0.0,0.6706,0.5705,0.4765,0.3668,0.1624,-0.1169,0.0,0.0,0.0,0.0,0.0,0.0,0.0,0.0,0.0,0.0,0.0,0.0,0.0,0.0,0.0,0.0,0.0,0.0,0.0,0.0,0.0,0.0,0.0,0.0,0.0,0.0,0.0,0.0,0.0,0.0,0.0,0.0,0.0,0.0,0.0,0.0,0.0,0.0,0.0,0.0,0.0,0.0,0.0,0.0,0.0,0.0,0.0,0.0,0.0,0.0,0.0,0.0,0.0,0.0,0.0,0.0,0.0,0.0,0.0,0.0,0.0,0.0,0.0,0.0,0.0,0.0,0.0,0.0,0.0,0.0,0.0,-0.1572,0.0,0.0,0.0,0.0,0.0,0.0,0.0,0.0,0.0,0.0,0.0,0.0,0.0,0.0,0.0,0.0,0.0,0.0,0.0,0.0,0.0,0.0,0.0,0.0,0.0,0.0,0.0,0.0,0.0,0.0,0.0,0.0,0.0,0.0,0.0,0.0,0.0,0.0,0.725,0.5957,0.4267,0.4289,0.3023,0.0696,-0.0976,0.0,0.0,0.0,0.0,0.0,0.0,0.0,0.0,0.0,0.0,0.0,0.0,0.0,0.0,0.0,0.0,0.0,0.0,0.0,0.0,0.0,0.0,0.0,0.0,0.0,0.0,0.0,0.0,0.0,0.0,0.0,0.0,0.0,0.0,0.0,0.0,0.0,0.0,0.0,0.0,0.0,0.0,0.0,0.0,0.0,0.0,0.0,0.0,0.0,0.0,0.0,0.0,0.0,0.0,0.0,0.0,0.0,0.0,0.0,0.0,0.0,0.0,0.0,0.0,0.0,0.0,0.0,0.0,-0.0047,-0.0747,-0.1146,-0.143,0.0,0.0,0.0,0.0,0.0,0.0,0.0,0.0,0.0,0.0,0.0,0.0,0.0,0.0,0.0,0.0,0.0,0.0,0.0,0.0,0.0,0.0,0.0,0.0,0.0,0.0,0.0,0.0,0.0,0.0,0.0,0.0,0.0,0.0,1.0382,0.9794,0.8854,0.7256,0.6104,0.5395,0.4856,0.4364,0.3794,0.1221,-0.083,-0.2349,0.0,0.0,0.0,0.0,0.0,0.0,0.0,0.0,0.0,0.0,0.0,0.0,0.0,0.0,0.0,0.0,0.0,0.0,0.0,0.0,0.0,0.0,0.0,0.0,0.0,0.0,0.0,0.0,0.0,0.0,0.0,0.0,0.0,0.0,0.0,0.0,0.0,0.0,0.0,0.0,0.0,0.9879,0.7398,0.0,0.0,0.0,0.0,0.0,0.0,0.0,0.0,0.0,0.0,0.0,0.0,0.0,0.0,0.0,0.0,0.0,0.0,0.0,0.0,0.0,0.0,0.0,0.0,-0.0101,0.0,-0.1338,-0.1552,0.0,0.0,0.0,0.0,0.0,0.0,0.0,0.0,0.0,0.0,0.0,0.0,0.0,0.0,0.0,0.0,0.0,0.0,0.0,0.0,0.0,0.0,0.0,0.0,0.0,0.0,0.0,0.0,0.0,0.0,0.0,0.0,0.0,0.0,1.0066,0.8443,0.7589,0.676,0.6006,0.5806,0.5335,0.4587,0.3928,0.2313,0.0,-0.0969,0.0,0.0,0.0,0.0,0.0,0.0,0.0,0.0,0.0,0.0,0.0,0.0,0.0,0.0,0.0,0.0,0.0,0.0,0.0,0.0,0.0,0.0,0.0,0.0,0.0,0.0,0.0,0.0,0.0,0.0,0.0,0.0,0.0,0.0,0.0,0.0,0.0,0.0,0.0,1.0125,1.0008,0.8975,0.8133,0.6913,0.0,0.0,0.0,0.0,0.0,0.0,0.0,0.0,0.0,0.2517,0.1702,0.1223,0.1251,0.0403,0.0,0.0,0.0,0.0,0.0,0.0,0.0,0.0,0.0,-0.0199,-0.0614,-0.1084,-0.1557,-0.2026,0.0,0.0,0.0,0.0,0.0,-0.6037,0.0,0.0,0.0,0.0,0.0,0.0,0.0,0.0,0.0,0.0,0.0,0.0,0.0,0.0,0.0,2.0155,0.0,0.0,0.0,0.0,0.0,0.0,0.0,0.0,0.0,0.0,1.0622,0.8956,0.8429,0.7808,0.7126,0.7247,0.681,0.5964,0.6704,0.5345,0.245,0.1397,0.0723,0.0,0.0,0.0,0.0,0.0,0.0,0.0,0.0,0.0,0.0,0.0,0.0,0.0,0.0,0.0,0.0,0.0,0.0,0.0,0.0,0.0,0.0,0.0,0.0,0.0,0.0,0.0,0.0,0.0,0.0,0.0,0.0,0.0,0.0,0.0,0.0,0.0,0.0,1.0105,1.0556,1.0276,0.9949,0.9,0.0,0.0,0.0,0.0,0.0,0.0,0.423,0.424,0.4366,0.4487,0.3387,0.2805,0.2778,0.1283,0.0539,0.0537,0.0163,0.0,0.0,0.0,0.0,0.0,0.0,0.0,-0.005,-0.0715,-0.0961,-0.1063,-0.2021,-0.3128,-0.4174,-0.4493,-0.535,-0.6385,0.0,0.0,0.0,0.0,0.0,0.0,0.0,0.0,0.0,0.0,0.0,0.0,0.0,0.0,2.3904,2.4952,2.4112,2.2668,0.0,0.0,0.0,0.0,0.0,0.0,0.0,0.0,1.1734,1.1609,1.0009,0.9249,0.9326,0.9466,0.9447,0.9262,0.9301,0.7506,0.45,0.5102,0.4815,0.3837,0.0,0.0,0.0,0.0,0.0,0.0,0.0,0.0,0.0,0.0,0.0,0.0,0.0,0.0,0.0,0.0,0.0,0.0,0.0,0.0,0.0,0.0,0.0,0.0,0.0,0.0,0.0,0.0,0.0,0.0,0.0,0.0,0.0,0.0,0.0,0.0,0.0,0.0,0.0,1.0728,1.2273,0.0,0.0,0.0,0.0,0.5223,0.5368,0.5178,0.4235,0.4373,0.4485,0.4479,0.4404,0.4393,0.4402,0.2873,0.2103,0.2072,0.0656,0.0,0.0,0.0,0.0,0.0,0.0,0.0,0.0,-0.0048,-0.0048,-0.0189,-0.1241,-0.2257,-0.3297,-0.4467,-0.5557,-0.6504,0.0,0.0,0.0,0.0,0.0,0.0,0.0,0.0,0.0,0.0,0.0,0.0,0.0,2.5191,2.6072,2.6282,2.5546,2.3979,2.1393,0.0,0.0,0.0,0.0,0.0,0.0,0.0,1.4183,1.3286,1.2835,1.1619,0.9702,0.975,0.9707,0.9596,1.0252,1.045,1.0223,0.8587,0.7532,0.688,0.5693,0.4112,0.0,0.0,0.0,0.0,0.0,0.0,0.0,0.0,0.0,0.0,0.0,0.0,0.0,0.0,0.0,0.0,0.0,0.0,0.0,0.0,0.0,0.0,0.0,0.0,0.0,0.0,0.0,0.0,0.0,0.0,0.0,0.0,0.0,0.0,0.0,0.0,0.0,1.2906,1.3646,0.0,0.0,0.951,0.8662,0.696,0.7139,0.7245,0.7098,0.7157,0.7229,0.7342,0.6399,0.5923,0.5923,0.4296,0.3507,0.3488,0.1996,0.1285,0.1277,0.0369,0.0,0.0,0.0,0.0,0.0,0.0,0.0,-0.0048,-0.0421,-0.1727,-0.3469,-0.3904,-0.5251,-0.6888,0.0,0.0,0.0,0.0,0.0,0.0,0.0,0.0,0.0,0.0,0.0,2.4048,2.5545,2.7001,2.7675,2.7252,2.6852,2.5287,2.2078,0.0,0.0,0.0,1.8173,0.0,0.0,1.7644,1.7013,1.616,1.5617,1.4179,1.1958,1.1737,1.1505,1.1271,1.2127,1.3292,1.4475,1.2915,1.1537,1.0267,0.8884,0.716,0.5355,0.0,0.0,0.0,0.0,0.0,0.0,0.0,0.0,0.0,0.0,0.0,0.0,0.0,0.0,0.0,0.0,0.0,0.0,0.0,0.0,0.0,0.0,0.0,0.0,0.0,0.0,0.0,0.0,0.0,0.0,0.0,0.0,0.0,0.0,0.0,1.3822,1.3724,1.4735,1.4442,1.195,1.1133,1.0197,0.8859,0.8575,0.8506,0.8699,0.876,0.8832,0.8878,0.7886,0.7361,0.7361,0.5712,0.4895,0.4866,0.3386,0.2675,0.2659,0.1753,0.1078,0.0667,0.0659,0.0402,0.0,0.0,0.0,0.0,0.0,-0.121,-0.3048,-0.3383,-0.4747,-0.6445,0.0,0.0,0.0,0.0,0.0,0.0,0.0,0.0,0.0,0.0,2.3485,2.4879,2.7037,2.828,2.8699,2.8023,2.7971,2.647,2.2848,2.2062,0.0,0.0,0.0,0.0,2.0984,2.0276,2.0014,2.0222,1.8159,1.6835,1.6229,1.5653,1.5054,1.4531,1.5122,1.593,1.6917,1.8068,1.695,1.4239,1.2442,1.0586,0.872,0.0,0.0,0.0,0.0,0.0,0.0,0.0,0.0,0.0,0.0,0.0,0.0,0.0,0.0,0.0,0.0,0.0,0.0,0.0,0.0,0.0,0.0,0.0,0.0,0.0,0.0,0.0,0.0,0.0,0.0,0.0,0.0,0.0,1.0832,1.2616,1.3897,1.3218,1.5567,1.6359,1.4093,1.3118,1.2047,1.0763,0.942,0.8716,0.8716,0.8801,0.8875,0.8875,0.8781,0.8703,0.8703,0.716,0.6349,0.6344,0.4797,0.4087,0.4066,0.4014,0.3263,0.2061,0.206,0.1294,0.0049,0.0049,0.0048,0.0,0.0,-0.0729,-0.1918,-0.2966,-0.4091,-0.5245,0.0,0.0,0.0,0.0,0.0,0.0,0.0,0.0,0.0,0.0,2.421,2.5813,2.6376,2.7439,2.7936,2.7464,2.6153,2.4694,2.3144,0.0,0.0,0.0,0.0,0.0,2.3141,2.2562,2.1839,2.0999,2.041,1.913,1.7207,1.7036,1.688,1.6739,1.688,1.8067,1.9885,1.9668,2.0047,2.0509,1.7641,1.5347,1.3477,0.0,0.0,0.0,0.0,0.0,0.0,0.0,0.0,0.0,0.0,0.0,0.0,0.0,0.0,0.0,0.0,0.0,0.0,0.0,0.0,0.0,0.0,0.0,0.0,0.0,0.0,0.0,0.0,0.0,0.0,0.0,0.0,1.3913,1.3759,1.485,1.578,1.6035,1.6881,1.6455,1.3708,1.3276,1.2068,0.9562,0.9067,0.8821,0.8821,0.8811,0.8774,0.8774,0.8625,0.8547,0.8547,0.8034,0.7734,0.7747,0.6164,0.5452,0.5422,0.4358,0.3644,0.3299,0.3203,0.2454,0.1295,0.1323,0.0787,0.0,0.0,-0.0759,-0.1832,-0.2133,-0.3375,-0.5089,0.0,0.0,0.0,0.0,0.0,0.0,0.0,0.0,0.0,0.0,2.4495,2.5767,2.6039,2.68,2.7059,2.649,2.54,2.4385,2.3476,0.0,0.0,0.0,0.0,2.4195,2.4379,2.4518,2.4049,2.2989,2.2473,2.1365,1.9731,1.9489,1.9216,1.8987,1.9245,2.0299,2.1895,2.1983,2.2904,2.417,2.2465,2.0224,1.7733,1.6282,1.5264,1.439,1.2838,1.2004,1.1452,1.0107,0.0,0.0,0.0,0.0,0.0,0.0,0.0,0.0,0.0,0.0,0.0,0.0,0.0,0.0,0.0,0.0,0.0,0.0,0.0,0.0,0.0,0.0,0.0,0.0,1.3941,1.4843,1.5477,1.6,1.6449,1.679,1.7199,1.6755,1.51,1.396,1.2528,1.0725,0.9548,0.8828,0.8754,0.8723,0.8679,0.8618,0.8472,0.8394,0.8394,0.8248,0.8174,0.8174,0.7214,0.675,0.6747,0.5795,0.5067,0.0,0.448,0.3667,0.2409,0.2472,0.1739,0.0,0.0,0.0,0.0,0.0,-0.2983,-0.4815,0.0,0.0,0.0,0.0,0.0,0.0,0.0,0.0,0.0,0.0,0.0,2.5156,2.5771,2.626,2.6207,2.5369,2.5295,2.4912,0.0,0.0,0.0,2.4183,2.5588,2.5957,2.5068,2.5983,2.6052,2.5188,2.4134,2.3341,2.2819,2.2272,2.1743,2.1256,2.1823,2.2494,2.3302,2.4271,2.51,2.5777,2.6283,2.4606,2.1648,2.0051,1.9026,1.8272,1.6944,1.5908,1.4961,1.3288,0.0,0.0,0.0,0.0,0.0,0.0,0.0,0.0,0.0,0.0,0.0,0.0,0.0,0.0,0.0,0.0,0.0,0.0,0.0,0.0,0.0,0.0,0.0,0.0,1.4932,1.5591,1.6146,1.6219,1.6246,1.6362,1.6837,1.7094,1.694,1.4667,1.3108,1.2743,1.0305,0.8767,0.8496,0.0,0.0,0.0,0.0,0.8245,0.8245,0.8109,0.7982,0.7961,0.7875,0.7801,0.7784,0.7638,0.6895,0.579,0.573,0.4872,0.3462,0.3553,0.2784,0.1503,0.0424,0.0,-0.012,-0.1191,-0.2709,0.0,0.0,0.0,0.0,0.0,0.0,0.0,0.0,0.0,0.0,2.3681,2.4563,2.5042,2.4829,2.559,2.5724,2.4768,2.4677,2.4884,0.0,0.0,2.5869,2.6669,2.7157,2.6954,2.5971,2.6155,2.5698,2.4562,2.4341,2.4011,2.3588,2.3521,2.3423,2.3333,2.3497,2.3984,2.4672,2.4247,2.4829,2.6049,2.63,2.6101,2.5518,2.4422,2.4118,2.3997,2.1804,2.1252,2.1145,1.8649,1.6947,1.5812,1.5188,0.0,0.0,0.0,0.0,0.0,0.0,0.0,0.0,0.0,0.0,0.0,0.0,0.0,0.0,0.0,0.0,0.0,0.0,0.0,0.0,1.5797,1.562,1.5518,1.5865,1.5912,1.6092,1.6567,1.672,1.6327,1.5194,1.3683,1.2242,1.101,0.9437,0.8547,0.8486,0.8401,0.0,0.8364,0.8163,0.8032,0.8032,0.8005,0.7928,0.7855,0.0,0.0,0.7634,0.7485,0.7206,0.6812,0.6706,0.5866,0.4582,0.4624,0.3424,0.1501,0.0399,0.0,-0.0115,-0.1213,-0.1826,-0.2362,0.0,0.0,0.0,0.0,0.0,0.0,0.0,0.0,0.0,0.0,2.435,2.4605,2.4385,2.4798,2.4908,2.4394,2.4481,0.0,0.0,2.5755,2.601,2.7003,2.7106,2.6712,2.5768,2.6173,2.5887,2.4849,2.474,2.4643,2.4559,2.4481,2.4501,2.4602,2.4639,2.5108,2.5816,2.5421,2.588,2.6893,2.7441,2.7745,2.7842,2.7235,2.7129,2.7169,2.6163,2.5577,2.4983,2.317,2.144,1.9894,1.8912,1.7017,1.5187,0.0,0.0,0.0,0.0,0.0,0.0,0.0,0.0,0.0,0.0,0.0,0.0,0.0,0.0,1.9705,0.0,0.0,1.7983,1.714,1.6773,1.6399,1.5852,1.5784,1.5891,1.6233,1.64,1.6233,1.5525,1.4319,1.296,1.1536,1.0186,0.9083,0.832,0.8265,0.8235,0.8157,0.8029,0.7955,0.7926,0.7877,0.7851,0.7702,0.7628,0.7512,0.7363,0.7217,0.7065,0.6915,0.6844,0.6354,0.554,0.4857,0.3893,0.2792,0.1774,0.0787,-0.0074,-0.0586,-0.1074,-0.1563,0.0,0.0,0.0,0.0,0.0,0.0,0.0,0.0,0.0,0.0,2.4274,2.4357,2.433,2.4365,2.44,0.0,0.0,0.0,0.0,2.5788,2.5822,2.6675,2.6621,2.6166,2.5304,2.5929,2.5924,2.5192,2.5042,2.5038,2.5201,2.5036,2.5044,2.5192,2.5218,2.5613,2.626,2.6264,2.6578,2.7197,2.8225,2.8745,2.889,2.9121,2.914,2.9047,2.9256,2.8573,2.7424,2.6584,2.5071,2.3341,2.2013,2.0595,1.9232,1.8112,1.8064,0.0,0.0,0.0,0.0,0.0,0.0,0.0,0.0,0.0,2.269,2.4028,2.3751,2.3028,2.2109,2.1619,2.0815,1.9014,1.8365,1.7591,1.6339,1.615,1.6042,1.5752,1.6005,1.6186,1.6186,1.5084,1.3791,1.2366,1.1295,0.9876,0.8016,0.8374,0.8488,0.8248,0.8273,0.8356,0.8431,0.8163,0.8073,0.8151,0.7762,0.7583,0.7519,0.7395,0.7277,0.7049,0.7057,0.682,0.6377,0.5237,0.4555,0.4106,0.3313,0.197,0.0462,0.0315,-0.0306,-0.1085,0.0,0.0,0.0,0.0,0.0,0.0,0.0,0.0,0.0,0.0,0.0,0.0,0.0,0.0,0.0,0.0,0.0,0.0,2.6343,2.6521,2.6657,2.6776,2.6618,2.6107,2.5221,2.512,2.5019,2.4856,2.4821,2.483,2.4867,2.4836,2.4821,2.4861,2.4922,2.499,2.5099,2.5033,2.5157,2.5519,2.7113,2.7851,2.8254,3.0319,3.0724,3.0149,2.9658,2.9197,2.8684,2.8001,2.6929,2.5835,2.53,2.4231,2.2709,2.0253,0.0,1.9022,1.7873,1.9404,2.1746,2.3431,2.4196,2.5285,0.0,0.0,2.7618,2.7595,2.7784,2.7419,2.5605,2.3919,2.2683,2.2436,2.0667,1.8864,1.7638,1.7505,1.6983,1.561,1.5698,1.5879,1.5879,1.4731,1.3375,1.1888,1.1749,1.0524,0.7807,0.9024,0.9624,0.9188,0.9287,0.9798,1.0709,0.957,0.9347,1.0081,0.8849,0.8572,0.9056,0.9037,0.8811,0.8388,0.8274,0.7744,0.6997,0.6845,0.5747,0.4206,0.4064,0.3302,0.2125,0.1403,0.0587,-0.0248,0.0,0.0,0.0,0.0,0.0,0.0,0.0,0.0,0.0,0.0,0.0,0.0,0.0,0.0,0.0,0.0,0.0,2.5481,2.6403,2.605,2.5978,2.6388,2.5824,2.5348,2.4987,2.4884,2.4835,2.4801,2.4497,2.4496,2.4797,2.447,2.4406,2.4515,2.4733,2.4733,2.4559,2.4726,2.5206,2.596,2.7163,2.808,2.8828,2.9808,2.9911,2.9589,3.0032,2.9781,0.0,0.0,2.7204,2.599,2.5901,2.4767,2.3152,2.1589,2.1153,0.0,2.1975,2.3105,2.4631,0.0,2.8728,3.0512,3.2383,3.199,3.142,3.2079,3.1114,2.968,2.8215,2.6864,2.5324,0.0,2.2202,2.0891,1.8993,1.8506,1.7794,1.64,1.6254,1.6029,1.5416,1.4851,1.3952,1.2583,1.2532,1.1376,0.8711,0.9913,0.9926,0.834,0.9498,0.9981,0.9687,0.9669,0.9729,0.9981,0.9274,0.9021,0.9192,0.8988,0.8658,0.8239,0.8059,0.7702,0.7188,0.6685,0.598,0.5211,0.4768,0.4019,0.3036,0.2283,0.1419,0.0599,0.0,0.0,0.0,0.0,0.0,0.0,0.0,0.0,0.0,0.0,0.0,0.0,0.0,0.0,0.0,0.0,0.0,2.5477,2.6062,2.5471,2.5285,2.573,2.4997,2.4575,2.4575,2.4425,2.4358,2.4358,2.3969,2.3978,2.4349,2.3959,2.3873,2.3999,2.4252,2.4288,2.4163,2.4635,2.5396,2.6385,2.7476,2.8454,2.9279,2.9285,2.9148,2.8994,2.9563,2.9111,0.0,0.0,2.6685,2.543,2.5528,2.4655,2.3349,2.2083,2.1784,2.2297,2.4261,0.0,0.0,2.9187,3.189,3.415,3.4882,3.4757,3.4607,3.5091,3.365,3.183,3.0277,2.9165,2.7601,2.484,2.3884,2.278,2.0765,1.9792,1.8811,1.7406,1.6768,1.6126,1.5281,1.5004,1.4333,1.3048,1.3228,1.2288,0.9785,1.0928,1.0731,0.8857,1.0236,1.0668,0.9966,1.0216,1.036,1.0396,0.9849,0.9626,0.9619,0.9211,0.8819,0.8463,0.8329,0.8007,0.7558,0.6914,0.6529,0.6259,0.5725,0.4961,0.4147,0.36,0.2573,0.1389,0.0,0.0,0.0,0.0,0.0,0.0,0.0,0.0,0.0,0.0,0.0,0.0,0.0,0.0,0.0,0.0,2.5491,2.5384,2.5169,2.512,2.502,2.4844,2.4315,2.4026,2.4026,2.3516,2.3259,2.3259,2.3236,2.3236,2.3259,2.3236,2.3236,2.3218,2.3247,2.3419,2.3761,2.4567,2.5326,2.6167,2.7818,2.8772,2.921,2.9272,2.9174,2.8863,2.7798,0.0,0.0,2.5984,2.5398,2.443,2.4452,2.4511,0.0,2.1486,2.0651,2.0978,0.0,0.0,2.7769,2.9932,3.2592,3.4867,3.5518,3.6694,3.7198,3.5527,3.5143,3.4276,3.1642,3.0227,2.9128,2.81,2.6149,2.4288,2.3075,2.1578,2.0087,1.8543,1.7029,1.5992,0.0,1.4985,1.4036,1.2903,1.3811,1.3299,1.0684,1.207,1.258,1.1791,1.1962,1.2368,1.3074,1.1784,1.151,1.2214,1.0955,1.0553,1.091,1.034,0.9917,0.9661,0.9655,0.9162,0.8369,0.8328,0.7828,0.7061,0.7037,0.649,0.5743,0.5694,0.421,0.2178,0.0,0.0,0.0,0.0,0.0,0.0,0.0,0.0,0.0,0.0,0.0,0.0,0.0,0.0,0.0,0.0,2.5156,2.5058,2.4167,2.4601,2.4743,2.4428,2.4012,2.3803,2.3803,2.3408,2.3442,2.3931,2.3753,2.4033,2.4731,2.4493,2.4386,2.44,2.4641,2.4789,2.4938,2.5416,2.6409,2.7662,2.7635,2.8293,2.9146,2.8006,2.734,2.6876,0.0,0.0,2.4867,2.4347,2.3449,2.2575,2.2796,2.2355,2.1662,2.1234,2.1892,2.3368,2.6268,0.0,3.116,3.4189,3.6027,3.7286,3.8002,3.8241,3.8034,3.6932,3.4532,3.2168,3.074,2.8803,2.7237,2.653,2.6464,2.5924,2.4406,2.3527,2.2107,1.9638,1.878,0.0,0.0,0.0,0.0,1.3683,1.366,1.301,1.1525,1.2517,1.2306,1.0515,1.1818,1.2205,1.1491,1.1595,1.1686,1.1675,1.0919,1.0393,1.0114,0.992,0.9666,0.9357,0.9357,0.9105,0.862,0.8141,0.7755,0.745,0.6949,0.6592,0.6336,0.6336,0.551,0.4244,0.0,0.0,0.0,0.0,0.0,0.0,0.0,0.0,0.0,0.0,0.0,0.0,0.0,0.0,0.0,0.0,0.0,2.4618,2.3762,2.4106,2.4339,2.4312,2.3808,2.3522,2.3522,2.3105,2.3033,2.3338,2.3171,2.3477,2.4232,2.3788,2.3778,2.4137,2.4124,2.447,2.5144,2.5641,2.6704,2.8002,2.7766,2.8137,2.8675,2.719,2.6564,0.0,0.0,0.0,2.4484,2.3383,2.2401,2.1612,2.1681,2.107,2.0571,2.2014,2.3305,2.5026,2.8578,3.0776,3.2709,3.5401,3.7039,3.8031,3.8141,3.8378,3.8184,3.6645,3.3909,3.1314,2.9684,2.7887,2.634,2.5456,2.5778,2.5864,2.5165,2.3908,2.2571,2.1296,2.0229,0.0,0.0,0.0,0.0,1.4678,1.3777,1.3007,1.2523,1.2952,1.2462,1.0869,1.1998,1.2102,1.1071,1.1495,1.151,1.1109,1.0559,1.0023,0.9526,0.9526,0.9365,0.9058,0.9058,0.8951,0.8752,0.8289,0.8103,0.8049,0.7563,0.7235,0.6993,0.6993,0.6524,0.5733,0.0,0.0,0.0,0.0,0.0,0.0,0.0,0.0,0.0,0.0,0.0,0.0,0.0,0.0,0.0,0.0,0.0,0.0,2.3769,2.3581,2.3776,2.4418,2.3655,2.3212,2.32,2.2598,2.2049,2.1663,2.1648,2.1776,2.2045,2.1407,2.1666,2.2604,2.1994,2.2734,2.4476,2.527,2.6224,2.7277,2.8062,2.8227,2.7887,2.6872,0.0,0.0,0.0,0.0,2.4279,2.3141,2.2315,2.1746,2.1407,2.0988,2.1129,2.3858,2.4885,2.5981,2.9769,3.1587,3.2664,3.3861,3.5822,3.7182,3.6148,3.7178,3.7556,3.4658,3.3137,3.1423,0.0,0.0,2.6408,2.5078,2.4517,2.4613,2.5583,2.3169,2.1872,0.0,0.0,0.0,0.0,0.0,0.0,1.5921,0.0,1.3386,1.354,1.3347,1.3077,1.2723,1.2405,1.2118,1.1866,1.1516,1.1069,1.0519,0.9956,0.9506,0.9191,0.9191,0.9038,0.8804,0.8804,0.8804,0.8804,0.8804,0.8831,0.8857,0.8857,0.8448,0.7851,0.7839,0.7374,0.6617,0.0,0.0,0.0,0.0,0.0,0.0,0.0,0.0,0.0,0.0,0.0,0.0,0.0,0.0,0.0,0.0,0.0,0.0,2.1829,2.2842,2.3516,2.3539,2.3464,2.3341,2.32,2.2272,0.0,2.2418,2.2118,2.2294,2.2884,2.2725,2.2792,2.3056,2.3244,2.3872,2.4807,2.5306,2.6173,2.7175,0.0,2.7228,2.7876,0.0,0.0,0.0,0.0,0.0,0.0,0.0,0.0,0.0,0.0,2.5038,2.4951,2.6274,2.7652,2.9265,3.1518,3.3516,3.5173,3.6073,3.661,3.6748,3.6125,3.5616,3.4644,3.2479,2.9648,2.7142,0.0,0.0,0.0,2.5412,2.6909,0.0,2.7541,2.6418,0.0,2.3652,0.0,2.146,2.0313,1.9234,0.0,0.0,1.6092,1.4502,1.3083,1.3186,1.282,1.1806,1.1655,1.151,1.1216,1.0708,1.0123,0.9544,0.9397,0.9171,0.8891,0.8891,0.8878,0.8804,0.8804,0.8804,0.8804,0.8804,0.908,0.9536,0.9536,0.9729,0.9959,0.9665,0.9087,0.8332,0.0,0.0,0.0,0.0,0.0,0.0,0.0,0.0,0.0,0.0,0.0,0.0,0.0,0.0,0.0,0.0,0.0,0.0,0.0,2.2948,2.3581,2.347,2.363,2.3593,2.3336,2.2513,0.0,0.0,0.0,0.0,2.209,2.1974,2.2253,2.2865,2.3113,2.3869,2.4941,2.5331,0.0,0.0,0.0,0.0,0.0,0.0,0.0,0.0,0.0,0.0,0.0,0.0,0.0,2.6995,2.7454,2.7452,2.7432,2.8322,0.0,3.0615,3.2131,3.3554,3.4666,3.4993,3.5176,3.4869,3.3421,3.2677,3.1608,2.913,2.6444,0.0,0.0,0.0,0.0,0.0,0.0,0.0,2.7778,2.6693,2.5527,0.0,2.3328,0.0,2.0457,1.9926,1.924,0.0,1.6773,1.5346,1.3844,1.3813,1.3275,1.201,1.1829,1.1385,1.0615,0.9997,0.9537,0.9211,0.9084,0.8938,0.8804,0.8804,0.8804,0.8804,0.0,0.8804,0.8831,0.9106,0.9465,0.984,1.0115,1.0466,1.0747,1.0344,0.9931,0.9473,0.0,0.0,0.0,0.0,0.0,0.0,0.0,0.0,0.0,0.0,0.0,0.0,0.0,0.0,0.0,0.0,0.0,0.0,0.0,0.0,0.0,0.0,2.3986,2.3933,2.3611,0.0,0.0,0.0,0.0,0.0,0.0,0.0,0.0,0.0,0.0,0.0,0.0,0.0,0.0,0.0,0.0,0.0,0.0,0.0,0.0,0.0,0.0,0.0,0.0,0.0,3.0646,2.9503,2.9546,2.9419,2.94,3.0283,3.0573,3.0857,3.2026,3.2532,3.2654,3.229,3.2511,3.221,2.9722,2.9182,2.84,2.5468,0.0,2.2304,2.1595,2.2455,2.3135,2.2626,0.0,2.6425,2.7384,2.5854,2.4743,2.5168,2.377,2.2042,2.0103,2.0205,1.9688,1.787,1.6876,1.5925,1.498,1.4617,1.3889,1.2593,1.2277,1.1492,1.015,0.9606,0.9274,0.9151,0.8898,0.8804,0.8804,0.8804,0.8804,0.8804,0.0,0.0,0.8857,0.951,0.9865,0.9987,1.0612,1.0898,1.0922,1.0461,1.0287,1.0228,0.0,0.0,0.0,0.0,0.0,0.0,0.0,0.0,0.0,0.0,0.0,0.0,0.0,0.0,0.0,0.0,0.0,0.0,0.0,0.0,0.0,0.0,2.4287,2.4393,2.4162,0.0,0.0,0.0,0.0,0.0,0.0,0.0,0.0,0.0,0.0,0.0,0.0,0.0,0.0,0.0,0.0,0.0,0.0,0.0,0.0,0.0,0.0,0.0,0.0,0.0,3.3204,3.4282,3.4551,3.3679,3.2604,3.2789,3.2043,3.1213,3.1443,3.1701,3.168,3.0748,3.0225,2.9582,2.8214,2.6464,0.0,0.0,0.0,2.0366,2.0253,2.1294,0.0,2.3617,0.0,0.0,0.0,0.0,2.6372,0.0,0.0,0.0,0.0,0.0,0.0,0.0,0.0,0.0,1.4683,1.438,1.3511,1.1924,1.1815,1.1308,1.0265,1.0155,0.9703,0.8858,0.8831,0.8804,0.8804,0.8804,0.8804,0.8804,0.0,0.0,0.8857,0.951,1.0141,1.0662,1.1004,1.1473,1.1855,1.1069,1.0785,1.0655,0.0,0.0,0.0,0.0,0.0,0.0,0.0,0.0,0.0,0.0,0.0,0.0,0.0,0.0,0.0,0.0,0.0,0.0,0.0,0.0,0.0,0.0,0.0,0.0,0.0,0.0,0.0,0.0,0.0,0.0,0.0,0.0,0.0,0.0,0.0,0.0,0.0,0.0,0.0,0.0,0.0,0.0,0.0,0.0,0.0,0.0,0.0,0.0,0.0,0.0,3.279,3.3992,3.4603,3.4255,3.3384,3.2283,3.1157,3.024,2.9924,2.9631,2.9244,2.8559,2.7895,2.7035,2.5557,0.0,0.0,0.0,1.996,1.9041,1.9329,0.0,0.0,0.0,0.0,0.0,0.0,0.0,0.0,0.0,0.0,0.0,0.0,0.0,0.0,0.0,0.0,0.0,1.5391,1.4408,1.3407,1.2372,1.1776,1.1269,1.0813,1.0659,1.0329,0.984,0.9491,0.9309,0.9316,0.8956,0.8804,0.8804,0.8804,0.0,0.9361,1.0038,1.058,1.1054,1.154,1.1796,1.1807,1.1143,1.0908,1.0809,0.0,0.0,0.0,0.0,0.0,0.0,0.0,0.0,0.0,0.0,0.0,0.0,0.0,0.0,0.0,0.0,0.0,0.0,0.0,0.0,0.0,0.0,0.0,0.0,0.0,0.0,0.0,0.0,0.0,0.0,0.0,0.0,0.0,0.0,0.0,0.0,0.0,0.0,0.0,0.0,0.0,0.0,0.0,0.0,0.0,0.0,0.0,0.0,0.0,0.0,3.0833,3.147,3.2112,3.2771,3.2957,3.0923,2.9798,2.9045,2.8336,2.7573,2.687,2.6321,2.5583,2.4537,2.2945,2.1585,0.0,0.0,1.8855,1.838,1.8669,0.0,0.0,0.0,0.0,0.0,0.0,0.0,0.0,0.0,0.0,0.0,0.0,0.0,0.0,0.0,0.0,0.0,1.5557,1.4298,1.3442,1.3099,1.2289,1.1783,1.1627,1.1353,1.1082,1.0788,1.0165,0.9918,0.9987,0.9219,0.8921,0.9008,0.8857,0.0,0.0,1.0517,1.0953,1.1252,1.1847,1.1816,1.1389,1.0937,1.0771,1.0732,0.0,0.0,0.0,0.0,0.0,0.0,0.0,0.0,0.0,0.0,0.0,0.0,0.0,0.0,0.0,0.0,0.0,0.0,0.0,0.0,0.0,0.0,0.0,0.0,0.0,0.0,0.0,0.0,0.0,0.0,0.0,0.0,0.0,0.0,0.0,0.0,0.0,0.0,0.0,0.0,0.0,0.0,0.0,0.0,0.0,0.0,0.0,0.0,0.0,0.0,0.0,2.766,2.75,2.9497,3.1563,2.9904,0.0,0.0,2.7249,2.6497,2.573,2.4492,2.3199,2.2077,2.1345,0.0,0.0,1.8987,1.8893,1.8688,1.8263,1.827,0.0,0.0,0.0,2.1363,0.0,0.0,0.0,0.0,0.0,0.0,0.0,0.0,0.0,0.0,0.0,0.0,0.0,1.3585,1.3585,1.3714,1.3614,1.3286,1.2662,1.2614,1.1984,1.0788,1.0368,1.036,1.0678,0.9632,0.9368,0.9658,0.0,0.0,0.0,1.0517,1.0953,1.1224,1.1535,1.1379,1.0918,1.0518,1.0361,1.0352,0.0,0.0,0.0,0.0,0.0,0.0,0.0,0.0,0.0,0.0,0.0,0.0,0.0,0.0,0.0,0.0,0.0,0.0,0.0,0.0,0.0,0.0,0.0,0.0,0.0,0.0,0.0,1.5447,0.0,0.0,0.0,0.0,0.0,0.0,0.0,0.0,0.0,0.0,0.0,0.0,0.0,0.0,0.0,0.0,0.0,0.0,0.0,0.0,0.0,0.0,0.0,0.0,2.43,2.5705,0.0,0.0,2.728,2.6631,2.6325,2.5725,2.4848,2.34,2.22,2.1144,2.0344,0.0,1.8883,1.8897,1.8893,1.8727,1.8204,1.7847,1.7599,0.0,0.0,0.0,0.0,0.0,0.0,0.0,0.0,0.0,0.0,0.0,0.0,0.0,0.0,0.0,0.0,1.3905,1.4129,1.4351,1.4329,1.4202,1.3958,1.3582,1.299,1.2172,1.1253,1.0768,1.0643,0.977,0.9478,0.9618,0.0,0.0,0.0,1.0845,1.1023,1.1019,1.1145,1.0929,1.0508,1.0361,1.0486,1.0725,0.0,0.0,0.0,0.0,0.0,0.0,0.0,0.0,0.0,0.0,0.0,0.0,0.0,0.0,0.0,0.0,0.0,0.0,0.0,0.0,0.0,0.0,0.0,0.0,0.0,0.0,0.0,1.239,1.0311,0.8852,0.0,0.0,0.0,0.0,0.0,0.0,0.0,0.0,0.0,0.0,0.0,0.0,0.0,0.0,0.0,0.0,0.0,0.0,0.0,0.0,0.0,0.0,0.0,0.0,0.0,0.0,2.5478,2.5209,2.538,2.4749,2.3814,2.2733,2.1451,2.0264,0.0,0.0,1.8438,1.8438,1.8554,1.8496,1.7967,1.7544,1.7105,1.6595,0.0,1.8581,0.0,0.0,0.0,0.0,0.0,0.0,0.0,0.0,0.0,0.0,0.0,0.0,0.0,1.4339,1.4667,1.4949,1.4812,1.4744,1.4744,1.416,1.3595,1.3063,1.2049,1.1401,1.1063,1.0241,0.9857,0.9825,0.0,0.0,0.0,1.0903,1.0958,1.0908,1.0908,1.0654,1.0303,1.0303,1.0592,1.1,0.0,0.0,0.0,0.0,0.0,0.0,0.0,0.0,0.0,0.0,0.0,0.0,0.0,0.0,0.0,0.0,0.0,0.0,0.0,0.0,0.0,0.0,0.0,0.0,0.0,0.0,0.0,1.0731,0.799,0.5887,0.4477,0.5963,0.7237,0.0,0.0,0.0,0.0,0.0,0.0,0.0,0.0,0.0,0.0,0.0,0.0,0.0,0.0,0.0,0.0,0.0,0.0,0.0,0.0,2.0223,2.0649,0.0,2.3858,2.439,2.4328,2.3441,2.2512,2.242,2.0747,1.9127,0.0,0.0,1.7333,1.7333,1.7747,1.7947,1.7415,1.7312,1.7105,1.6595,1.7476,0.0,0.0,0.0,0.0,0.0,0.0,0.0,0.0,0.0,0.0,0.0,0.0,0.0,0.0,1.4767,1.5045,1.5564,1.5069,1.4799,1.4799,1.4269,1.3662,1.3001,1.2587,1.2348,1.2245,1.1169,1.0648,0.0,0.0,0.0,0.0,1.0593,1.073,1.0908,1.0908,1.0654,1.0303,1.0303,1.0592,1.1,0.0,0.0,0.0,0.0,0.0,0.0,0.0,0.0,0.0,0.0,0.0,0.0,0.0,0.0,0.0,0.0,0.0,0.0,0.0,0.0,0.0,0.0,0.0,0.0,0.0,0.0,1.0503,0.9328,0.7511,0.562,0.3751,0.5175,0.6284,0.7136,0.0,0.0,0.0,0.0,0.0,0.0,0.0,0.0,0.0,0.0,0.0,0.0,0.0,0.0,0.0,0.0,0.0,0.0,0.0,0.0,0.0,2.0955,2.2002,2.2843,2.297,2.2475,2.1754,2.0896,1.9614,1.8447,1.8032,0.0,1.7312,1.7312,1.7727,1.7947,1.7415,1.7312,1.7105,1.6595,1.7149,0.0,0.0,0.0,0.0,0.0,0.0,0.0,0.0,0.0,0.0,0.0,0.0,0.0,0.0,0.0,1.55,1.5661,1.5142,1.4871,1.4871,1.4301,1.3729,1.3198,1.2667,1.2235,1.1954,1.1618,0.0,0.0,0.0,0.0,0.0,1.0694,1.0674,1.0518,1.0832,1.0896,1.0783,1.0783,1.1319,1.19,0.0,0.0,0.0,0.0,0.0,0.0,0.0,0.0,0.0,0.0,0.0,0.0,0.0,0.0,0.0,0.0,0.0,0.0,0.0,0.0,0.0,0.0,0.0,0.0,0.0,1.1715,1.0222,0.9066,0.7474,0.5716,0.3807,0.4755,0.5534,0.6204,0.8178,0.0,0.0,0.0,0.0,0.0,0.0,0.0,2.3595,0.0,0.0,0.0,0.0,0.0,0.0,0.0,0.0,0.0,0.0,0.0,0.0,0.0,2.047,2.1023,2.1538,2.131,2.0708,1.9832,1.8782,0.0,0.0,0.0,1.6993,1.6993,1.725,1.7463,1.7333,1.7126,1.6951,1.6816,1.7295,0.0,0.0,0.0,0.0,0.0,0.0,0.0,0.0,0.0,0.0,0.0,0.0,0.0,0.0,0.0,1.5399,1.5399,1.489,1.4601,1.4601,1.3992,1.3555,1.3253,1.2891,1.2475,1.2066,1.2066,0.0,0.0,0.0,0.0,0.0,1.1041,1.097,1.0611,1.1113,1.13,1.1279,1.1059,1.1501,1.2041,0.0,0.0,0.0,0.0,0.0,0.0,0.0,0.0,0.0,0.0,0.0,0.0,0.0,0.0,0.0,0.0,0.0,0.0,0.0,0.0,0.0,0.0,0.0,0.0,0.0,1.151,1.0448,0.9666,0.7831,0.6057,0.4443,0.4599,0.4946,0.5508,0.7213,0.0,0.0,0.0,0.0,0.0,0.0,0.0,0.0,0.0,0.0,0.0,0.0,0.0,0.0,0.0,0.0,0.0,0.0,0.0,0.0,0.0,0.0,0.0,0.0,1.9972,0.0,0.0,0.0,0.0,0.0,0.0,0.0,1.65,1.6543,1.6723,1.7261,1.6913,1.6757,1.741,1.7939,0.0,0.0,0.0,0.0,0.0,0.0,0.0,0.0,0.0,0.0,0.0,0.0,0.0,0.0,0.0,1.4896,1.4896,1.4374,1.4076,1.4076,1.3536,1.3267,1.3301,1.3267,1.303,1.2597,1.2579,0.0,0.0,0.0,0.0,0.0,1.1579,1.1505,1.1113,1.1645,1.1836,1.1716,1.1163,1.1274,1.1609,0.0,0.0,0.0,0.0,0.0,0.0,0.0,0.0,0.0,0.0,0.0,0.0,0.0,0.0,0.0,0.0,0.0,0.0,0.0,0.0,0.0,0.0,0.0,0.0,0.0,1.1481,1.0584,0.9302,0.7801,0.6275,0.4791,0.4622,0.4595,0.4723,0.626,0.0,0.0,0.0,0.0,0.0,0.0,0.0,0.0,0.0,0.0,0.0,2.2868,2.194,0.0,0.0,0.0,0.0,0.0,0.0,0.0,0.0,2.0333,2.0892,2.0221,0.0,1.7941,1.8314,1.7552,1.6835,0.0,0.0,0.0,0.0,0.0,1.7298,1.7943,1.7552,1.7623,1.9193,1.9137,0.0,0.0,0.0,0.0,0.0,0.0,0.0,0.0,0.0,0.0,0.0,0.0,0.0,0.0,0.0,1.4896,1.4896,1.4286,1.3945,1.3945,1.3814,1.3885,1.4181,1.3885,1.3685,1.3555,1.319,0.0,0.0,0.0,0.0,1.1627,1.1756,1.1719,1.1653,1.2156,1.2083,1.1703,1.1557,1.1555,1.1459,0.0,0.0,0.0,0.0,0.0,0.0,0.0,0.0,0.0,0.0,0.0,0.0,0.0,0.0,0.0,0.0,0.0,0.0,0.0,0.0,0.0,0.0,0.0,0.0,1.2591,1.1739,1.0958,1.027,0.8253,0.6731,0.5649,0.5009,0.4755,0.5007,0.71,0.0,0.0,0.0,0.0,0.0,2.0221,0.0,0.0,0.0,0.0,0.0,2.3017,2.2536,0.0,2.1386,2.0628,1.9877,0.0,0.0,0.0,0.0,2.0956,2.119,2.0541,1.9899,1.9424,1.9508,1.8853,1.8241,1.8548,0.0,0.0,0.0,0.0,1.7957,1.8865,1.8802,1.9001,2.0253,0.0,0.0,0.0,0.0,0.0,0.0,0.0,0.0,0.0,0.0,0.0,0.0,0.0,0.0,0.0,0.0,1.5178,1.5178,1.4513,1.4084,1.3901,1.4068,1.4278,1.4501,1.4278,1.4068,1.3885,1.3648,0.0,0.0,0.0,0.0,1.2138,1.2354,1.2318,1.2133,1.2368,1.2273,1.1956,1.1441,1.1213,1.1038,0.0,0.0,0.0,0.0,0.0,0.0,0.0,0.0,0.0,0.0,0.0,0.0,0.0,0.0,0.0,0.0,0.0,0.0,0.0,0.0,0.0,0.0,0.0,1.3621,1.3262,1.1974,1.1313,1.1313,0.8704,0.718,0.6643,0.5403,0.514,0.5783,0.8397,1.0794,0.0,0.0,0.0,0.0,1.9672,0.0,0.0,0.0,0.0,0.0,0.0,0.0,0.0,2.2173,2.156,2.0991,2.0882,0.0,0.0,0.0,0.0,0.0,2.1204,2.1952,2.2511,2.135,2.0671,2.0236,2.0227,0.0,0.0,0.0,0.0,0.0,0.0,0.0,0.0,0.0,0.0,0.0,0.0,0.0,0.0,0.0,0.0,0.0,0.0,0.0,0.0,0.0,0.0,0.0,0.0,0.0,0.0,1.562,1.4954,1.4438,1.4084,1.4422,1.4627,1.4705,1.4627,1.4406,1.4068,1.4019,0.0,0.0,0.0,0.0,1.262,1.2943,1.2837,1.2464,1.2329,1.2212,1.2024,1.1071,1.0643,1.0506,0.0,0.0,0.0,0.0,0.0,0.0,0.0,0.0,0.0,0.0,0.0,0.0,0.0,0.0,0.0,0.0,0.0,0.0,0.0,0.0,0.0,0.0,1.4641,1.3242,1.2088,1.1567,1.1019,1.047,0.8248,0.7112,0.6977,0.5325,0.5223,0.6502,0.8115,0.9997,1.2055,1.3986,1.6182,1.8448,1.9612,0.0,0.0,0.0,0.0,0.0,0.0,0.0,0.0,2.334,2.2892,2.2298,2.1724,0.0,0.0,0.0,0.0,0.0,2.2548,2.4522,2.5785,2.1907,2.0945,2.0917,2.0798,0.0,0.0,0.0,0.0,0.0,0.0,0.0,0.0,0.0,0.0,0.0,0.0,0.0,0.0,0.0,0.0,0.0,0.0,0.0,0.0,0.0,0.0,0.0,0.0,0.0,0.0,1.6172,1.5431,1.4968,1.4922,1.4968,1.521,1.5595,1.5195,1.4968,1.4891,1.4564,1.4181,0.0,0.0,1.3531,1.3057,1.268,1.248,1.2365,1.1896,1.1412,1.0946,1.0756,1.0419,1.0018,0.0,0.0,0.0,0.0,0.0,0.0,0.0,0.0,0.0,0.0,0.0,0.0,0.0,0.0,0.0,0.0,0.0,0.0,0.0,0.0,0.0,1.693,1.6126,1.4903,1.3234,1.2319,1.1728,1.1489,0.9367,0.8202,0.7919,0.5959,0.5605,0.6647,0.7832,0.976,1.2186,1.4029,1.6061,1.8113,0.0,0.0,0.0,0.0,0.0,0.0,0.0,0.0,0.0,0.0,2.3546,2.303,2.2725,0.0,0.0,0.0,0.0,0.0,2.3251,2.4552,2.5651,2.4306,2.484,2.5404,0.0,0.0,0.0,0.0,0.0,0.0,0.0,0.0,0.0,0.0,0.0,0.0,0.0,0.0,0.0,0.0,0.0,0.0,0.0,0.0,0.0,0.0,0.0,0.0,0.0,0.0,0.0,0.0,1.5717,1.5477,1.5477,1.5477,1.5595,1.5799,1.558,1.5359,1.5089,1.4907,1.4596,1.4214,0.0,1.3785,1.3526,1.2728,1.24,1.2312,1.1462,1.0946,1.0656,1.0369,1.0224,1.0173,0.0,0.0,0.0,0.0,0.0,0.0,0.0,0.0,0.0,0.0,0.0,0.0,0.0,0.0,0.0,0.0,0.0,0.0,0.0,0.0,1.9154,1.7749,1.7448,1.6471,1.4697,1.3453,1.2735,1.2584,1.0647,0.9261,0.841,0.669,0.627,0.7029,0.8007,0.9865,1.2386,1.3962,1.5727,1.7508,0.0,0.0,0.0,0.0,0.0,0.0,0.0,0.0,0.0,0.0,0.0,0.0,0.0,0.0,0.0,2.3098,2.3547,2.3897,2.3619,2.4463,2.5626,2.6523,0.0,0.0,0.0,0.0,0.0,0.0,0.0,0.0,0.0,0.0,0.0,0.0,0.0,0.0,0.0,0.0,0.0,0.0,0.0,0.0,0.0,0.0,0.0,0.0,0.0,0.0,0.0,0.0,0.0,0.0,1.5936,1.5799,1.5799,1.5682,1.5682,1.5799,1.5799,1.561,1.5255,1.5255,1.5043,1.4613,1.416,1.3982,1.3949,1.2788,1.2329,1.2269,1.1291,1.0863,1.0756,1.0302,1.0298,1.052,0.0,0.0,0.0,0.0,0.0,0.0,0.0,0.0,0.0,0.0,0.0,0.0,0.0,0.0,0.0,0.0,0.0,0.0,0.0,0.0,1.9006,1.8875,1.7844,1.6702,1.5448,1.4695,1.384,1.2774,1.1332,0.9603,0.7664,0.7195,0.7374,0.8121,0.9061,1.04,1.2019,1.3337,1.4723,1.6218,1.8125,0.0,0.0,0.0,0.0,0.0,0.0,0.0,0.0,0.0,0.0,0.0,0.0,0.0,2.3156,2.2139,2.337,2.4846,2.3713,2.5592,2.7749,2.7264,2.6428,0.0,2.8834,2.8287,0.0,2.8844,0.0,0.0,0.0,0.0,0.0,0.0,0.0,0.0,0.0,0.0,0.0,0.0,0.0,0.0,0.0,0.0,0.0,0.0,0.0,0.0,0.0,0.0,0.0,0.0,0.0,1.5799,1.5799,1.5374,1.5374,1.5799,1.5799,1.5784,1.5755,1.5755,1.5492,1.5015,1.437,1.4234,1.4326,1.2703,1.2092,1.2176,1.1714,1.1388,1.115,1.0908,1.0837,1.0861,0.0,0.0,0.0,0.0,0.0,0.0,0.0,0.0,0.0,0.0,0.0,0.0,0.0,0.0,0.0,0.0,0.0,0.0,0.0,0.0,1.8339,1.8782,1.8389,1.7877,1.7183,1.5826,1.4551,1.3416,1.1637,1.0105,0.882,0.8117,0.8109,0.8705,0.9064,1.0071,1.1608,1.2741,1.4126,1.5644,1.6836,1.8298,0.0,0.0,0.0,0.0,0.0,0.0,0.0,0.0,2.4618,2.3677,2.413,2.3765,2.3245,2.3728,2.4179,2.4518,2.4525,2.5711,2.7112,2.7692,2.7126,0.0,0.0,2.9988,2.968,2.9,2.8707,0.0,0.0,0.0,0.0,0.0,0.0,0.0,0.0,0.0,0.0,0.0,0.0,0.0,0.0,0.0,0.0,0.0,0.0,0.0,0.0,0.0,0.0,0.0,0.0,1.5799,1.5799,1.5329,1.5344,1.5799,1.5492,1.5522,1.5799,1.5799,1.5488,1.4888,1.4341,1.4156,1.4166,1.2938,1.2469,1.2415,1.1522,1.1106,1.1003,1.0931,1.1015,1.1241,0.0,0.0,0.0,0.0,0.0,0.0,0.0,0.0,0.0,0.0,0.0,0.0,0.0,0.0,0.0,0.0,0.0,0.0,0.0,1.7175,1.7652,1.8148,1.8034,1.7932,1.7858,1.6491,1.5238,1.4073,1.2092,1.0771,1.0122,0.9429,0.9254,0.9501,0.9587,1.0361,1.1608,1.2169,1.3246,1.4662,1.5574,1.7022,0.0,0.0,0.0,0.0,0.0,0.0,0.0,0.0,2.4778,2.3885,2.4592,2.4088,2.3451,2.4292,2.4717,2.4998,2.5392,2.6116,2.7044,2.8165,0.0,0.0,3.013,3.0996,3.1127,3.0478,2.9692,0.0,0.0,0.0,0.0,0.0,0.0,0.0,0.0,0.0,0.0,0.0,0.0,0.0,0.0,0.0,0.0,0.0,0.0,0.0,0.0,0.0,0.0,0.0,0.0,0.0,1.5955,1.5389,1.5344,1.5784,1.5329,1.5359,1.5799,1.5799,1.5559,1.5067,1.4333,1.4135,1.4238,1.3261,1.29,1.283,1.1535,1.1138,1.1304,1.1316,1.1573,1.2011,0.0,0.0,0.0,0.0,0.0,0.0,0.0,0.0,0.0,0.0,0.0,0.0,0.0,0.0,0.0,0.0,0.0,0.0,1.6227,1.6662,1.6957,1.6969,1.6585,1.6589,1.7084,1.661,1.5835,1.4709,1.2759,1.1651,1.1319,1.1174,1.0927,1.0613,1.0894,1.1428,1.2141,1.1555,1.1947,1.3089,1.4355,1.5482,1.662,0.0,0.0,0.0,0.0,0.0,0.0,0.0,2.4828,2.4001,2.4593,2.4379,2.3802,2.3276,2.4824,2.659,2.6208,2.6918,2.7993,0.0,0.0,0.0,3.0666,3.119,3.1799,3.3998,0.0,0.0,0.0,0.0,0.0,0.0,0.0,0.0,0.0,0.0,0.0,0.0,0.0,0.0,0.0,0.0,0.0,0.0,0.0,0.0,0.0,0.0,0.0,0.0,0.0,0.0,1.6301,1.5507,1.5344,1.5784,1.5329,1.5344,1.5784,1.5799,1.5799,1.5709,1.4378,1.4184,1.4709,1.3641,1.3305,1.3352,1.1885,1.1663,1.2201,1.2193,1.2676,1.3239,0.0,0.0,0.0,0.0,0.0,0.0,0.0,0.0,0.0,0.0,0.0,0.0,0.0,0.0,0.0,0.0,0.0,0.0,0.0,1.4393,1.4385,1.4676,1.5107,1.5416,1.5557,1.5197,1.5035,1.5131,1.3217,1.2314,1.2354,1.1836,1.1341,1.0868,1.0955,1.1038,1.1044,1.0895,1.1327,1.2189,1.2581,1.3906,1.5828,0.0,0.0,0.0,0.0,0.0,0.0,0.0,0.0,0.0,2.3752,2.4053,2.4389,2.4746,2.5379,2.5999,2.6421,2.7163,0.0,2.8094,0.0,0.0,0.0,3.0429,0.0,0.0,0.0,0.0,0.0,0.0,0.0,0.0,0.0,0.0,0.0,0.0,0.0,0.0,0.0,0.0,0.0,0.0,0.0,0.0,0.0,0.0,0.0,0.0,0.0,0.0,0.0,0.0,1.6301,1.5736,1.5565,1.5784,1.5329,1.5165,1.5329,1.5653,1.5357,1.4571,1.4037,1.3902,1.4036,1.325,1.2949,1.2921,1.2013,1.1756,1.1937,1.2132,1.2676,1.3413,0.0,0.0,0.0,0.0,0.0,0.0,0.0,0.0,0.0,0.0,1.2925,1.3089,0.0,0.0,0.0,0.0,0.0,0.0,0.0,0.0,1.2615,1.2958,1.3598,1.4407,1.5389,1.5229,1.5361,1.5909,1.4049,1.2966,1.2622,1.2437,1.1921,1.1169,1.1169,1.1002,1.0747,1.0512,1.0684,1.1157,1.1486,1.2788,1.4716,0.0,0.0,0.0,0.0,0.0,0.0,0.0,0.0,0.0,2.3802,2.4338,2.5064,2.5662,2.5924,2.6301,2.7504,2.8049,0.0,2.899,2.9616,3.0061,0.0,0.0,0.0,0.0,0.0,0.0,0.0,0.0,0.0,0.0,0.0,0.0,0.0,0.0,0.0,0.0,0.0,0.0,0.0,0.0,0.0,0.0,0.0,0.0,0.0,0.0,0.0,0.0,0.0,0.0,1.6696,1.6291,1.6047,1.5997,1.571,1.5404,1.5119,1.5595,1.543,1.4745,1.4079,1.3706,1.3504,1.273,1.2564,1.2729,1.1911,1.1681,1.1856,1.2249,1.3027,1.4003,0.0,0.0,0.0,0.0,0.0,0.0,0.0,0.0,0.0,0.0,1.0998,1.1333,0.0,0.0,0.0,0.0,0.0,0.0,0.0,0.0,1.1463,1.1683,1.2207,1.3665,1.6162,1.619,1.6428,1.6961,1.5155,1.3672,1.2568,1.3039,1.2601,1.1445,1.1403,1.1236,1.0882,1.0374,1.0127,1.0141,1.0884,1.2094,1.3499,1.4203,0.0,0.0,0.0,0.0,0.0,0.0,0.0,0.0,2.4171,2.4866,2.5635,2.6055,2.6449,2.7095,2.8953,0.0,0.0,3.0853,0.0,0.0,0.0,0.0,0.0,0.0,0.0,0.0,0.0,0.0,0.0,0.0,0.0,0.0,0.0,0.0,0.0,0.0,0.0,0.0,0.0,0.0,0.0,0.0,0.0,0.0,0.0,0.0,0.0,0.0,0.0,0.0,1.7327,1.7002,1.6672,0.0,1.6355,1.5966,1.527,1.5639,1.5724,1.5501,1.4246,1.3432,1.2924,1.2125,1.2138,1.2581,1.1686,1.1523,1.1865,1.2445,1.3512,1.4658,0.0,0.0,0.0,0.0,0.0,0.0,0.0,0.0,0.0,0.0,0.0,0.0,0.0,0.0,0.0,0.0,0.0,0.0,0.0,0.0,1.018,1.0157,1.1613,1.3651,1.6305,1.6116,1.6733,1.8283,1.6439,1.4916,1.38,1.3755,1.3025,1.1687,1.1477,1.0976,1.0307,1.0452,1.0231,0.9829,1.0193,1.1346,1.2791,1.2649,1.3828,0.0,0.0,0.0,0.0,0.0,0.0,0.0,2.2508,2.3739,2.5267,2.5989,2.6446,2.7061,2.872,2.9127,0.0,0.0,0.0,0.0,0.0,0.0,0.0,0.0,0.0,0.0,0.0,0.0,0.0,0.0,0.0,0.0,0.0,0.0,0.0,0.0,0.0,0.0,0.0,0.0,0.0,0.0,0.0,0.0,0.0,0.0,0.0,0.0,0.0,1.7676,1.7603,1.7323,1.7027,0.0,1.6686,1.6607,1.6416,1.5982,1.5088,1.3809,1.3245,1.2407,1.1428,1.1689,1.1722,1.1634,1.1671,1.1736,1.1841,1.2176,1.2867,1.3719,0.0,0.0,0.0,0.0,0.0,0.0,0.0,0.0,0.0,0.0,0.0,0.0,0.0,0.0,0.0,0.0,0.0,0.0,0.0,0.0,0.0,1.0236,1.1697,1.3615,1.5988,1.6459,1.7252,1.832,1.7322,1.6134,1.4709,1.4404,1.3683,1.2547,1.1883,1.1259,1.0636,1.0309,0.9997,0.9706,1.0,1.0823,1.1854,1.1655,1.2476,1.3763,1.4146,0.0,0.0,0.0,0.0,0.0,0.0,0.0,2.4299,2.5267,2.5714,2.6297,2.8211,0.0,0.0,3.0871,0.0,0.0,0.0,0.0,0.0,0.0,0.0,0.0,0.0,0.0,0.0,0.0,0.0,0.0,0.0,0.0,0.0,0.0,0.0,0.0,0.0,0.0,0.0,0.0,0.0,0.0,0.0,0.0,0.0,0.0,1.941,1.8491,1.7935,1.7799,1.7492,1.7039,1.7039,1.6968,1.676,1.5947,1.4872,1.3662,1.3062,1.2314,1.1543,1.1726,1.1703,1.1534,1.1557,1.1659,1.1835,1.2145,1.2695,1.3405,0.0,0.0,0.0,0.0,0.0,0.0,0.0,0.0,0.0,0.0,0.0,0.0,0.0,0.0,0.0,0.0,0.0,0.0,0.0,0.0,0.0,0.0,1.1836,1.334,1.5188,1.6526,1.7387,1.7811,1.7672,1.7017,1.5877,1.5085,1.432,1.3501,1.2508,1.179,1.1264,1.0396,0.9919,0.9706,1.0,1.0523,1.1123,1.0923,1.1483,1.2385,1.2728,1.3449,1.4372,1.536,0.0,0.0,0.0,0.0,2.2798,2.4251,2.4763,2.5345,2.7534,0.0,2.8699,3.0792,0.0,0.0,0.0,0.0,0.0,0.0,0.0,0.0,0.0,0.0,0.0,0.0,0.0,0.0,0.0,0.0,0.0,0.0,0.0,0.0,0.0,0.0,0.0,0.0,0.0,0.0,0.0,0.0,2.1757,2.0989,2.0205,1.9333,1.8358,1.8249,1.7947,1.7446,1.7415,1.7134,1.6658,1.5706,1.4831,1.3993,1.3094,1.2411,1.1976,1.1981,1.1947,1.1855,1.1639,1.1733,1.1992,1.2141,1.2568,1.314,0.0,0.0,0.0,0.0,0.0,0.0,0.0,0.0,0.0,0.0,0.8838,0.8864,0.0,0.0,0.0,0.0,0.0,0.0,0.0,0.0,0.0,0.0,1.1228,1.2543,1.3745,1.4915,1.6133,1.7386,1.6731,0.0,0.0,0.0,0.0,1.4054,0.0,1.2468,1.1316,1.1449,1.0822,0.9706,1.0,1.0576,1.116,1.0231,1.1092,1.2707,1.1848,1.2197,1.3127,1.3856,1.4789,0.0,0.0,0.0,2.0698,2.3075,2.4073,2.4844,0.0,0.0,3.013,0.0,0.0,0.0,0.0,0.0,0.0,0.0,0.0,0.0,0.0,0.0,0.0,0.0,0.0,0.0,0.0,0.0,0.0,0.0,0.0,0.0,0.0,0.0,0.0,0.0,0.0,0.0,0.0,2.266,2.1832,2.1269,2.0313,1.95,1.8896,1.843,1.8166,1.8082,1.7833,1.7232,1.6266,1.5545,1.472,1.377,1.2722,1.1822,1.117,1.2229,1.2488,1.226,1.2488,1.2631,1.2594,1.206,1.1925,1.2091,0.0,0.0,0.0,0.0,0.0,0.0,0.0,0.0,0.0,0.0,0.0,0.8958,0.0,0.0,0.0,0.0,0.0,0.0,0.0,0.0,0.0,0.0,1.0667,1.2035,1.2761,1.4356,1.5733,1.68,0.0,0.0,0.0,1.712,1.6479,0.0,0.0,0.0,0.0,1.2263,1.1431,1.0579,1.0566,1.0676,1.0817,1.0001,1.0301,1.1066,1.0829,1.091,1.1224,1.1895,1.2877,1.4076,1.5644,0.0,0.0,0.0,2.2492,0.0,2.5973,2.8038,2.9721,0.0,0.0,0.0,0.0,0.0,0.0,0.0,0.0,0.0,0.0,0.0,0.0,0.0,0.0,0.0,0.0,0.0,0.0,0.0,0.0,0.0,0.0,0.0,0.0,0.0,0.0,0.0,2.3986,2.3521,2.2767,2.1626,2.1152,2.03,1.901,1.877,1.8566,1.842,1.8146,1.7783,1.7279,1.6166,1.4854,1.3413,1.2728,1.204,1.1466,1.217,1.2291,1.2028,1.2179,1.2235,1.2205,1.191,1.1805,1.1856,0.0,0.0,0.0,0.0,0.0,0.0,0.0,0.0,0.0,0.0,0.0,0.0,0.0,0.0,0.0,0.0,0.0,0.0,0.0,0.0,0.0,0.0,0.0,1.1539,1.1974,1.387,1.5129,1.5742,0.0,0.0,1.7942,1.8106,1.8209,0.0,1.6758,1.5478,0.0,0.0,0.0,1.1406,1.1225,1.0926,1.0546,1.0104,0.9924,0.9985,1.0274,1.0138,0.9891,1.0559,1.1449,1.2503,1.3691,1.5533,0.0,0.0,0.0,0.0,0.0,0.0,0.0,0.0,0.0,0.0,0.0,0.0,0.0,0.0,0.0,0.0,0.0,0.0,0.0,0.0,0.0,0.0,0.0,0.0,0.0,0.0,0.0,0.0,0.0,0.0,0.0,0.0,0.0,0.0,2.419,2.419,2.3547,2.2161,2.2106,2.1231,1.9412,1.9126,1.887,1.8595,1.84,1.8165,1.7879,1.6791,1.5344,1.3667,1.2985,1.2435,1.2024,1.2406,1.24,1.2154,1.2154,1.211,1.2029,1.1865,1.1805,1.1837,0.0,0.0,0.0,0.0,0.0,0.0,0.0,0.0,0.0,0.0,0.0,0.0,0.0,0.9371,0.892,0.8233,0.0,0.0,0.0,0.0,0.0,0.0,0.0,0.0,0.0,1.2998,1.3902,0.0,0.0,0.0,1.8093,1.8672,1.897,1.9,1.7833,1.6157,1.4204,0.0,0.0,0.0,0.0,1.1291,1.0586,1.0559,0.0,0.0,0.0,1.0305,0.9891,1.0559,1.0838,1.1132,1.2464,1.4151,0.0,0.0,0.0,0.0,0.0,0.0,0.0,0.0,0.0,0.0,0.0,0.0,0.0,0.0,0.0,0.0,0.0,0.0,0.0,0.0,0.0,0.0,0.0,0.0,0.0,0.0,0.0,0.0,0.0,0.0,0.0,0.0,0.0,0.0,2.419,2.419,2.3804,2.2951,2.2933,2.2135,2.0439,1.9483,1.887,1.8595,1.8585,1.8083,1.7155,1.7068,1.6338,1.5012,1.3604,1.2815,1.261,1.326,1.3362,1.3131,1.3131,1.2974,1.2669,1.2029,1.1805,1.1805,0.0,0.0,0.0,0.0,0.0,0.0,0.0,0.0,0.0,0.0,0.0,0.0,0.0,0.9164,0.8856,0.7958,0.6651,0.0,0.0,0.0,0.0,0.0,0.0,0.0,0.0,0.0,0.0,0.0,0.0,1.6291,1.7648,1.8221,1.8027,1.7263,1.785,1.7097,1.5411,1.5105,0.0,0.0,0.0,0.0,0.0,0.0,0.0,0.0,0.0,0.0,0.0,0.9751,1.0101,1.0682,1.1751,0.0,0.0,0.0,0.0,0.0,0.0,0.0,0.0,0.0,0.0,0.0,0.0,0.0,0.0,0.0,0.0,0.0,0.0,0.0,0.0,0.0,0.0,0.0,0.0,0.0,0.0,0.0,0.0,0.0,0.0,0.0,0.0,0.0,0.0,0.0,2.419,2.419,2.3823,2.3024,2.3006,2.2199,2.0529,1.951,1.9026,1.904,1.8922,1.8673,1.8298,1.7648,1.7005,1.6358,1.5349,1.4582,1.3982,1.3437,1.3338,1.3479,1.2999,1.2764,1.2634,1.241,1.2316,1.2316,0.0,0.0,0.0,0.0,0.0,0.0,0.0,0.0,0.0,0.0,0.0,0.0,0.0,0.0,0.892,0.7806,0.6578,0.5574,0.4869,0.5492,0.0,0.0,0.0,0.0,0.0,0.0,0.0,0.0,0.0,0.0,0.0,1.7425,1.7087,1.6221,1.7046,1.6754,0.0,0.0,0.0,1.2984,0.0,0.0,1.0514,0.0,0.0,0.0,0.0,0.0,0.0,0.0,0.0,0.0,0.0,0.0,0.0,0.0,0.0,0.0,2.2376,0.0,0.0,0.0,0.0,0.0,0.0,0.0,0.0,0.0,0.0,0.0,0.0,0.0,0.0,0.0,0.0,0.0,0.0,0.0,0.0,0.0,0.0,0.0,0.0,0.0,0.0,0.0,0.0,0.0,2.419,2.419,2.3951,2.341,2.2887,2.2061,2.096,1.9713,1.9166,1.9297,1.9166,1.9069,1.8966,1.8208,1.777,1.7567,1.6733,1.5872,1.5014,1.4293,1.4072,1.4156,1.366,1.3416,1.3346,1.3346,1.3346,1.3346,0.0,0.0,0.0,0.0,0.0,0.0,0.0,0.0,0.0,0.9646,0.0,0.0,0.0,0.0,0.0,0.7836,0.7058,0.6317,0.5569,0.6177,0.0,0.0,0.0,0.0,0.0,0.0,0.0,0.0,0.0,0.0,0.0,0.0,1.6313,1.6143,1.5461,1.502,1.4746,0.0,1.4084,1.2992,0.0,1.1996,1.0498,0.0,0.0,0.0,0.8776,0.8075,0.0,0.0,0.0,0.0,0.0,0.0,0.0,0.0,0.0,0.0,0.0,0.0,0.0,0.0,0.0,0.0,0.0,0.0,0.0,0.0,0.0,0.0,0.0,0.0,0.0,0.0,0.0,0.0,0.0,0.0,0.0,0.0,0.0,0.0,0.0,0.0,0.0,0.0,0.0,2.419,2.419,2.419,2.419,2.419,2.2657,2.1812,2.1794,2.016,1.9315,1.9297,1.9297,1.9206,1.8992,1.8734,1.8604,1.8559,1.7576,1.6597,1.5695,1.5918,1.5714,1.5251,1.5224,1.5053,1.4815,1.4815,1.4815,1.4815,0.0,0.0,0.0,0.0,0.0,0.0,0.0,0.0,0.0,0.0,0.0,0.0,0.9715,0.9715,0.9268,0.8146,0.7867,0.734,0.6349,0.5982,0.6036,0.6588,0.6983,0.0,0.0,0.0,0.0,0.0,0.0,0.0,0.0,0.0,0.0,0.0,1.446,1.4072,1.3844,1.3895,0.0,0.0,1.2256,1.1507,0.0,0.0,0.0,0.0,0.0,0.8016,0.7754,0.0,0.8099,0.8852,0.0,0.0,0.0,0.0,0.0,0.0,2.0352,0.0,0.0,0.0,0.0,0.0,2.3974,0.0,0.0,0.0,0.0,0.0,0.0,0.0,0.0,0.0,0.0,0.0,0.0,0.0,0.0,0.0,0.0,0.0,0.0,0.0,0.0,0.0,2.419,2.419,2.419,2.419,2.419,2.419,2.3199,2.2391,2.1812,2.0703,1.9877,1.9297,1.9297,1.9266,1.9214,1.8983,1.8896,1.8869,1.861,1.8216,1.7683,1.6498,1.624,1.65,1.5771,1.5439,1.5372,1.5372,1.5372,1.5372,0.0,0.0,0.0,0.0,0.0,0.0,0.0,0.0,0.0,0.0,0.0,0.0,0.9866,0.9646,0.9302,0.8852,0.8583,0.8175,0.7477,0.6788,0.6537,0.6806,0.6965,0.7566,0.0,0.0,0.0,0.0,0.0,0.0,0.0,0.0,0.0,0.0,0.0,0.0,0.0,0.0,0.0,0.0,1.182,0.0,0.0,0.923,0.8748,0.0,0.0,0.0,0.6939,0.7108,0.7275,0.0,0.0,0.0,0.0,0.0,0.0,0.0,0.0,0.0,0.0,0.0,0.0,0.0,2.3432,2.4035,0.0,0.0,0.0,0.0,0.0,0.0,0.0,0.0,0.0,0.0,0.0,0.0,0.0,0.0,0.0,0.0,0.0,0.0,0.0,0.0,2.419,2.419,2.419,2.419,2.419,2.419,2.341,2.2611,2.1812,2.0941,2.0089,1.9297,1.9297,1.9297,1.9289,1.9084,1.9043,1.9117,1.9035,1.8957,1.8806,1.771,1.7379,1.7498,1.6907,1.6612,1.6525,1.6525,1.6323,1.6062,0.0,0.0,0.0,0.0,0.0,0.0,0.0,0.0,0.0,0.0,1.0167,1.018,1.0214,0.969,0.9451,0.9713,0.9259,0.8877,0.8732,0.8118,0.7592,0.7249,0.7531,0.7972,0.858,0.0,0.0,0.0,0.0,0.0,0.0,0.0,0.0,0.0,0.0,0.0,0.0,0.0,0.0,1.224,1.1471,1.088,0.0,0.0,0.7929,0.0,0.6883,0.6042,0.5521,0.6375,0.6377,0.0,0.0,0.0,0.0,0.0,1.5335,0.0,0.0,0.0,0.0,0.0,0.0,0.0,2.3055,2.3711,2.4238,0.0,0.0,0.0,0.0,0.0,0.0,0.0,0.0,0.0,0.0,0.0,0.0,0.0,0.0,0.0,0.0,0.0,2.4218,2.419,2.419,2.419,2.419,2.419,2.419,2.419,2.3511,2.2703,2.1812,2.1033,2.0189,1.9297,1.9297,1.9297,1.9289,1.9109,1.9125,1.9289,1.9101,1.9134,1.9282,1.9119,1.8734,1.829,1.8259,1.8072,1.7839,1.7754,1.7285,1.6682,0.0,0.0,0.0,0.0,0.0,0.0,0.0,0.0,0.0,0.0,1.0506,1.0593,1.0795,1.0539,1.0227,1.0047,0.9927,0.9748,0.9512,0.8607,0.8058,0.7993,0.7804,0.7771,0.7898,0.0,0.0,0.0,0.0,0.0,0.0,0.0,0.0,0.0,0.0,0.0,0.0,0.0,0.0,1.1752,1.0738,0.0,0.9434,0.8382,0.7567,0.685,0.598,0.5557,0.5507,0.0,0.6226,0.6507,0.0,0.0,0.0,0.0,0.0,0.0,0.0,0.0,0.0,0.0,0.0,0.0,2.1685,2.2484,2.299,0.0,0.0,0.0,0.0,0.0,0.0,0.0,0.0,0.0,0.0,0.0,0.0,0.0,0.0,0.0,0.0,0.0,2.4375,2.4209,2.419,2.419,2.419,2.419,2.419,2.419,2.4043,2.3272,2.1812,2.1629,2.0784,1.9297,1.9297,1.9297,1.9297,1.9251,1.9259,1.9297,1.9251,1.9259,1.9297,1.9251,1.9074,1.8816,1.8622,1.8361,1.8045,1.7455,1.7014,1.6635,0.0,0.0,0.0,0.0,0.0,0.0,0.0,0.0,0.0,0.0,0.0,0.0,0.0,0.0,0.0,0.0,0.0,0.0,0.0,0.0,0.0,0.8414,0.8291,0.8076,0.7696,0.941,0.0,0.0,0.0,0.0,0.0,0.0,0.0,0.0,0.0,0.0,0.0,0.0,1.1444,1.1604,1.0377,0.0,0.9849,0.8973,0.8388,0.7832,0.6531,0.5785,0.5448,0.5723,0.5931,0.0,0.0,0.8856,1.0182,0.0,1.3585,1.4936,0.0,0.0,0.0,1.9211,0.0,0.0,0.0,2.1381,2.1581,2.1639,0.0,0.0,0.0,0.0,0.0,0.0,0.0,0.0,0.0,0.0,0.0,0.0,0.0,0.0,0.0,0.0,2.4428,2.4209,2.419,2.419,2.419,2.419,2.419,2.419,2.419,2.3621,2.2409,2.1996,2.117,1.9895,1.9499,1.9297,1.9297,1.9297,1.9297,1.9297,1.9297,1.9077,1.872,1.9132,1.899,1.8572,1.8725,1.8547,1.8111,1.7371,1.6703,1.6055,1.0593,0.0,0.0,0.0,0.0,0.0,0.0,0.0,0.0,0.0,0.0,0.0,0.0,0.0,0.0,0.0,0.0,0.0,0.0,0.0,0.0,0.0,0.8862,0.8565,0.791,0.9164,1.0381,0.0,0.0,0.0,0.0,0.0,0.0,0.0,0.0,0.0,0.0,0.0,0.0,1.1587,0.0,1.0094,1.0269,0.9562,0.9204,0.8871,0.739,0.6359,0.5726,0.5726,0.0,0.6344,0.7042,0.7959,0.0,0.0,0.0,0.0,0.0,0.0,0.0,0.0,0.0,1.8482,0.0,0.0,0.0,2.0344,0.0,0.0,0.0,0.0,0.0,0.0,0.0,0.0,0.0,0.0,0.0,0.0,0.0,0.0,0.0,0.0,2.4375,2.4209,2.419,2.419,2.419,2.419,2.419,2.419,2.419,2.3804,2.3006,2.2354,2.151,2.0484,1.984,1.9444,1.9297,1.9297,1.9297,1.9297,1.9132,1.8702,1.8151,1.8629,1.8463,1.7946,1.8746,1.8672,1.8019,1.7279,1.6354,1.539,1.0593,1.0593,0.0,0.0,0.0,0.0,0.0,0.0,0.0,0.0,0.0,0.0,0.0,0.0,0.0,0.0,0.0,0.0,1.0942,0.0,0.0,0.0,0.0,0.0,0.8679,0.9406,1.0159,0.0,0.0,0.0,0.0,0.0,0.0,0.0,1.3792,0.0,0.0,0.0,1.2298,0.0,1.0878,1.0127,0.0,0.9338,0.8812,0.8098,0.7577,0.7204,0.6894,0.0,0.6926,0.7087,0.0,0.8333,0.0,0.0,0.0,0.0,0.0,0.0,0.0,0.0,1.6217,0.0,0.0,0.0,1.7378,1.7399,0.0,0.0,0.0,0.0,0.0,0.0,0.0,0.0,0.0,0.0,0.0,0.0,0.0,0.0,0.0,0.0,0.0,2.419,2.419,2.419,2.419,2.419,2.419,2.419,2.419,2.3804,2.3006,2.2914,2.207,2.0503,2.0419,1.9987,1.9297,1.9297,1.9297,1.926,1.8555,1.8188,1.8052,1.7429,1.7128,1.7183,1.868,1.8653,1.7676,1.6936,1.5971,1.4955,1.0593,1.0593,0.0,0.0,0.0,0.0,0.0,0.0,0.0,0.0,0.0,0.0,0.0,0.0,0.0,0.0,0.0,1.1176,0.0,0.0,0.0,0.0,0.0,0.0,0.0,0.8808,0.9397,1.0788,1.1349,0.0,0.0,0.0,0.0,0.0,1.3792,0.0,1.342,0.0,0.0,0.0,0.0,0.0,0.0,0.9983,0.939,0.8425,0.8122,0.7615,0.7091,0.0,0.7302,0.0,0.0,0.0,0.0,0.0,0.0,0.0,0.0,0.0,0.0,0.0,0.0,0.0,0.0,0.0,1.5504,0.0,0.0,0.0,0.0,0.0,0.0,0.0,0.0,0.0,0.0,0.0,0.0,0.0,0.0,0.0,0.0,0.0,0.0,0.0,0.0,2.419,2.419,2.419,2.419,2.419,2.419,2.4043,2.3694,2.2776,2.1951,2.1235,2.0262,1.962,1.9297,1.9297,1.9297,1.9279,1.8948,1.828,1.7403,1.7539,1.7043,1.631,1.7465,1.7537,1.6905,1.6175,1.5522,1.4884,1.0593,0.0,0.0,0.0,0.0,0.0,0.0,0.0,0.0,0.0,0.0,0.0,1.1516,1.143,0.0,0.0,0.0,1.1543,0.0,0.0,1.0506,0.0,0.0,0.0,0.0,0.0,0.0,0.0,0.0,0.0,0.0,0.0,0.0,0.0,0.0,1.3873,1.3586,0.0,0.0,1.1728,1.174,1.1042,1.0027,1.0358,0.982,0.8896,0.8679,0.8155,0.7557,0.7557,0.7835,0.0,0.8153,0.0,0.0,0.0,0.0,0.0,1.1812,0.0,0.0,0.0,0.0,0.0,0.0,0.0,0.0,0.0,0.0,0.0,0.0,0.0,0.0,0.0,0.0,0.0,0.0,0.0,0.0,0.0,0.0,0.0,0.0,0.0,0.0,0.0,2.419,0.0,2.419,2.419,2.419,2.419,2.419,2.419,2.419,2.3043,2.2235,2.1794,2.0564,1.9738,1.9297,1.9297,1.9297,1.9297,1.9077,1.8188,1.6927,1.7282,1.6628,1.5435,1.601,1.6119,1.5908,1.5594,1.5216,1.4774,1.0593,1.0593,0.0,0.0,0.0,0.0,0.0,0.0,0.0,0.0,0.0,0.0,0.0,0.0,0.0,0.0,0.0,1.2151,1.1899,0.0,1.0595,0.0,0.0,0.8463,0.0,0.0,0.0,0.0,0.0,0.0,0.0,0.0,0.0,0.0,0.0,1.4025,1.3022,1.4591,1.4317,1.2786,1.2144,1.102,0.9733,0.0,0.9744,0.9182,0.9175,0.0,0.0,0.8752,0.8752,0.0,0.0,0.0,0.0,0.0,0.0,0.0,0.0,0.0,0.0,1.1407,0.0,0.0,0.0,0.0,1.1903,0.0,0.0,0.0,0.0,0.0,0.0,1.6024,0.0,0.0,0.0,0.0,0.0,0.0,0.0,0.0,0.0,0.0,0.0,2.419,2.419,2.419,2.419,2.419,2.419,2.419,2.419,2.419,2.419,2.4153,2.3336,2.1794,2.1739,2.0876,1.9297,1.9297,1.9297,1.926,1.8482,1.7667,1.6835,1.6096,1.5288,1.4548,1.4567,1.4561,1.4665,1.5411,1.5184,1.4471,0.0,0.0,0.0,0.0,0.0,0.0,0.0,1.1009,0.0,0.0,0.0,0.0,0.0,0.0,1.2418,0.0,0.0,1.2091,1.1603,1.139,0.0,0.0,0.0,0.8322,0.0,0.0,0.0,0.0,0.0,0.0,0.0,0.0,0.0,0.0,0.0,1.3873,0.0,0.0,0.0,0.0,0.0,1.0258,0.9371,0.0,0.0,0.9184,0.8998,0.8891,0.0,0.8804,0.8804,0.8804,0.8804,0.8804,0.8831,0.9087,0.9133,0.0,0.0,0.0,1.1107,1.0963,0.0,0.0,0.0,0.0,0.0,0.0,0.0,0.0,0.0,0.0,1.4587,1.3974,1.5071,0.0,0.0,0.0,0.0,0.0,0.0,0.0,0.0,0.0,0.0,2.418,2.419,2.419,0.0,2.419,2.419,2.419,2.419,2.419,2.419,2.3676,2.2868,2.1794,2.1216,2.0354,1.9297,1.9297,1.9297,1.9279,1.9022,1.8151,1.6927,1.7172,1.6188,1.4548,1.5086,1.4976,1.4518,1.4654,1.4624,1.4482,1.0727,0.0,0.0,0.0,0.0,0.0,0.0,0.0,0.0,0.0,1.2496,0.0,1.3006,0.0,1.2576,0.0,1.2472,1.2098,1.1617,1.139,0.0,1.0459,0.8852,0.0,0.0,0.0,0.0,0.0,0.0,1.0183,0.0,0.0,0.0,0.0,0.0,0.0,1.3512,0.0,1.3631,0.0,0.0,1.0401,0.0,0.0,0.9478,0.9058,0.0,0.9159,0.9159,0.9159,0.9159,0.9159,0.9159,0.8982,0.8804,0.8804,0.8804,0.8883,0.9335,0.9935,0.0,1.0264,1.058,0.0,1.0648,0.0,0.0,0.0,0.0,0.0,0.0,0.0,0.0,1.2733,1.3435,1.4601,0.0,1.7555,0.0,0.0,0.0,0.0,0.0,0.0,2.3516,2.3988,2.4123,2.419,0.0,0.0,2.419,2.419,2.419,2.419,2.419,2.3694,2.2887,2.1794,2.1235,2.0372,1.9297,1.9297,1.9297,1.9297,1.9297,1.8555,1.733,1.7575,1.6585,1.4958,1.5178,1.4958,1.4476,1.4276,1.4282,1.4393,0.0,0.0,0.0,0.0,1.0854,0.0,0.0,0.0,1.2392,0.0,1.2797,1.2804,1.2804,1.2797,1.2777,1.2764,1.2452,0.0,1.1879,1.1303,0.0,0.0,0.8805,0.7823,0.733,0.0,0.0,0.0,0.0,0.0,0.0,0.0,0.0,0.0,1.3792,0.0,1.2949,1.3928,1.4023,1.3404,1.2722,1.1403,0.9917,1.0585,0.0,0.8982,0.9614,0.984,0.984,0.984,0.984,0.984,0.984,0.9413,0.891,0.891,0.891,0.891,0.891,0.9361,0.9765,0.9383,0.0,0.0,0.0,0.0,1.1444,0.0,0.0,0.0,0.0,0.0,0.0,1.2152,1.2666,1.3766,0.0,0.0,0.0,0.0,0.0,0.0,0.0,2.2076,2.2929,2.3649,2.4006,0.0,0.0,0.0,2.419,2.419,2.419,2.419,2.419,2.418,2.3373,2.1794,2.1785,2.0904,1.9297,1.9297,1.9297,1.9297,1.9297,1.8831,1.8034,1.7275,1.6456,1.5625,1.486,1.4524,1.4464,1.4282,1.4195,1.4175,1.0982,1.1109,1.1202,0.0,1.1089,1.1162,0.0,0.0,0.0,0.0,1.2985,1.3093,1.3093,1.2924,1.2697,1.2438,1.2187,0.0,0.0,0.0,0.0,1.0492,0.9488,0.8623,0.7822,0.6551,0.0,0.7037,0.0,0.0,1.1751,0.0,0.0,0.0,0.0,0.0,1.2935,1.3486,1.3359,1.2713,1.2179,1.1411,0.0,0.0,1.1015,1.032,1.0491,1.0542,1.0542,1.0542,1.0542,1.0542,1.0542,1.044,1.0295,1.0295,1.0295,1.0295,1.0295,1.0415,1.0518,1.043,1.0531,1.0681,0.0,0.0,0.0,0.0,0.0,0.0,0.0,0.0,0.0,0.0,1.1605,0.0,0.0,0.0,0.0,0.0,0.0,0.0,0.0,2.2177,2.324,2.3664,2.4006,0.0,0.0,0.0,0.0,2.419,2.419,2.419,2.419,2.3947,2.3155,2.1794,2.1543,2.0688,1.9297,1.9297,1.9297,1.9297,1.9297,1.8831,1.8071,1.7887,1.6977,1.568,1.5472,1.494,1.4289,1.4387,1.4167,1.3855,1.1156,0.0,0.0,1.1643,0.0,0.0,1.1852,0.0,0.0,1.2782,1.2938,0.0,1.2826,1.2583,1.2281,1.1944,1.1657,0.0,0.0,0.0,0.0,1.06,0.9754,0.9075,0.8581,0.7338,0.0,0.8111,0.0,0.0,1.2604,0.0,0.0,0.0,0.0,1.3457,0.0,1.3135,1.2837,1.2208,1.2255,0.0,0.0,1.2005,1.2039,1.1717,1.1717,1.15,1.1241,1.1241,1.1241,1.1241,1.1241,1.104,1.0788,1.0788,1.0788,1.0788,1.0788,1.0788,1.0788,1.0788,1.1015,1.1216,1.1124,1.1434,1.1931,0.0,0.0,0.0,0.0,0.0,0.0,0.0,0.0,0.0,0.0,0.0,0.0,0.0,0.0,0.0,0.0,0.0,2.2581,0.0,0.0,0.0,0.0,0.0,0.0,2.3774,2.3756,2.3756,2.3756,2.3577,2.2945,2.1881,2.1499,2.0725,1.9641,1.9408,1.9297,1.9297,1.9297,1.904,1.8592,1.8243,1.7355,1.6145,1.5454,1.4831,1.4332,1.4458,1.4256,1.3934,0.0,0.0,0.0,0.0,0.0,0.0,0.0,1.2342,0.0,1.267,0.0,1.2543,1.2171,1.1904,1.1617,1.1249,0.0,1.0862,1.0828,1.0613,1.0492,1.0533,0.9799,0.9366,0.9306,0.8135,0.0,0.0,0.0,1.1165,1.3588,0.0,0.0,0.0,0.0,0.0,0.0,1.2905,1.2525,0.0,1.2632,1.2535,1.1996,1.2666,1.2905,1.2905,1.2905,1.2476,1.1947,1.1947,1.1947,1.1947,1.1947,1.155,1.1074,1.1074,1.1074,1.1074,1.1074,1.099,1.0939,1.1049,1.1441,1.1789,1.1798,1.2378,1.3128,1.4014,1.3764,1.3648,0.0,0.0,0.0,0.0,0.0,0.0,0.0,0.0,0.0,0.0,0.0,0.0,0.0,0.0,0.0,0.0,0.0,0.0,0.0,0.0,0.0,0.0,2.32,0.0,2.32,0.0,2.2741,2.1982,2.1447,2.0808,2.0083,1.9512,1.9292,1.9297,1.9297,1.9297,1.9242,1.8427,1.7557,1.6597,1.5209,1.4585,1.4493,1.4493,1.4387,1.4201,0.0,0.0,0.0,0.0,0.0,1.1906,1.1906,1.1993,1.206,1.206,1.206,0.0,1.1283,1.1176,1.0929,1.0394,1.027,0.0,0.0,0.0,0.0,1.018,1.0041,0.9743,0.93,0.89,0.8926,0.0,1.0373,1.1591,1.298,1.4052,0.0,0.0,0.0,0.0,1.2905,1.2905,0.0,1.2725,1.2856,1.2822,1.2715,1.2856,1.2905,1.2905,1.2905,1.2822,1.2715,1.2715,1.2715,1.2715,1.2715,1.2618,1.2544,1.2544,1.2544,1.2544,1.2544,1.2089,1.1774,1.2378,1.2163,1.2086,1.3164,1.3132,1.3224,1.4363,1.4778,1.4777,1.4282,0.0,0.0,0.0,0.0,0.0,0.0,0.0,0.0,0.0,0.0,0.0,0.0,0.0,0.0,0.0,0.0,0.0,0.0,0.0,0.0,0.0,0.0,0.0,0.0,0.0,2.2525,2.1982,2.1021,2.0393,2.0083,1.9361,1.9142,1.9297,1.9297,1.9297,1.9242,1.8427,1.7234,1.5876,1.56,1.5086,1.4493,1.4493,1.4476,1.4393,0.0,0.0,0.0,0.0,0.0,0.0,0.0,1.2469,0.0,1.1988,1.2202,1.2173,1.1615,1.1147,1.0728,1.0432,1.0404,1.037,1.0221,1.0544,1.0803,1.093,1.0937,0.0,1.0557,1.0313,1.042,1.0895,1.1271,1.209,1.3345,1.3946,0.0,0.0,0.0,1.3176,0.0,0.0,0.0,1.2905,1.2905,1.2905,1.2905,1.2905,1.2905,1.2954,1.3262,1.3372,1.3324,1.3017,1.2905,1.2905,1.2905,1.2905,1.2905,1.2905,1.2905,1.2905,1.2905,1.2632,1.2452,1.2798,1.2642,1.254,1.318,1.3104,1.3248,1.4456,1.4846,1.4902,1.4635,1.4374,0.0,0.0,0.0,0.0,0.0,0.0,0.0,0.0,0.0,0.0,0.0,0.0,0.0,0.0,0.0,0.0,0.0,0.0,0.0,0.0,0.0,0.0,0.0,0.0,0.0,2.2146,2.096,2.0428,2.0426,1.9453,1.9101,1.9297,1.9297,1.9297,1.9242,1.8427,1.7638,1.6867,1.6029,1.5454,1.5068,1.4658,1.4493,1.4447,0.0,1.2504,0.0,0.0,1.3437,0.0,0.0,1.2936,1.2629,1.2091,1.2351,1.2392,1.1983,1.1257,1.0798,1.0723,1.0715,1.0715,1.0715,1.1205,1.154,1.1613,1.1613,1.1654,1.1699,1.1486,1.1761,0.0,1.222,1.2749,0.0,1.398,0.0,0.0,0.0,0.0,0.0,0.0,1.2905,1.2905,1.2905,1.2905,1.2905,1.2905,1.2968,1.3152,1.3637,1.3886,1.392,1.3454,1.3272,1.3272,1.3272,1.32,1.3079,1.3079,1.2992,1.2905,1.2905,1.2905,1.2905,1.2905,1.2905,1.292,1.3055,1.2894,1.3067,1.4314,1.4665,1.4888,1.5244,1.5323,0.0,0.0,0.0,0.0,0.0,0.0,0.0,0.0,0.0,0.0,0.0,0.0,0.0,0.0,0.0,0.0,0.0,0.0,0.0,0.0,0.0,2.1827,2.1812,0.0,2.184,0.0,2.0956,2.0495,2.077,1.9485,1.9059,1.9297,1.9297,1.9297,1.9242,1.861,1.8262,1.7961,1.6702,1.601,1.5625,1.4995,1.4658,1.4471,0.0,0.0,0.0,0.0,0.0,0.0,0.0,1.2879,1.2707,1.2158,1.193,1.1695,1.1426,1.1306,1.1125,1.0817,1.0792,1.0792,1.0792,1.0835,1.1017,1.1319,1.1335,1.1456,1.1691,1.1667,1.2125,0.0,0.0,1.3614,0.0,1.4617,0.0,0.0,0.0,0.0,0.0,1.2905,1.2905,1.2905,1.2905,1.2905,1.2905,1.2905,1.3238,1.3732,1.3779,1.4143,1.4606,1.4548,1.4525,1.4525,1.4525,1.4154,1.3708,1.3708,1.3334,1.2905,1.2905,1.2905,1.2905,1.2905,1.2905,1.3041,1.36,1.2862,1.2474,1.3872,1.4578,1.5254,1.6175,1.6348,1.6506,0.0,0.0,0.0,0.0,0.0,0.0,0.0,0.0,0.0,0.0,1.9825,0.0,0.0,0.0,0.0,0.0,0.0,0.0,2.2521,0.0,2.2568,2.2505,2.1895,0.0,2.2279,2.0767,2.0307,2.0742,1.9302,1.8869,1.9297,1.9297,1.9297,1.9297,1.9224,1.8757,1.8096,1.7924,1.6977,1.5698,1.5625,1.5123,1.458,0.0,0.0,0.0,0.0,0.0,0.0,0.0,1.3237,1.3111,1.2642,1.2696,1.2658,1.2307,1.1864,1.1557,1.14,1.1409,1.1409,1.1391,1.1807,1.2286,1.279,1.279,1.3016,1.3487,1.3487,1.3703,0.0,0.0,0.0,0.0,0.0,0.0,0.0,0.0,1.3443,1.3443,1.3443,1.3647,1.3978,1.3978,1.3978,1.3978,1.3978,1.4131,1.4399,1.4755,1.505,1.5298,1.5656,1.5299,1.4698,1.4698,1.4537,1.4329,1.4329,1.4177,1.3978,1.3978,1.351,1.3096,1.3372,1.2766,1.2332,1.3147,1.2738,1.2314,1.2795,1.4149,1.5393,1.5915,1.6557,1.7055,0.0,0.0,0.0,0.0,0.0,0.0,0.0,0.0,0.0,0.0,0.0,2.0781,0.0,0.0,0.0,0.0,0.0,0.0,2.3391,0.0,2.2238,2.2667,2.1959,2.184,2.2279,2.0728,2.0191,2.0523,1.9203,1.8851,1.9297,1.9297,1.9297,1.9297,1.9297,1.9113,1.8775,1.8298,1.7711,1.7087,1.6603,1.6218,1.5967,1.3784,0.0,1.3543,0.0,1.4265,1.3953,1.4023,1.3921,1.3689,1.324,1.3411,1.3417,1.2959,1.2452,1.2129,1.2129,1.2286,1.2399,1.2404,1.304,1.3634,1.405,1.405,0.0,1.4686,1.4698,1.4789,1.496,1.496,0.0,0.0,0.0,0.0,0.0,1.4143,1.405,1.405,1.405,1.4306,1.4698,1.4698,1.4698,1.4698,1.4698,1.4812,1.5017,1.5454,1.572,1.593,1.6358,1.5932,1.522,1.522,1.5107,1.4937,1.4778,1.4598,1.4429,1.4239,1.3784,1.3364,1.3534,1.2914,1.2395,1.29,1.2648,1.2412,1.2641,1.3934,1.5259,1.6016,1.69,1.7619,1.794,0.0,0.0,0.0,0.0,0.0,0.0,0.0,1.927,1.9151,0.0,0.0,0.0,0.0,0.0,0.0,0.0,0.0,0.0,0.0,0.0,0.0,2.1959,2.184,2.2279,2.0728,2.0147,2.0367,1.9233,1.8895,1.9222,1.9266,1.9297,1.9297,1.9297,1.9297,1.9242,1.8665,1.8317,1.8034,1.7465,1.7092,1.6927,1.6026,1.5963,1.5963,1.5963,1.559,1.5282,1.527,1.4941,1.4479,1.3873,1.3779,1.3576,1.2978,1.2881,1.2881,1.2881,1.3433,1.3768,1.3768,1.4329,1.4675,0.0,0.0,1.4698,1.4698,1.4698,1.4983,1.5588,0.0,0.0,1.6466,0.0,1.5588,1.5543,1.4971,1.4686,1.4686,1.4686,1.4698,1.4698,1.4698,1.4698,1.4698,1.4698,1.5073,1.5588,1.561,1.5974,1.65,1.65,1.65,1.6479,1.6479,1.6073,1.5492,1.4962,1.4382,1.3782,1.3166,1.3461,1.3738,1.3155,1.344,1.3727,1.3144,1.2689,1.2724,1.384,1.4098,1.4751,1.6891,1.7673,1.834,1.9393,0.0,0.0,0.0,0.0,0.0,0.0,2.028,2.0141,1.9729,0.0,0.0,0.0,0.0,0.0,0.0,0.0,0.0,2.262,2.2667,0.0,2.2604,2.1928,2.184,2.2279,2.0728,2.0147,2.0379,1.9409,1.901,1.9009,1.9204,1.9297,1.9297,1.9297,1.9297,1.9297,1.9297,1.8794,1.8089,1.8089,1.7575,1.7018,1.5187,1.5121,1.5121,1.5121,1.4696,1.4339,1.4339,1.3894,1.3465,1.3271,1.3249,1.3064,1.2558,1.2745,1.2905,0.0,1.3443,1.3792,0.0,1.4352,1.488,1.5298,1.532,1.5511,1.5932,1.5932,1.6191,1.6756,0.0,0.0,0.0,1.6303,1.5986,1.5588,1.5387,1.532,1.532,1.532,1.5555,1.5932,1.5932,1.5932,1.5932,1.5932,1.6064,1.6216,1.6216,1.6337,1.65,1.65,1.65,1.6552,1.693,1.6409,1.5624,1.5463,1.5033,1.453,1.4348,1.3891,1.352,1.3645,1.3069,1.2572,1.2976,1.2991,1.3059,1.341,1.3803,1.4387,1.5348,1.6831,1.8151,1.881,2.0174,0.0,0.0,0.0,0.0,0.0,0.0,2.0246,0.0,2.0649,0.0,0.0,0.0,0.0,0.0,0.0,0.0,0.0,2.2947,0.0,2.315,2.2429,2.2149,2.2279,2.0728,1.9602,1.8897,1.8598,1.8642,1.8992,1.9069,1.9174,1.9297,1.9297,1.9297,1.9297,1.9297,1.915,1.893,1.893,1.8757,1.8574,1.5425,1.5389,1.5318,1.5109,1.4804,1.4514,1.4315,1.3959,1.3628,1.3404,1.3542,1.3379,1.2647,1.2986,0.0,1.2987,1.355,1.4064,1.4446,1.5039,1.5533,1.5908,1.593,1.6225,1.6795,0.0,0.0,1.7605,1.725,1.7097,1.7097,1.69,1.66,1.6232,1.6039,1.593,1.593,1.593,1.6173,1.65,1.65,1.65,1.65,1.65,1.65,1.65,1.65,1.65,1.65,1.65,1.6637,1.682,1.6898,1.6461,1.5925,1.5925,1.5503,1.5008,1.48,1.4306,1.3871,1.4137,1.3527,1.2975,1.3325,1.3305,1.3248,1.3496,1.3971,1.4521,1.5181,1.6995,1.8542,1.9049,2.0682,2.1779,2.1524,0.0,0.0,0.0,0.0,0.0,0.0,2.0959,0.0,0.0,0.0,0.0,0.0,0.0,0.0,2.3661,2.2784,0.0,2.2987,2.2533,2.2175,2.187,2.0318,1.9044,1.804,1.8146,1.844,1.8861,1.8958,1.9109,1.9297,1.9297,1.9297,1.9297,1.9297,1.9297,1.9297,1.9297,1.9297,1.9297,1.6616,1.657,0.0,0.0,1.5719,0.0,1.5005,1.4872,1.4636,1.4077,1.4407,1.4254,1.3102,1.3469,1.3608,1.3148,0.0,0.0,0.0,1.616,1.65,1.65,1.65,1.6752,1.7291,1.7312,1.7565,1.8106,1.8145,1.8145,1.8086,1.7585,1.7374,1.7333,1.6837,1.6595,1.6552,1.6552,1.6543,1.65,1.65,1.65,1.65,1.65,1.65,1.65,1.65,1.65,1.6488,1.6493,1.6815,1.7133,1.6534,1.6319,1.6277,1.6241,1.5761,1.5136,1.4637,1.4587,1.4662,1.4527,1.46,1.4562,1.4053,1.3598,1.3457,1.4011,1.444,1.5007,1.6023,1.7816,1.9296,1.9776,2.122,2.2279,2.2229,0.0,0.0,0.0,0.0,0.0,0.0,2.1384,2.1597,0.0,0.0,0.0,0.0,0.0,2.2296,2.2296,2.2296,2.2296,2.2296,2.2245,2.1837,2.1021,1.9599,1.8504,1.7811,1.8068,1.833,1.8604,1.8852,1.9092,1.9297,1.9297,1.9297,1.9297,1.9297,1.9297,1.9297,1.9297,1.9297,1.9297,0.0,0.0,1.6913,1.6798,1.6012,1.5349,1.5219,1.4589,1.4089,1.3938,1.3727,1.3332,1.2693,1.2749,1.2945,1.3232,1.4087,1.4914,1.5552,1.616,1.65,1.65,1.65,1.6752,1.7291,1.7312,1.7565,1.8106,1.8516,1.8496,1.8106,1.7967,1.7907,1.7907,1.7787,1.7483,1.7118,1.7118,1.6879,1.65,1.65,1.65,1.65,1.65,1.65,1.65,1.65,1.65,1.6489,1.6378,1.6426,1.6566,1.6711,1.6433,1.6007,1.564,1.5142,1.4665,1.4529,1.4532,1.4536,1.4497,1.4532,1.452,1.4385,1.4262,1.4222,1.4387,1.4479,1.4718,1.5271,1.7135,1.8541,1.8429,2.0586,2.2107,2.1546,2.1955,0.0,0.0,2.1809,2.1552,2.146,2.1536,2.1597,0.0,0.0,0.0,0.0,2.2296,2.2296,2.2296,2.2296,2.2296,2.2296,2.1735,2.0784,1.9435,1.9063,1.8504,1.78,1.7878,1.8146,1.8595,1.8678,1.8912,1.9297,1.9297,1.9297,1.9297,1.9297,1.9297,1.9297,1.9297,1.9297,1.9297,1.8106,1.7551,1.7018,1.678,1.5933,1.5232,1.496,1.4498,1.4165,1.4165,1.4021,1.3693,1.3203,1.3193,1.335,1.3643,1.3941,1.4561,1.5593,1.5952,1.6351,1.6845,1.6879,1.7229,1.8007,1.8027,1.8302,1.8836,1.9132,1.9132,1.8836,1.8574,1.8477,1.8458,1.8224,1.7947,1.7666,1.7666,1.7504,1.7229,1.7229,1.7076,1.6879,1.6879,1.6557,1.6191,1.6684,1.6504,1.6116,1.6526,1.6621,1.6555,1.6522,1.6539,1.6485,1.5929,1.544,1.5089,1.5089,1.4937,1.4768,1.4768,1.4768,1.4768,1.4768,1.4627,1.4501,1.4501,1.4643,1.493,1.5462,1.7273,1.8602,1.8395,2.0586,2.204,2.1309,2.1837,0.0,2.2296,2.2077,2.1913,2.1913,2.1913,2.1969,2.2088,0.0,0.0,2.2473,2.2473,2.2426,2.231,2.1972,2.1803,2.1803,2.0699,1.9735,1.8894,1.8555,1.82,1.78,1.7927,1.8208,1.8622,1.8734,1.8973,1.9297,1.9297,1.9297,1.9297,1.9297,1.9297,1.9297,1.9297,1.9297,1.9297,1.8341,1.7711,1.7051,1.6589,1.5884,1.5226,1.4774,1.4643,1.4596,1.4596,1.4644,1.4495,1.4053,1.4094,1.4162,1.4162,1.374,1.4155,1.5727,1.5823,1.6309,1.7375,1.7435,1.7887,1.8874,1.8987,1.9281,1.98,1.98,1.98,1.9782,1.9321,1.9066,1.9006,1.8535,1.8302,1.821,1.8113,1.8026,1.7948,1.7948,1.7671,1.7282,1.7282,1.6695,1.6015,1.6835,1.6454,1.5724,1.6633,1.6856,1.6677,1.6144,1.6517,1.7045,1.6471,1.6136,1.5941,1.5941,1.5653,1.5359,1.5359,1.5359,1.5359,1.5359,1.509,1.4847,1.4847,1.5208,1.5712,1.627,1.794,1.9192,1.901,2.0849,2.204,2.1309,0.0,2.2296,2.2296,2.2296,2.2296,2.2296,2.2335,2.245,2.2682,2.2746,2.2707,0.0,2.2534,2.2366,2.1972,2.1448,2.1115,2.0917,1.961,1.8897,1.8795,1.8121,1.78,1.7811,1.8089,1.8351,1.8604,1.8887,1.9109,1.9297,1.9297,1.937,1.9481,1.9481,1.9554,1.9683,1.9683,1.9683,1.9683,1.9442,1.8463,1.7572,1.75,1.6512,1.5684,1.561,1.5255,1.5013,1.5013,1.4727,1.45,1.442,1.4424,1.443,1.443,1.4365,1.4899,1.629,1.6376,1.685,1.794,1.7987,1.8283,1.8893,1.935,1.977,2.021,2.021,2.021,2.021,2.011,1.9897,1.9566,1.9479,1.9207,1.8736,1.817,1.7665,1.727,1.727,1.7213,1.7137,1.7137,1.7025,1.6832,1.6444,1.6172,1.6027,1.6135,1.617,1.6097,1.5905,1.6121,1.6425,1.6332,1.6461,1.6646,1.6646,1.6578,1.6538,1.6538,1.6538,1.6538,1.6538,1.6483,1.6443,1.6443,1.6993,1.7504,1.7599,1.9123,2.0134,1.9509,2.1033,2.204,2.1309,0.0,2.2296,2.2296,2.2296,2.2296,2.2296,2.25,2.266,2.2695,2.296,2.2728,2.1831,2.1772,2.1347,2.0386,2.0906,2.0679,1.9608,1.9366,1.8929,1.8297,1.7956,1.78,1.7811,1.8089,1.8351,1.8604,1.8887,1.9109,1.9297,1.9297,1.9693,2.0309,2.0309,2.0758,2.1408,2.1408,2.1408,2.1408,1.9226,1.8371,1.7578,1.7219,1.6413,1.5799,1.5799,1.5624,1.5477,1.5477,1.5104,1.4814,1.4814,1.4627,1.4501,1.4501,1.4501,1.5015,1.6211,1.635,1.6876,1.7956,1.8332,1.8779,1.9332,1.9788,2.0106,2.0297,2.055,2.0682,2.0682,2.0682,2.0582,2.0413,2.0413,2.0246,1.998,1.9272,1.8729,1.829,1.7871,1.7412,1.6982,1.6982,1.6629,1.617,1.6424,1.6106,1.5642,1.6198,1.6167,1.592,1.6031,1.6301,1.6607,1.6786,1.6812,1.6825,1.6978,1.6907,1.6825,1.6978,1.691,1.6802,1.6802,1.6802,1.6802,1.6802,1.7385,1.8006,1.8377,1.9295,2.0006,2.0042,2.0977,0.0,0.0,2.1962,2.2514,2.2514,2.2514,2.2514,2.2514,2.2621,2.2598,2.2345,2.2633,2.2417,2.1493,2.1297,2.0912,2.0233,2.0194,1.9629,1.8505,1.8642,1.8459,1.7982,1.8014,1.8025,1.8035,1.844,1.8706,1.8843,1.9512,1.9616,1.9334,1.9767,2.0162,2.0503,2.0503,2.1033,2.1794,2.1794,2.1794,2.1794,1.9049,1.8335,1.7647,1.715,1.65,1.6039,1.6039,1.6039,1.6039,1.6039,1.5725,1.5492,1.5492,1.5211,1.5031,1.5031,1.5031,1.5384,1.6201,1.6516,1.709,1.8038,1.8728,1.9281,1.969,2.0089,2.0348,2.0466,2.0926,2.1134,2.1134,2.1134,2.1086,2.0991,2.0991,2.0911,2.0703,1.9969,1.9419,1.8968,1.836,1.7668,1.6992,1.7091,1.6492,1.5738,1.6494,1.6129,1.5402,1.6203,1.6189,1.5856,1.6191,1.6528,1.6866,1.7199,1.7224,1.7179,1.7444,1.7325,1.7191,1.7455,1.7325,1.7134,1.7191,1.7215,1.7215,1.7215,1.7752,1.8434,1.9127,1.9613,2.0113,2.0801,0.0,0.0,0.0,2.2176,2.2708,2.2708,2.2708,2.2664,2.2554,2.2536,2.2345,2.1877,2.2157,2.1926,2.1007,2.0825,2.0488,1.9912,1.9509,1.8883,1.7992,1.8187,1.8187,1.7992,1.8187,1.8387,1.8575,1.8878,1.9191,1.9596,2.0237,2.0144,1.9638,2.0456,2.0804,2.0823,2.1006,2.1602,2.2363,2.2363,2.2363,2.2363,1.9704,1.8838,1.8146,1.81,1.7336,1.6725,1.6725,1.6725,1.6725,1.6725,1.6699,1.667,1.667,1.6644,1.663,1.663,1.663,1.6659,1.6736,1.7345,1.7973,1.8608,1.9277,1.9657,1.9708,2.0089,2.0516,2.0943,2.1353,2.1568,2.1568,2.1568,2.1353,2.0991,2.0991,2.0607,1.9938,1.9264,1.8578,1.7918,1.7841,1.76,1.7297,1.7628,1.7266,1.6576,1.6417,1.6087,1.5755,1.5844,1.5844,1.5856,1.6191,1.6528,1.6866,1.7199,1.7676,1.8166,1.8422,1.8303,1.816,1.8432,1.8293,1.816,1.8403,1.8462,1.8462,1.8462,1.8871,1.9418,2.0158,2.0713,2.1302,2.2049,0.0,0.0,2.2212,2.2489,2.2708,2.2708,2.2708,2.2531,2.2083,2.2047,2.187,2.1394,2.1653,2.128,1.9978,2.0134,1.968,1.8399,1.8966,1.9066,1.8555,1.8556,1.8556,1.8537,1.8556,1.8956,1.9678,1.921,1.9804,2.1196,2.072,2.0474,2.0474,2.1345,2.1702,2.1776,2.2511,2.3309,2.4025,2.4025,2.4025,2.4025,1.9405,1.8903,1.8362,1.7482,1.7048,1.6802,1.6802,1.6802,1.6802,1.6802,1.6802,1.6802,1.6802,1.6802,1.6802,1.6802,1.6802,1.6802,1.6802,1.7045,1.785,1.9373,2.0138,2.0514,2.0514,2.0894,2.1197,2.1368,2.1825,2.2032,2.2032,2.2032,2.1709,2.1147,2.1597,2.1118,1.9948,1.9694,1.9042,1.813,1.7675,1.729,1.7002,1.7136,1.7015,1.6753,1.6649,1.6528,1.6396,1.6177,1.6123,1.6163,1.6501,1.6699,1.6977,1.7848,1.8273,1.852,1.893,1.8753,1.8508,1.878,1.8659,1.8469,1.8576,1.8595,1.8595,1.8595,1.9115,1.963,1.9906,2.0127,2.046,2.1019,0.0,2.1356,2.1139,2.1954,2.2382,2.1892,2.1821,2.1757,2.1578,2.157,2.1218,2.0372,2.0616,2.0363,1.9354,1.9682,1.9583,1.889,1.899,1.8828,1.8368,1.8518,1.8595,1.8595,1.877,1.9264,2.0054,1.9964,2.0558,2.1661,2.1934,2.1758,2.1363,2.2208,2.2538,2.2575,2.2878,2.3492,2.419,2.419,2.419,2.419,1.947,1.9126,1.8681,1.749,1.7176,1.7117,1.7117,1.7117,1.7117,1.7117,1.7117,1.7117,1.7117,1.7117,1.7117,1.7117,1.7117,1.7117,1.7117,1.7325,1.8103,1.9506,2.0495,2.0991,2.0991,2.1384,2.1597,2.1597,2.2077,2.2192,2.1955,2.1955,2.1549,2.0839,2.135,2.0859,1.9659,1.9659,1.9097,1.8182,1.7667,1.7248,1.6964,1.708,1.698,1.6815,1.693,1.6892,1.6763,1.6528,1.6448,1.6514,1.685,1.703,1.7296,1.8211,1.8528,1.8688,1.9091,1.9024,1.8851,1.9042,1.8913,1.8734,1.8816,1.8816,1.8816,1.8816,1.9163,1.955,1.9781,1.9765,1.9889,2.0442,2.0725,2.0791,2.0564,2.1452,2.1912,2.1372,2.13,2.122,2.107,2.0959,2.055,1.9648,1.9795,1.9682,1.912,1.9186,1.9286,1.9425,1.8943,1.8789,1.9039,1.9004,1.8985,1.8985,1.9588,2.0299,2.108,2.0965,2.151,2.2565,2.2868,2.2685,2.2244,2.3052,2.3226,2.3024,2.3281,2.3712,2.419,2.419,2.4043,2.3823,2.0141,1.9639,1.9173,1.8428,1.8014,1.78,1.78,1.78,1.78,1.78,1.78,1.78,1.78,1.78,1.78,1.78,1.78,1.78,1.78,1.8488,1.8901,1.8904,2.0254,2.1007,2.0991,2.1399,2.1597,2.1597,2.2061,2.1921,2.119,2.119,2.0754,1.9985,2.0002,1.9592,1.8894,1.8894,1.8471,1.78,1.78,1.7595,1.7344,1.767,1.7384,1.6853,1.7187,1.7089,1.6802,1.6802,1.6802,1.6866,1.7199,1.7526,1.7839,1.8114,1.8373,1.8651,1.8913,1.915,1.9297,1.9297,1.915,1.9052,1.9251,1.9297,1.9297,1.9297,1.9142,1.9236,1.9957,1.9883,1.9944,2.0671,2.0795,2.0795,2.0795,2.1085,2.1282,2.1291,2.1282,2.1079,2.0541,2.0254,1.9866,1.9347,1.9297,1.9297,1.9289,1.8624,1.8686,1.9686,1.8759,1.9084,2.088,2.0167,1.9814,1.9832,2.1152,2.2208,2.2969,2.2171,2.2675,2.4153,2.3354,2.3006,2.3061,2.3878,2.3731,2.3098,2.3896,2.419,2.419,2.4199,2.3694,2.3006,2.0253,1.989,1.9433,1.8165,1.7867,1.78,1.78,1.78,1.78,1.78,1.78,1.78,1.78,1.78,1.78,1.78,1.78,1.78,1.78,1.8488,1.8894,1.8901,2.0333,2.0883,2.0309,2.1482,2.184,2.1317,2.1461,2.1427,2.119,2.0619,1.9947,1.9249,1.9778,1.9304,1.8155,1.8674,1.8471,1.78,1.78,1.7738,1.767,1.7749,1.7686,1.7502,1.7612,1.7589,1.7389,1.6626,1.6718,1.7175,1.7272,1.717,1.7112,1.7511,1.7735,1.7914,1.8273,1.8822,1.9297,1.9297,1.9251,1.9238,1.9282,1.9297,1.9297,1.9297,1.9243,1.9287,1.949,1.9477,1.9449,1.9515,2.0138,2.0337,1.9641,2.0228,2.053,1.9955,1.99,1.9833,1.9667,1.9593,1.9403,1.9102,1.9094,1.9252,1.9632,2.0112,2.0682,2.1369,2.1081,2.0922,2.0909,2.0354,2.0454,2.1207,2.1605,2.2208,2.2988,2.2749,2.3217,2.419,2.3951,2.3841,2.3859,2.4098,2.4061,2.3878,2.4255,2.4312,2.4154,2.3835,2.3407,2.2932,2.1068,2.0573,1.9987,1.8802,1.8331,1.8131,1.8131,1.8131,1.8131,1.8131,1.8025,1.8003,1.8093,1.7927,1.7828,1.7949,1.7867,1.78,1.78,1.8217,1.8454,1.8454,1.9743,2.0305,2.0002,2.1228,2.1647,2.119,2.0873,2.072,2.0703,1.9942,1.9169,1.8488,1.8932,1.8628,1.7834,1.8285,1.8217,1.78,1.78,1.785,1.796,1.796,1.8025,1.8131,1.8131,1.7914,1.7546,1.6901,1.6714,1.6752,1.6752,1.6576,1.6458,1.6844,1.7035,1.7247,1.7917,1.8225,1.85,1.915,1.9297,1.9297,1.9297,1.9297,1.9297,1.9297,1.9297,1.9297,1.9297,1.9297,1.9251,1.9134,1.9624,1.9811,1.9206,1.965,1.9968,1.9785,1.9767,1.9767,1.9767,1.9767,1.9583,1.9144,1.9418,1.9729,2.0056,2.0877,2.162,2.2243,2.1978,2.1728,2.1536,2.1385,2.1416,2.1653,2.2401,2.2997,2.3465,2.3465,2.3749,2.419,2.419,2.4247,2.4321,2.4321,2.4366,2.4444,2.4559,2.4534,2.4405,2.4129,2.3461,2.268,2.2231,2.1451,2.0661,1.9929,1.9137,1.8595,1.8595,1.8595,1.8595,1.8595,1.8391,1.833,1.8566,1.8156,1.7971,1.8208,1.8014,1.7861,1.7861,1.7861,1.7861,1.7861,1.8799,1.9487,1.9869,2.0755,2.1162,2.1027,2.0331,1.9968,1.9883,1.9147,1.8437,1.78,1.78,1.7811,1.7845,1.7845,1.7856,1.7861,1.7861,1.8025,1.8239,1.8239,1.8391,1.8595,1.8595,1.809,1.7382,1.7329,1.6632,1.5834,1.5894,1.5886,1.587,1.6129,1.6298,1.6619,1.7617,1.741,1.7257,1.872,1.915,1.9205,1.9279,1.9297,1.9297,1.9297,1.9297,1.9297,1.9297,1.9297,1.9297,1.9297,1.9297,1.9334,1.9407,1.9407,1.9711,2.0529,2.0621,2.0629,2.0635,2.0596,2.0236,1.9493,2.0102,2.0582,2.0731,2.1234,2.1884,2.262,2.2001,2.1938,2.2548,2.2921,2.2584,2.1559,2.3352,2.419,2.419,2.419,2.419,2.419,2.4218,2.4339,2.4503,2.452,2.4631,2.4804,2.4799,2.4754,2.4691,2.4643,2.3591,2.218,2.2231,2.1451,2.0661,1.9929,1.9137,1.8595,1.8595,1.8595,1.8595,1.8595,1.8547,1.8537,1.8585,1.8499,1.845,1.8508,1.846,1.843,1.843,1.843,1.843,1.843,1.918,1.9391,1.8918,2.0581,2.0874,1.9711,1.9906,1.971,1.9113,1.8374,1.7952,1.78,1.78,1.7916,1.8103,1.8103,1.8229,1.843,1.843,1.846,1.8508,1.8508,1.8547,1.8595,1.8595,1.809,1.7312,1.6677,1.5903,1.5316,1.594,1.5703,1.5241,1.5459,1.5569,1.5712,1.6106,1.6548,1.6982,1.733,1.7887,1.8537,1.9168,1.9297,1.9297,1.9297,1.9297,1.9297,1.9297,1.9297,1.9297,1.9297,1.9297,1.9517,2.0144,2.0236,2.0548,2.1427,2.1519,2.1557,2.1666,2.1241,2.0831,2.0489,2.0641,2.1232,2.2409,2.2584,2.3014,2.3809,2.3683,2.3362,2.2904,2.3592,2.3501,2.2667,2.3694,2.419,2.419,2.419,2.419,2.4199,2.4366,2.4452,2.4512,2.467,2.476,2.4818,2.4923,2.4486,2.3735,2.3373,2.2402,2.1211,2.3107,2.2447,2.178,2.1384,2.0661,1.9993,1.9561,1.9506,1.9362,1.8984,1.8843,1.8834,1.8921,1.8726,1.8595,1.8595,1.8595,1.8595,1.8595,1.8595,1.8595,1.8595,1.9089,1.9181,1.8807,2.0124,2.0392,1.9489,1.938,1.9313,1.9273,1.8523,1.8177,1.8177,1.8177,1.8259,1.8391,1.8391,1.8469,1.8595,1.8595,1.8688,1.8789,1.8789,1.8601,1.8354,1.8354,1.7607,1.6476,1.5655,1.5056,1.4688,1.5119,1.4966,1.4645,1.4736,1.4879,1.5073,1.5563,1.5723,1.6028,1.7183,1.7502,1.7741,1.8537,1.9022,1.9297,1.9297,1.9297,1.9297,1.9297,1.9372,1.9431,1.9431,1.9845,2.0264,2.0603,2.1064,2.1652,2.2422,2.2577,2.263,2.271,2.1362,2.0772,2.1453,2.1526,2.2013,2.3172,2.3548,2.3914,2.4339,2.4256,2.3804,2.3006,2.3804,2.3842,2.3147,2.3969,2.4393,2.4486,2.4486,2.4486,2.4495,2.4591,2.4674,2.4752,2.4857,2.4962,2.5018,2.4678,2.4241,2.3708,2.3036,2.2139,2.1142,2.3897,2.3474,2.3006,2.3006,2.2336,2.1519,2.0639,2.0503,2.0217,1.9407,1.915,1.9109,1.9274,1.8947,1.8725,1.8725,1.8725,1.8725,1.8725,1.8725,1.8725,1.8725,1.8931,1.9052,1.9052,1.9659,1.9829,1.959,1.9047,1.9045,1.9502,1.8886,1.8595,1.8595,1.8595,1.8641,1.8678,1.8678,1.8688,1.8725,1.8725,1.8869,1.9102,1.9102,1.8802,1.8398,1.8398,1.7353,1.582,1.4886,1.4451,1.4326,1.4326,1.4308,1.4283,1.4283,1.4393,1.4658,1.5307,1.5013,1.5007,1.716,1.719,1.6958,1.7937,1.8772,1.935,1.935,1.9372,1.9402,1.9402,1.9523,1.9636,1.9636,2.0458,2.1092,2.1057,2.1894,2.2763,2.3472,2.3665,2.3706,2.3555,2.1719,2.1106,2.2457,2.2565,2.2898,2.3678,2.4245,2.4545,2.4503,2.4366,2.3971,2.3253,2.3953,2.4058,2.3596,2.4262,2.4651,2.4804,2.4804,2.4804,2.4804,2.4814,2.4897,2.501,2.5034,2.5075,2.5019,2.4356,2.3918,2.3548,2.2682,2.1927,2.1196,2.3306,2.315,2.3006,2.3006,2.2336,2.1519,2.0639,2.0503,2.0217,1.9407,1.9274,1.9266,1.9297,1.9243,1.9212,1.9212,1.9212,1.9212,1.9212,1.9212,1.9212,1.9212,1.9235,1.9251,1.9251,1.9361,1.9322,1.9102,1.9408,1.9283,1.8754,1.8648,1.8595,1.8595,1.8595,1.8734,1.894,1.894,1.9051,1.9212,1.9212,1.9327,1.9513,1.9513,1.9536,1.9562,1.9562,1.8495,1.6858,1.5344,1.4822,1.4809,1.4809,1.4737,1.4632,1.4632,1.4571,1.453,1.4622,1.4585,1.475,1.5766,1.5931,1.6294,1.7969,1.8973,1.9555,1.9555,1.9644,1.9725,1.9725,1.9743,1.978,1.978,2.0513,2.1337,2.2003,2.2809,2.3652,2.4504,2.472,2.4517,2.3825,2.3604,2.3534,2.3589,2.3591,2.3891,2.4585,2.47,2.4678,2.4512,2.4639,2.4575,2.4312,2.4575,2.4743,2.4772,2.4886,2.4891,2.4804,2.4804,2.4804,2.4811,2.4911,2.4986,2.5016,2.5198,2.4875,2.424,2.4149,2.3182,2.1754,2.0946,2.0558,2.0442,2.4009,2.3651,2.3281,2.3281,2.2991,2.2438,2.148,2.134,2.1002,2.0094,1.9682,1.9471,1.9471,1.9532,1.9573,1.9573,1.9573,1.9573,1.9573,1.9573,1.9573,1.9573,1.9573,1.9573,1.9573,1.9573,1.9533,1.9451,1.9578,1.952,1.9265,1.9265,1.9265,1.9265,1.9265,1.9335,1.9451,1.9451,1.9499,1.9573,1.9573,1.9638,1.9701,1.9701,1.9468,1.9071,1.8615,1.7977,1.7169,1.596,1.5578,1.5483,1.5036,1.4868,1.4809,1.4809,1.4717,1.4608,1.4608,1.4561,1.4695,1.549,1.5698,1.6171,1.7988,1.8733,1.9163,1.9626,1.9762,1.979,1.979,1.9863,2.0069,2.0568,2.1422,2.2301,2.3037,2.3926,2.4652,2.5028,2.4728,2.4535,2.4626,2.3876,2.3736,2.4574,2.4229,2.4293,2.5047,2.4962,2.4877,2.4776,2.4792,2.476,2.467,2.476,2.4876,2.5004,2.5004,2.5036,2.5086,2.5086,2.5086,2.5086,2.5135,2.5163,2.513,2.4769,2.4413,2.3995,2.3028,2.1908,2.0788,2.0423,2.0308,2.0308]}]]